<?xml version="1.0" encoding="UTF-8" standalone="no" ?>
<gpx xmlns="http://www.topografix.com/GPX/1/1" xmlns:xsi="http://www.w3.org/2001/XMLSchema-instance" xsi:schemaLocation="http://www.topografix.com/GPX/1/1 http://www.topografix.com/GPX/1/1/gpx.xsd" version="1.1" creator="VisuGPX - https://www.visugpx.com">
  <metadata>
    <name>Rousse - face ouest</name>
    <desc><![CDATA[Les Pré -> Col de l\'Alpe->Rousse -> face ouest -> croix de l\'Alpe -> Belles Ombres -> couloir E]]></desc>
  </metadata>
  <trk>
    <name><![CDATA[ACTIVE LOG- 28 FEV 2015 08-51]]></name>
    <trkseg>
      <trkpt lat="45.40641" lon="5.94418">
        <ele>926.85</ele>
        <time>2015-02-28T07:53:58Z</time>
      </trkpt>
      <trkpt lat="45.40644" lon="5.94412">
        <ele>928.77</ele>
        <time>2015-02-28T07:54:05Z</time>
      </trkpt>
      <trkpt lat="45.40646" lon="5.94407">
        <ele>930.21</ele>
        <time>2015-02-28T07:54:10Z</time>
      </trkpt>
      <trkpt lat="45.40651" lon="5.94404">
        <ele>931.17</ele>
        <time>2015-02-28T07:54:15Z</time>
      </trkpt>
      <trkpt lat="45.40654" lon="5.94402">
        <ele>932.62</ele>
        <time>2015-02-28T07:54:21Z</time>
      </trkpt>
      <trkpt lat="45.40661" lon="5.944">
        <ele>934.06</ele>
        <time>2015-02-28T07:54:36Z</time>
      </trkpt>
      <trkpt lat="45.4067" lon="5.94399">
        <ele>936.46</ele>
        <time>2015-02-28T07:54:48Z</time>
      </trkpt>
      <trkpt lat="45.40681" lon="5.944">
        <ele>939.35</ele>
        <time>2015-02-28T07:55:00Z</time>
      </trkpt>
      <trkpt lat="45.40689" lon="5.94397">
        <ele>941.75</ele>
        <time>2015-02-28T07:55:12Z</time>
      </trkpt>
      <trkpt lat="45.40697" lon="5.94395">
        <ele>944.15</ele>
        <time>2015-02-28T07:55:24Z</time>
      </trkpt>
      <trkpt lat="45.40701" lon="5.94394">
        <ele>945.11</ele>
        <time>2015-02-28T07:55:35Z</time>
      </trkpt>
      <trkpt lat="45.40699" lon="5.94392">
        <ele>944.63</ele>
        <time>2015-02-28T07:55:51Z</time>
      </trkpt>
      <trkpt lat="45.40695" lon="5.94386">
        <ele>945.59</ele>
        <time>2015-02-28T07:56:17Z</time>
      </trkpt>
      <trkpt lat="45.40697" lon="5.94382">
        <ele>948.48</ele>
        <time>2015-02-28T07:56:34Z</time>
      </trkpt>
      <trkpt lat="45.40705" lon="5.94373">
        <ele>950.88</ele>
        <time>2015-02-28T07:56:47Z</time>
      </trkpt>
      <trkpt lat="45.40708" lon="5.94362">
        <ele>953.77</ele>
        <time>2015-02-28T07:56:58Z</time>
      </trkpt>
      <trkpt lat="45.40713" lon="5.94359">
        <ele>954.73</ele>
        <time>2015-02-28T07:57:02Z</time>
      </trkpt>
      <trkpt lat="45.40717" lon="5.94354">
        <ele>956.17</ele>
        <time>2015-02-28T07:57:08Z</time>
      </trkpt>
      <trkpt lat="45.4072" lon="5.94349">
        <ele>957.13</ele>
        <time>2015-02-28T07:57:11Z</time>
      </trkpt>
      <trkpt lat="45.40724" lon="5.94337">
        <ele>959.53</ele>
        <time>2015-02-28T07:57:22Z</time>
      </trkpt>
      <trkpt lat="45.40728" lon="5.94334">
        <ele>960.98</ele>
        <time>2015-02-28T07:57:26Z</time>
      </trkpt>
      <trkpt lat="45.40745" lon="5.9433">
        <ele>963.38</ele>
        <time>2015-02-28T07:57:43Z</time>
      </trkpt>
      <trkpt lat="45.40756" lon="5.94327">
        <ele>964.82</ele>
        <time>2015-02-28T07:57:56Z</time>
      </trkpt>
      <trkpt lat="45.40763" lon="5.94326">
        <ele>965.78</ele>
        <time>2015-02-28T07:58:02Z</time>
      </trkpt>
      <trkpt lat="45.40773" lon="5.9432">
        <ele>968.67</ele>
        <time>2015-02-28T07:58:16Z</time>
      </trkpt>
      <trkpt lat="45.4078" lon="5.94316">
        <ele>970.11</ele>
        <time>2015-02-28T07:58:30Z</time>
      </trkpt>
      <trkpt lat="45.40792" lon="5.94314">
        <ele>972.99</ele>
        <time>2015-02-28T07:58:42Z</time>
      </trkpt>
      <trkpt lat="45.40804" lon="5.94313">
        <ele>974.43</ele>
        <time>2015-02-28T07:58:58Z</time>
      </trkpt>
      <trkpt lat="45.40818" lon="5.94308">
        <ele>975.88</ele>
        <time>2015-02-28T07:59:25Z</time>
      </trkpt>
      <trkpt lat="45.40828" lon="5.94303">
        <ele>977.8</ele>
        <time>2015-02-28T07:59:37Z</time>
      </trkpt>
      <trkpt lat="45.40843" lon="5.94301">
        <ele>980.68</ele>
        <time>2015-02-28T07:59:53Z</time>
      </trkpt>
      <trkpt lat="45.40857" lon="5.94299">
        <ele>982.6</ele>
        <time>2015-02-28T08:00:08Z</time>
      </trkpt>
      <trkpt lat="45.40874" lon="5.94295">
        <ele>984.53</ele>
        <time>2015-02-28T08:00:26Z</time>
      </trkpt>
      <trkpt lat="45.40887" lon="5.94293">
        <ele>986.93</ele>
        <time>2015-02-28T08:00:39Z</time>
      </trkpt>
      <trkpt lat="45.40899" lon="5.94292">
        <ele>988.85</ele>
        <time>2015-02-28T08:00:52Z</time>
      </trkpt>
      <trkpt lat="45.40911" lon="5.9429">
        <ele>991.26</ele>
        <time>2015-02-28T08:01:06Z</time>
      </trkpt>
      <trkpt lat="45.4092" lon="5.9429">
        <ele>993.66</ele>
        <time>2015-02-28T08:01:18Z</time>
      </trkpt>
      <trkpt lat="45.40933" lon="5.94292">
        <ele>995.58</ele>
        <time>2015-02-28T08:01:31Z</time>
      </trkpt>
      <trkpt lat="45.40945" lon="5.94298">
        <ele>998.95</ele>
        <time>2015-02-28T08:01:46Z</time>
      </trkpt>
      <trkpt lat="45.40951" lon="5.94299">
        <ele>1000.87</ele>
        <time>2015-02-28T08:01:55Z</time>
      </trkpt>
      <trkpt lat="45.40963" lon="5.94297">
        <ele>1002.79</ele>
        <time>2015-02-28T08:02:07Z</time>
      </trkpt>
      <trkpt lat="45.40974" lon="5.94296">
        <ele>1005.2</ele>
        <time>2015-02-28T08:02:18Z</time>
      </trkpt>
      <trkpt lat="45.40983" lon="5.94295">
        <ele>1008.08</ele>
        <time>2015-02-28T08:02:30Z</time>
      </trkpt>
      <trkpt lat="45.40988" lon="5.94295">
        <ele>1009.52</ele>
        <time>2015-02-28T08:02:37Z</time>
      </trkpt>
      <trkpt lat="45.40997" lon="5.94291">
        <ele>1011.44</ele>
        <time>2015-02-28T08:02:49Z</time>
      </trkpt>
      <trkpt lat="45.41008" lon="5.94289">
        <ele>1014.81</ele>
        <time>2015-02-28T08:03:02Z</time>
      </trkpt>
      <trkpt lat="45.41019" lon="5.94283">
        <ele>1017.21</ele>
        <time>2015-02-28T08:03:15Z</time>
      </trkpt>
      <trkpt lat="45.4103" lon="5.94281">
        <ele>1019.62</ele>
        <time>2015-02-28T08:03:29Z</time>
      </trkpt>
      <trkpt lat="45.4103" lon="5.94278">
        <ele>1020.1</ele>
        <time>2015-02-28T08:03:48Z</time>
      </trkpt>
      <trkpt lat="45.4103" lon="5.94275">
        <ele>1020.58</ele>
        <time>2015-02-28T08:04:32Z</time>
      </trkpt>
      <trkpt lat="45.41038" lon="5.94265">
        <ele>1023.94</ele>
        <time>2015-02-28T08:04:52Z</time>
      </trkpt>
      <trkpt lat="45.41042" lon="5.94256">
        <ele>1027.31</ele>
        <time>2015-02-28T08:05:05Z</time>
      </trkpt>
      <trkpt lat="45.41045" lon="5.94245">
        <ele>1030.19</ele>
        <time>2015-02-28T08:05:18Z</time>
      </trkpt>
      <trkpt lat="45.41048" lon="5.9423">
        <ele>1033.07</ele>
        <time>2015-02-28T08:05:32Z</time>
      </trkpt>
      <trkpt lat="45.41048" lon="5.9422">
        <ele>1036.44</ele>
        <time>2015-02-28T08:05:46Z</time>
      </trkpt>
      <trkpt lat="45.41052" lon="5.94213">
        <ele>1039.32</ele>
        <time>2015-02-28T08:05:59Z</time>
      </trkpt>
      <trkpt lat="45.41058" lon="5.9421">
        <ele>1042.69</ele>
        <time>2015-02-28T08:06:13Z</time>
      </trkpt>
      <trkpt lat="45.41064" lon="5.94203">
        <ele>1045.57</ele>
        <time>2015-02-28T08:06:26Z</time>
      </trkpt>
      <trkpt lat="45.41068" lon="5.94195">
        <ele>1048.45</ele>
        <time>2015-02-28T08:06:39Z</time>
      </trkpt>
      <trkpt lat="45.41072" lon="5.94188">
        <ele>1051.82</ele>
        <time>2015-02-28T08:06:52Z</time>
      </trkpt>
      <trkpt lat="45.41076" lon="5.9418">
        <ele>1054.7</ele>
        <time>2015-02-28T08:07:06Z</time>
      </trkpt>
      <trkpt lat="45.41081" lon="5.94173">
        <ele>1058.07</ele>
        <time>2015-02-28T08:07:19Z</time>
      </trkpt>
      <trkpt lat="45.41087" lon="5.94165">
        <ele>1060.95</ele>
        <time>2015-02-28T08:07:33Z</time>
      </trkpt>
      <trkpt lat="45.4109" lon="5.94158">
        <ele>1064.32</ele>
        <time>2015-02-28T08:07:47Z</time>
      </trkpt>
      <trkpt lat="45.41096" lon="5.94152">
        <ele>1067.2</ele>
        <time>2015-02-28T08:07:59Z</time>
      </trkpt>
      <trkpt lat="45.41103" lon="5.94147">
        <ele>1070.08</ele>
        <time>2015-02-28T08:08:12Z</time>
      </trkpt>
      <trkpt lat="45.41108" lon="5.9414">
        <ele>1073.45</ele>
        <time>2015-02-28T08:08:25Z</time>
      </trkpt>
      <trkpt lat="45.41113" lon="5.94133">
        <ele>1076.33</ele>
        <time>2015-02-28T08:08:39Z</time>
      </trkpt>
      <trkpt lat="45.41115" lon="5.94126">
        <ele>1079.7</ele>
        <time>2015-02-28T08:08:51Z</time>
      </trkpt>
      <trkpt lat="45.41121" lon="5.9412">
        <ele>1082.58</ele>
        <time>2015-02-28T08:09:06Z</time>
      </trkpt>
      <trkpt lat="45.41128" lon="5.94115">
        <ele>1085.95</ele>
        <time>2015-02-28T08:09:23Z</time>
      </trkpt>
      <trkpt lat="45.41132" lon="5.94113">
        <ele>1088.83</ele>
        <time>2015-02-28T08:09:36Z</time>
      </trkpt>
      <trkpt lat="45.41131" lon="5.94106">
        <ele>1091.71</ele>
        <time>2015-02-28T08:10:02Z</time>
      </trkpt>
      <trkpt lat="45.41132" lon="5.94108">
        <ele>1092.68</ele>
        <time>2015-02-28T08:11:19Z</time>
      </trkpt>
      <trkpt lat="45.41137" lon="5.94104">
        <ele>1093.16</ele>
        <time>2015-02-28T08:11:43Z</time>
      </trkpt>
      <trkpt lat="45.41148" lon="5.94098">
        <ele>1096.52</ele>
        <time>2015-02-28T08:12:03Z</time>
      </trkpt>
      <trkpt lat="45.41155" lon="5.94095">
        <ele>1099.4</ele>
        <time>2015-02-28T08:12:15Z</time>
      </trkpt>
      <trkpt lat="45.41159" lon="5.94092">
        <ele>1102.77</ele>
        <time>2015-02-28T08:12:29Z</time>
      </trkpt>
      <trkpt lat="45.4117" lon="5.94085">
        <ele>1105.65</ele>
        <time>2015-02-28T08:12:41Z</time>
      </trkpt>
      <trkpt lat="45.41176" lon="5.94076">
        <ele>1109.02</ele>
        <time>2015-02-28T08:12:53Z</time>
      </trkpt>
      <trkpt lat="45.41184" lon="5.94072">
        <ele>1111.9</ele>
        <time>2015-02-28T08:13:08Z</time>
      </trkpt>
      <trkpt lat="45.4119" lon="5.94072">
        <ele>1114.79</ele>
        <time>2015-02-28T08:13:20Z</time>
      </trkpt>
      <trkpt lat="45.41188" lon="5.94056">
        <ele>1117.19</ele>
        <time>2015-02-28T08:13:38Z</time>
      </trkpt>
      <trkpt lat="45.41197" lon="5.94049">
        <ele>1120.07</ele>
        <time>2015-02-28T08:13:54Z</time>
      </trkpt>
      <trkpt lat="45.41204" lon="5.94045">
        <ele>1123.44</ele>
        <time>2015-02-28T08:14:06Z</time>
      </trkpt>
      <trkpt lat="45.4121" lon="5.94042">
        <ele>1126.8</ele>
        <time>2015-02-28T08:14:19Z</time>
      </trkpt>
      <trkpt lat="45.41219" lon="5.9404">
        <ele>1130.17</ele>
        <time>2015-02-28T08:14:34Z</time>
      </trkpt>
      <trkpt lat="45.41226" lon="5.94032">
        <ele>1133.05</ele>
        <time>2015-02-28T08:14:49Z</time>
      </trkpt>
      <trkpt lat="45.41233" lon="5.94028">
        <ele>1135.94</ele>
        <time>2015-02-28T08:15:03Z</time>
      </trkpt>
      <trkpt lat="45.41244" lon="5.94021">
        <ele>1139.3</ele>
        <time>2015-02-28T08:15:21Z</time>
      </trkpt>
      <trkpt lat="45.41251" lon="5.94012">
        <ele>1142.66</ele>
        <time>2015-02-28T08:15:35Z</time>
      </trkpt>
      <trkpt lat="45.41256" lon="5.94005">
        <ele>1146.03</ele>
        <time>2015-02-28T08:15:50Z</time>
      </trkpt>
      <trkpt lat="45.41264" lon="5.93999">
        <ele>1148.91</ele>
        <time>2015-02-28T08:16:04Z</time>
      </trkpt>
      <trkpt lat="45.41271" lon="5.93991">
        <ele>1151.8</ele>
        <time>2015-02-28T08:16:18Z</time>
      </trkpt>
      <trkpt lat="45.41278" lon="5.93988">
        <ele>1155.16</ele>
        <time>2015-02-28T08:16:33Z</time>
      </trkpt>
      <trkpt lat="45.41286" lon="5.9398">
        <ele>1158.05</ele>
        <time>2015-02-28T08:16:48Z</time>
      </trkpt>
      <trkpt lat="45.41291" lon="5.93972">
        <ele>1161.41</ele>
        <time>2015-02-28T08:17:01Z</time>
      </trkpt>
      <trkpt lat="45.41296" lon="5.93966">
        <ele>1164.77</ele>
        <time>2015-02-28T08:17:13Z</time>
      </trkpt>
      <trkpt lat="45.41302" lon="5.93961">
        <ele>1168.14</ele>
        <time>2015-02-28T08:17:26Z</time>
      </trkpt>
      <trkpt lat="45.41307" lon="5.93956">
        <ele>1171.02</ele>
        <time>2015-02-28T08:17:39Z</time>
      </trkpt>
      <trkpt lat="45.41312" lon="5.93952">
        <ele>1173.91</ele>
        <time>2015-02-28T08:17:52Z</time>
      </trkpt>
      <trkpt lat="45.41317" lon="5.93946">
        <ele>1177.27</ele>
        <time>2015-02-28T08:18:07Z</time>
      </trkpt>
      <trkpt lat="45.41325" lon="5.93941">
        <ele>1180.16</ele>
        <time>2015-02-28T08:18:23Z</time>
      </trkpt>
      <trkpt lat="45.41335" lon="5.93938">
        <ele>1183.52</ele>
        <time>2015-02-28T08:18:38Z</time>
      </trkpt>
      <trkpt lat="45.41348" lon="5.93933">
        <ele>1186.4</ele>
        <time>2015-02-28T08:18:56Z</time>
      </trkpt>
      <trkpt lat="45.4136" lon="5.93931">
        <ele>1189.77</ele>
        <time>2015-02-28T08:19:12Z</time>
      </trkpt>
      <trkpt lat="45.41387" lon="5.93932">
        <ele>1193.13</ele>
        <time>2015-02-28T08:19:43Z</time>
      </trkpt>
      <trkpt lat="45.41406" lon="5.9393">
        <ele>1196.02</ele>
        <time>2015-02-28T08:20:06Z</time>
      </trkpt>
      <trkpt lat="45.41417" lon="5.93934">
        <ele>1198.9</ele>
        <time>2015-02-28T08:20:21Z</time>
      </trkpt>
      <trkpt lat="45.41429" lon="5.93937">
        <ele>1202.27</ele>
        <time>2015-02-28T08:20:38Z</time>
      </trkpt>
      <trkpt lat="45.41442" lon="5.93937">
        <ele>1205.15</ele>
        <time>2015-02-28T08:20:56Z</time>
      </trkpt>
      <trkpt lat="45.41464" lon="5.93943">
        <ele>1208.51</ele>
        <time>2015-02-28T08:21:18Z</time>
      </trkpt>
      <trkpt lat="45.41476" lon="5.93942">
        <ele>1211.4</ele>
        <time>2015-02-28T08:21:34Z</time>
      </trkpt>
      <trkpt lat="45.41487" lon="5.93943">
        <ele>1214.76</ele>
        <time>2015-02-28T08:21:48Z</time>
      </trkpt>
      <trkpt lat="45.41495" lon="5.93945">
        <ele>1217.65</ele>
        <time>2015-02-28T08:22:01Z</time>
      </trkpt>
      <trkpt lat="45.41503" lon="5.93943">
        <ele>1221.01</ele>
        <time>2015-02-28T08:22:15Z</time>
      </trkpt>
      <trkpt lat="45.41511" lon="5.93946">
        <ele>1224.38</ele>
        <time>2015-02-28T08:22:27Z</time>
      </trkpt>
      <trkpt lat="45.41523" lon="5.93944">
        <ele>1227.26</ele>
        <time>2015-02-28T08:22:44Z</time>
      </trkpt>
      <trkpt lat="45.41532" lon="5.93945">
        <ele>1230.62</ele>
        <time>2015-02-28T08:22:58Z</time>
      </trkpt>
      <trkpt lat="45.41538" lon="5.9394">
        <ele>1233.99</ele>
        <time>2015-02-28T08:23:11Z</time>
      </trkpt>
      <trkpt lat="45.41542" lon="5.93932">
        <ele>1236.87</ele>
        <time>2015-02-28T08:23:23Z</time>
      </trkpt>
      <trkpt lat="45.41546" lon="5.93924">
        <ele>1239.76</ele>
        <time>2015-02-28T08:23:35Z</time>
      </trkpt>
      <trkpt lat="45.41554" lon="5.93921">
        <ele>1243.12</ele>
        <time>2015-02-28T08:23:48Z</time>
      </trkpt>
      <trkpt lat="45.41561" lon="5.93916">
        <ele>1246.01</ele>
        <time>2015-02-28T08:24:02Z</time>
      </trkpt>
      <trkpt lat="45.41567" lon="5.93912">
        <ele>1248.89</ele>
        <time>2015-02-28T08:24:13Z</time>
      </trkpt>
      <trkpt lat="45.41565" lon="5.93903">
        <ele>1252.25</ele>
        <time>2015-02-28T08:24:29Z</time>
      </trkpt>
      <trkpt lat="45.41561" lon="5.93898">
        <ele>1255.14</ele>
        <time>2015-02-28T08:24:41Z</time>
      </trkpt>
      <trkpt lat="45.41557" lon="5.93885">
        <ele>1258.02</ele>
        <time>2015-02-28T08:25:00Z</time>
      </trkpt>
      <trkpt lat="45.4156" lon="5.93884">
        <ele>1261.39</ele>
        <time>2015-02-28T08:25:11Z</time>
      </trkpt>
      <trkpt lat="45.41569" lon="5.93879">
        <ele>1264.75</ele>
        <time>2015-02-28T08:25:26Z</time>
      </trkpt>
      <trkpt lat="45.41577" lon="5.93872">
        <ele>1267.64</ele>
        <time>2015-02-28T08:25:41Z</time>
      </trkpt>
      <trkpt lat="45.41583" lon="5.93867">
        <ele>1270.52</ele>
        <time>2015-02-28T08:25:52Z</time>
      </trkpt>
      <trkpt lat="45.41591" lon="5.93865">
        <ele>1273.88</ele>
        <time>2015-02-28T08:26:06Z</time>
      </trkpt>
      <trkpt lat="45.41597" lon="5.93861">
        <ele>1277.25</ele>
        <time>2015-02-28T08:26:19Z</time>
      </trkpt>
      <trkpt lat="45.41603" lon="5.93858">
        <ele>1280.13</ele>
        <time>2015-02-28T08:26:31Z</time>
      </trkpt>
      <trkpt lat="45.4161" lon="5.93852">
        <ele>1283.5</ele>
        <time>2015-02-28T08:26:46Z</time>
      </trkpt>
      <trkpt lat="45.41616" lon="5.93845">
        <ele>1286.38</ele>
        <time>2015-02-28T08:27:00Z</time>
      </trkpt>
      <trkpt lat="45.41624" lon="5.93844">
        <ele>1289.27</ele>
        <time>2015-02-28T08:27:14Z</time>
      </trkpt>
      <trkpt lat="45.41632" lon="5.93843">
        <ele>1292.63</ele>
        <time>2015-02-28T08:27:28Z</time>
      </trkpt>
      <trkpt lat="45.41638" lon="5.9384">
        <ele>1295.51</ele>
        <time>2015-02-28T08:27:40Z</time>
      </trkpt>
      <trkpt lat="45.41641" lon="5.93837">
        <ele>1298.88</ele>
        <time>2015-02-28T08:27:52Z</time>
      </trkpt>
      <trkpt lat="45.41651" lon="5.9384">
        <ele>1302.24</ele>
        <time>2015-02-28T08:28:10Z</time>
      </trkpt>
      <trkpt lat="45.41657" lon="5.93842">
        <ele>1305.13</ele>
        <time>2015-02-28T08:28:22Z</time>
      </trkpt>
      <trkpt lat="45.41665" lon="5.93845">
        <ele>1308.49</ele>
        <time>2015-02-28T08:28:35Z</time>
      </trkpt>
      <trkpt lat="45.41671" lon="5.93843">
        <ele>1311.86</ele>
        <time>2015-02-28T08:28:49Z</time>
      </trkpt>
      <trkpt lat="45.41669" lon="5.93828">
        <ele>1315.22</ele>
        <time>2015-02-28T08:29:09Z</time>
      </trkpt>
      <trkpt lat="45.41657" lon="5.93812">
        <ele>1318.1</ele>
        <time>2015-02-28T08:29:32Z</time>
      </trkpt>
      <trkpt lat="45.4166" lon="5.93802">
        <ele>1321.47</ele>
        <time>2015-02-28T08:29:47Z</time>
      </trkpt>
      <trkpt lat="45.41667" lon="5.93803">
        <ele>1324.35</ele>
        <time>2015-02-28T08:30:00Z</time>
      </trkpt>
      <trkpt lat="45.41676" lon="5.93805">
        <ele>1327.72</ele>
        <time>2015-02-28T08:30:12Z</time>
      </trkpt>
      <trkpt lat="45.41687" lon="5.93808">
        <ele>1330.6</ele>
        <time>2015-02-28T08:30:29Z</time>
      </trkpt>
      <trkpt lat="45.41702" lon="5.93819">
        <ele>1333.97</ele>
        <time>2015-02-28T08:30:52Z</time>
      </trkpt>
      <trkpt lat="45.41714" lon="5.9382">
        <ele>1336.85</ele>
        <time>2015-02-28T08:31:04Z</time>
      </trkpt>
      <trkpt lat="45.41725" lon="5.93827">
        <ele>1340.22</ele>
        <time>2015-02-28T08:31:19Z</time>
      </trkpt>
      <trkpt lat="45.41731" lon="5.93828">
        <ele>1343.1</ele>
        <time>2015-02-28T08:31:30Z</time>
      </trkpt>
      <trkpt lat="45.41743" lon="5.93833">
        <ele>1345.98</ele>
        <time>2015-02-28T08:31:46Z</time>
      </trkpt>
      <trkpt lat="45.41755" lon="5.93832">
        <ele>1349.35</ele>
        <time>2015-02-28T08:32:01Z</time>
      </trkpt>
      <trkpt lat="45.41775" lon="5.93829">
        <ele>1352.23</ele>
        <time>2015-02-28T08:32:21Z</time>
      </trkpt>
      <trkpt lat="45.41787" lon="5.93825">
        <ele>1355.6</ele>
        <time>2015-02-28T08:32:39Z</time>
      </trkpt>
      <trkpt lat="45.4178" lon="5.93818">
        <ele>1358</ele>
        <time>2015-02-28T08:32:56Z</time>
      </trkpt>
      <trkpt lat="45.41777" lon="5.93806">
        <ele>1360.88</ele>
        <time>2015-02-28T08:33:09Z</time>
      </trkpt>
      <trkpt lat="45.41765" lon="5.93793">
        <ele>1363.29</ele>
        <time>2015-02-28T08:33:33Z</time>
      </trkpt>
      <trkpt lat="45.41758" lon="5.93787">
        <ele>1365.21</ele>
        <time>2015-02-28T08:33:56Z</time>
      </trkpt>
      <trkpt lat="45.41766" lon="5.93786">
        <ele>1368.57</ele>
        <time>2015-02-28T08:34:14Z</time>
      </trkpt>
      <trkpt lat="45.41779" lon="5.93785">
        <ele>1371.94</ele>
        <time>2015-02-28T08:34:35Z</time>
      </trkpt>
      <trkpt lat="45.4179" lon="5.93782">
        <ele>1374.34</ele>
        <time>2015-02-28T08:34:59Z</time>
      </trkpt>
      <trkpt lat="45.41782" lon="5.93772">
        <ele>1377.23</ele>
        <time>2015-02-28T08:35:21Z</time>
      </trkpt>
      <trkpt lat="45.41772" lon="5.93769">
        <ele>1377.23</ele>
        <time>2015-02-28T08:35:36Z</time>
      </trkpt>
      <trkpt lat="45.41756" lon="5.93762">
        <ele>1377.23</ele>
        <time>2015-02-28T08:35:52Z</time>
      </trkpt>
      <trkpt lat="45.41743" lon="5.93747">
        <ele>1377.23</ele>
        <time>2015-02-28T08:36:07Z</time>
      </trkpt>
      <trkpt lat="45.41742" lon="5.93739">
        <ele>1377.71</ele>
        <time>2015-02-28T08:36:14Z</time>
      </trkpt>
      <trkpt lat="45.41744" lon="5.93738">
        <ele>1377.71</ele>
        <time>2015-02-28T08:36:16Z</time>
      </trkpt>
      <trkpt lat="45.41757" lon="5.93744">
        <ele>1379.63</ele>
        <time>2015-02-28T08:36:37Z</time>
      </trkpt>
      <trkpt lat="45.41781" lon="5.9375">
        <ele>1382.51</ele>
        <time>2015-02-28T08:37:02Z</time>
      </trkpt>
      <trkpt lat="45.41802" lon="5.93752">
        <ele>1384.92</ele>
        <time>2015-02-28T08:37:26Z</time>
      </trkpt>
      <trkpt lat="45.41821" lon="5.93747">
        <ele>1386.84</ele>
        <time>2015-02-28T08:37:49Z</time>
      </trkpt>
      <trkpt lat="45.41841" lon="5.93736">
        <ele>1389.72</ele>
        <time>2015-02-28T08:38:14Z</time>
      </trkpt>
      <trkpt lat="45.41866" lon="5.93733">
        <ele>1392.61</ele>
        <time>2015-02-28T08:38:42Z</time>
      </trkpt>
      <trkpt lat="45.41887" lon="5.93726">
        <ele>1395.97</ele>
        <time>2015-02-28T08:39:07Z</time>
      </trkpt>
      <trkpt lat="45.41912" lon="5.93709">
        <ele>1398.86</ele>
        <time>2015-02-28T08:39:36Z</time>
      </trkpt>
      <trkpt lat="45.41931" lon="5.93705">
        <ele>1401.26</ele>
        <time>2015-02-28T08:39:59Z</time>
      </trkpt>
      <trkpt lat="45.41937" lon="5.93704">
        <ele>1401.74</ele>
        <time>2015-02-28T08:40:07Z</time>
      </trkpt>
      <trkpt lat="45.41963" lon="5.93714">
        <ele>1404.14</ele>
        <time>2015-02-28T08:40:37Z</time>
      </trkpt>
      <trkpt lat="45.41984" lon="5.93731">
        <ele>1407.51</ele>
        <time>2015-02-28T08:41:04Z</time>
      </trkpt>
      <trkpt lat="45.42" lon="5.93748">
        <ele>1410.39</ele>
        <time>2015-02-28T08:41:32Z</time>
      </trkpt>
      <trkpt lat="45.4203" lon="5.93756">
        <ele>1413.76</ele>
        <time>2015-02-28T08:42:01Z</time>
      </trkpt>
      <trkpt lat="45.42052" lon="5.93759">
        <ele>1416.64</ele>
        <time>2015-02-28T08:42:24Z</time>
      </trkpt>
      <trkpt lat="45.42076" lon="5.93761">
        <ele>1419.04</ele>
        <time>2015-02-28T08:42:50Z</time>
      </trkpt>
      <trkpt lat="45.42096" lon="5.93755">
        <ele>1421.93</ele>
        <time>2015-02-28T08:43:14Z</time>
      </trkpt>
      <trkpt lat="45.42107" lon="5.9375">
        <ele>1423.85</ele>
        <time>2015-02-28T08:43:27Z</time>
      </trkpt>
      <trkpt lat="45.42115" lon="5.93743">
        <ele>1426.73</ele>
        <time>2015-02-28T08:43:43Z</time>
      </trkpt>
      <trkpt lat="45.42123" lon="5.93746">
        <ele>1429.62</ele>
        <time>2015-02-28T08:43:56Z</time>
      </trkpt>
      <trkpt lat="45.42143" lon="5.93751">
        <ele>1432.98</ele>
        <time>2015-02-28T08:44:20Z</time>
      </trkpt>
      <trkpt lat="45.42157" lon="5.93746">
        <ele>1435.87</ele>
        <time>2015-02-28T08:44:36Z</time>
      </trkpt>
      <trkpt lat="45.42173" lon="5.93744">
        <ele>1439.23</ele>
        <time>2015-02-28T08:44:56Z</time>
      </trkpt>
      <trkpt lat="45.42189" lon="5.93747">
        <ele>1442.11</ele>
        <time>2015-02-28T08:45:14Z</time>
      </trkpt>
      <trkpt lat="45.42201" lon="5.93751">
        <ele>1445.48</ele>
        <time>2015-02-28T08:45:31Z</time>
      </trkpt>
      <trkpt lat="45.4221" lon="5.93758">
        <ele>1448.36</ele>
        <time>2015-02-28T08:45:45Z</time>
      </trkpt>
      <trkpt lat="45.42221" lon="5.93762">
        <ele>1451.25</ele>
        <time>2015-02-28T08:46:03Z</time>
      </trkpt>
      <trkpt lat="45.42228" lon="5.93764">
        <ele>1454.61</ele>
        <time>2015-02-28T08:46:16Z</time>
      </trkpt>
      <trkpt lat="45.42239" lon="5.93764">
        <ele>1457.5</ele>
        <time>2015-02-28T08:46:31Z</time>
      </trkpt>
      <trkpt lat="45.4225" lon="5.93764">
        <ele>1460.38</ele>
        <time>2015-02-28T08:46:45Z</time>
      </trkpt>
      <trkpt lat="45.42261" lon="5.93761">
        <ele>1463.74</ele>
        <time>2015-02-28T08:47:02Z</time>
      </trkpt>
      <trkpt lat="45.42275" lon="5.93766">
        <ele>1467.11</ele>
        <time>2015-02-28T08:47:20Z</time>
      </trkpt>
      <trkpt lat="45.42285" lon="5.9377">
        <ele>1469.99</ele>
        <time>2015-02-28T08:47:35Z</time>
      </trkpt>
      <trkpt lat="45.42296" lon="5.9377">
        <ele>1473.36</ele>
        <time>2015-02-28T08:47:51Z</time>
      </trkpt>
      <trkpt lat="45.42304" lon="5.93766">
        <ele>1476.24</ele>
        <time>2015-02-28T08:48:08Z</time>
      </trkpt>
      <trkpt lat="45.42311" lon="5.93763">
        <ele>1479.61</ele>
        <time>2015-02-28T08:48:22Z</time>
      </trkpt>
      <trkpt lat="45.42319" lon="5.93761">
        <ele>1482.49</ele>
        <time>2015-02-28T08:48:36Z</time>
      </trkpt>
      <trkpt lat="45.42329" lon="5.93759">
        <ele>1485.85</ele>
        <time>2015-02-28T08:48:51Z</time>
      </trkpt>
      <trkpt lat="45.42342" lon="5.93759">
        <ele>1488.74</ele>
        <time>2015-02-28T08:49:09Z</time>
      </trkpt>
      <trkpt lat="45.42353" lon="5.9376">
        <ele>1492.1</ele>
        <time>2015-02-28T08:49:24Z</time>
      </trkpt>
      <trkpt lat="45.42364" lon="5.93763">
        <ele>1494.99</ele>
        <time>2015-02-28T08:49:40Z</time>
      </trkpt>
      <trkpt lat="45.4238" lon="5.9377">
        <ele>1498.35</ele>
        <time>2015-02-28T08:49:58Z</time>
      </trkpt>
      <trkpt lat="45.42387" lon="5.93775">
        <ele>1499.31</ele>
        <time>2015-02-28T08:50:07Z</time>
      </trkpt>
      <trkpt lat="45.42404" lon="5.93796">
        <ele>1502.68</ele>
        <time>2015-02-28T08:50:32Z</time>
      </trkpt>
      <trkpt lat="45.42415" lon="5.93806">
        <ele>1505.08</ele>
        <time>2015-02-28T08:50:47Z</time>
      </trkpt>
      <trkpt lat="45.42428" lon="5.93812">
        <ele>1507.48</ele>
        <time>2015-02-28T08:51:03Z</time>
      </trkpt>
      <trkpt lat="45.42437" lon="5.93816">
        <ele>1509.89</ele>
        <time>2015-02-28T08:51:15Z</time>
      </trkpt>
      <trkpt lat="45.4245" lon="5.93822">
        <ele>1512.29</ele>
        <time>2015-02-28T08:51:28Z</time>
      </trkpt>
      <trkpt lat="45.42467" lon="5.93819">
        <ele>1514.21</ele>
        <time>2015-02-28T08:51:45Z</time>
      </trkpt>
      <trkpt lat="45.42471" lon="5.93814">
        <ele>1516.62</ele>
        <time>2015-02-28T08:51:58Z</time>
      </trkpt>
      <trkpt lat="45.42469" lon="5.9381">
        <ele>1517.58</ele>
        <time>2015-02-28T08:52:03Z</time>
      </trkpt>
      <trkpt lat="45.42466" lon="5.93806">
        <ele>1519.02</ele>
        <time>2015-02-28T08:52:10Z</time>
      </trkpt>
      <trkpt lat="45.42463" lon="5.93802">
        <ele>1520.46</ele>
        <time>2015-02-28T08:52:15Z</time>
      </trkpt>
      <trkpt lat="45.42461" lon="5.93798">
        <ele>1520.94</ele>
        <time>2015-02-28T08:52:19Z</time>
      </trkpt>
      <trkpt lat="45.42457" lon="5.93787">
        <ele>1523.35</ele>
        <time>2015-02-28T08:52:31Z</time>
      </trkpt>
      <trkpt lat="45.42455" lon="5.93776">
        <ele>1526.23</ele>
        <time>2015-02-28T08:52:44Z</time>
      </trkpt>
      <trkpt lat="45.42451" lon="5.93766">
        <ele>1529.11</ele>
        <time>2015-02-28T08:52:58Z</time>
      </trkpt>
      <trkpt lat="45.42451" lon="5.93761">
        <ele>1530.56</ele>
        <time>2015-02-28T08:53:03Z</time>
      </trkpt>
      <trkpt lat="45.42453" lon="5.93761">
        <ele>1531.52</ele>
        <time>2015-02-28T08:53:06Z</time>
      </trkpt>
      <trkpt lat="45.42455" lon="5.93762">
        <ele>1532</ele>
        <time>2015-02-28T08:53:09Z</time>
      </trkpt>
      <trkpt lat="45.42458" lon="5.93763">
        <ele>1532.96</ele>
        <time>2015-02-28T08:53:13Z</time>
      </trkpt>
      <trkpt lat="45.42464" lon="5.93762">
        <ele>1533.44</ele>
        <time>2015-02-28T08:53:18Z</time>
      </trkpt>
      <trkpt lat="45.42477" lon="5.93762">
        <ele>1536.32</ele>
        <time>2015-02-28T08:53:30Z</time>
      </trkpt>
      <trkpt lat="45.42485" lon="5.93762">
        <ele>1538.73</ele>
        <time>2015-02-28T08:53:42Z</time>
      </trkpt>
      <trkpt lat="45.42477" lon="5.9375">
        <ele>1540.17</ele>
        <time>2015-02-28T08:53:57Z</time>
      </trkpt>
      <trkpt lat="45.42477" lon="5.93749">
        <ele>1540.17</ele>
        <time>2015-02-28T08:53:58Z</time>
      </trkpt>
      <trkpt lat="45.42474" lon="5.93743">
        <ele>1541.13</ele>
        <time>2015-02-28T08:54:04Z</time>
      </trkpt>
      <trkpt lat="45.42472" lon="5.93741">
        <ele>1541.61</ele>
        <time>2015-02-28T08:54:19Z</time>
      </trkpt>
      <trkpt lat="45.42476" lon="5.93736">
        <ele>1541.13</ele>
        <time>2015-02-28T08:54:35Z</time>
      </trkpt>
      <trkpt lat="45.42477" lon="5.93736">
        <ele>1541.13</ele>
        <time>2015-02-28T08:54:37Z</time>
      </trkpt>
      <trkpt lat="45.42482" lon="5.93729">
        <ele>1541.13</ele>
        <time>2015-02-28T08:54:56Z</time>
      </trkpt>
      <trkpt lat="45.42483" lon="5.93727">
        <ele>1541.13</ele>
        <time>2015-02-28T08:55:19Z</time>
      </trkpt>
      <trkpt lat="45.42482" lon="5.93729">
        <ele>1540.65</ele>
        <time>2015-02-28T08:55:36Z</time>
      </trkpt>
      <trkpt lat="45.42489" lon="5.93718">
        <ele>1540.17</ele>
        <time>2015-02-28T08:55:56Z</time>
      </trkpt>
      <trkpt lat="45.42494" lon="5.93716">
        <ele>1539.69</ele>
        <time>2015-02-28T08:56:09Z</time>
      </trkpt>
      <trkpt lat="45.42492" lon="5.93716">
        <ele>1539.69</ele>
        <time>2015-02-28T08:56:26Z</time>
      </trkpt>
      <trkpt lat="45.42492" lon="5.93719">
        <ele>1539.69</ele>
        <time>2015-02-28T08:56:44Z</time>
      </trkpt>
      <trkpt lat="45.42492" lon="5.93715">
        <ele>1538.25</ele>
        <time>2015-02-28T08:57:06Z</time>
      </trkpt>
      <trkpt lat="45.42495" lon="5.9371">
        <ele>1538.25</ele>
        <time>2015-02-28T08:57:30Z</time>
      </trkpt>
      <trkpt lat="45.42496" lon="5.93706">
        <ele>1537.77</ele>
        <time>2015-02-28T08:57:42Z</time>
      </trkpt>
      <trkpt lat="45.42492" lon="5.93684">
        <ele>1539.21</ele>
        <time>2015-02-28T08:58:02Z</time>
      </trkpt>
      <trkpt lat="45.42492" lon="5.93662">
        <ele>1541.61</ele>
        <time>2015-02-28T08:58:22Z</time>
      </trkpt>
      <trkpt lat="45.4249" lon="5.93634">
        <ele>1543.05</ele>
        <time>2015-02-28T08:58:42Z</time>
      </trkpt>
      <trkpt lat="45.42479" lon="5.93606">
        <ele>1545.94</ele>
        <time>2015-02-28T08:59:12Z</time>
      </trkpt>
      <trkpt lat="45.4248" lon="5.93589">
        <ele>1547.38</ele>
        <time>2015-02-28T08:59:25Z</time>
      </trkpt>
      <trkpt lat="45.42495" lon="5.93597">
        <ele>1548.82</ele>
        <time>2015-02-28T08:59:44Z</time>
      </trkpt>
      <trkpt lat="45.42502" lon="5.93601">
        <ele>1548.82</ele>
        <time>2015-02-28T08:59:55Z</time>
      </trkpt>
      <trkpt lat="45.42522" lon="5.9362">
        <ele>1549.78</ele>
        <time>2015-02-28T09:00:19Z</time>
      </trkpt>
      <trkpt lat="45.42534" lon="5.93631">
        <ele>1551.22</ele>
        <time>2015-02-28T09:00:40Z</time>
      </trkpt>
      <trkpt lat="45.42549" lon="5.93645">
        <ele>1552.19</ele>
        <time>2015-02-28T09:01:03Z</time>
      </trkpt>
      <trkpt lat="45.42561" lon="5.93651">
        <ele>1554.11</ele>
        <time>2015-02-28T09:01:22Z</time>
      </trkpt>
      <trkpt lat="45.42575" lon="5.93661">
        <ele>1555.55</ele>
        <time>2015-02-28T09:01:43Z</time>
      </trkpt>
      <trkpt lat="45.42589" lon="5.93666">
        <ele>1556.99</ele>
        <time>2015-02-28T09:02:06Z</time>
      </trkpt>
      <trkpt lat="45.42585" lon="5.93663">
        <ele>1559.4</ele>
        <time>2015-02-28T09:02:26Z</time>
      </trkpt>
      <trkpt lat="45.42578" lon="5.93659">
        <ele>1559.88</ele>
        <time>2015-02-28T09:02:34Z</time>
      </trkpt>
      <trkpt lat="45.42562" lon="5.93651">
        <ele>1561.32</ele>
        <time>2015-02-28T09:02:50Z</time>
      </trkpt>
      <trkpt lat="45.42556" lon="5.93642">
        <ele>1562.28</ele>
        <time>2015-02-28T09:03:00Z</time>
      </trkpt>
      <trkpt lat="45.42543" lon="5.93619">
        <ele>1565.64</ele>
        <time>2015-02-28T09:03:27Z</time>
      </trkpt>
      <trkpt lat="45.42528" lon="5.93593">
        <ele>1568.05</ele>
        <time>2015-02-28T09:03:54Z</time>
      </trkpt>
      <trkpt lat="45.42513" lon="5.93565">
        <ele>1570.93</ele>
        <time>2015-02-28T09:04:22Z</time>
      </trkpt>
      <trkpt lat="45.425" lon="5.93547">
        <ele>1573.33</ele>
        <time>2015-02-28T09:04:41Z</time>
      </trkpt>
      <trkpt lat="45.42495" lon="5.93525">
        <ele>1573.33</ele>
        <time>2015-02-28T09:04:58Z</time>
      </trkpt>
      <trkpt lat="45.42486" lon="5.93515">
        <ele>1574.78</ele>
        <time>2015-02-28T09:05:12Z</time>
      </trkpt>
      <trkpt lat="45.42479" lon="5.93491">
        <ele>1575.26</ele>
        <time>2015-02-28T09:05:30Z</time>
      </trkpt>
      <trkpt lat="45.42469" lon="5.93478">
        <ele>1576.22</ele>
        <time>2015-02-28T09:05:48Z</time>
      </trkpt>
      <trkpt lat="45.4245" lon="5.93463">
        <ele>1577.18</ele>
        <time>2015-02-28T09:06:13Z</time>
      </trkpt>
      <trkpt lat="45.42431" lon="5.93449">
        <ele>1578.62</ele>
        <time>2015-02-28T09:06:38Z</time>
      </trkpt>
      <trkpt lat="45.42408" lon="5.93433">
        <ele>1580.06</ele>
        <time>2015-02-28T09:07:06Z</time>
      </trkpt>
      <trkpt lat="45.424" lon="5.93427">
        <ele>1580.06</ele>
        <time>2015-02-28T09:07:14Z</time>
      </trkpt>
      <trkpt lat="45.42389" lon="5.93413">
        <ele>1579.58</ele>
        <time>2015-02-28T09:07:27Z</time>
      </trkpt>
      <trkpt lat="45.42372" lon="5.93401">
        <ele>1580.06</ele>
        <time>2015-02-28T09:07:44Z</time>
      </trkpt>
      <trkpt lat="45.42366" lon="5.934">
        <ele>1579.58</ele>
        <time>2015-02-28T09:07:48Z</time>
      </trkpt>
      <trkpt lat="45.42343" lon="5.934">
        <ele>1579.58</ele>
        <time>2015-02-28T09:08:04Z</time>
      </trkpt>
      <trkpt lat="45.42326" lon="5.93394">
        <ele>1580.06</ele>
        <time>2015-02-28T09:08:19Z</time>
      </trkpt>
      <trkpt lat="45.42299" lon="5.93387">
        <ele>1581.03</ele>
        <time>2015-02-28T09:08:37Z</time>
      </trkpt>
      <trkpt lat="45.4228" lon="5.93382">
        <ele>1582.95</ele>
        <time>2015-02-28T09:08:53Z</time>
      </trkpt>
      <trkpt lat="45.4225" lon="5.93387">
        <ele>1585.83</ele>
        <time>2015-02-28T09:09:10Z</time>
      </trkpt>
      <trkpt lat="45.42247" lon="5.93387">
        <ele>1586.79</ele>
        <time>2015-02-28T09:09:13Z</time>
      </trkpt>
      <trkpt lat="45.42236" lon="5.93388">
        <ele>1589.68</ele>
        <time>2015-02-28T09:09:26Z</time>
      </trkpt>
      <trkpt lat="45.42225" lon="5.93384">
        <ele>1591.12</ele>
        <time>2015-02-28T09:09:38Z</time>
      </trkpt>
      <trkpt lat="45.42216" lon="5.93371">
        <ele>1590.16</ele>
        <time>2015-02-28T09:09:48Z</time>
      </trkpt>
      <trkpt lat="45.422" lon="5.93369">
        <ele>1592.56</ele>
        <time>2015-02-28T09:10:07Z</time>
      </trkpt>
      <trkpt lat="45.42189" lon="5.93373">
        <ele>1595.45</ele>
        <time>2015-02-28T09:10:21Z</time>
      </trkpt>
      <trkpt lat="45.42184" lon="5.93375">
        <ele>1596.89</ele>
        <time>2015-02-28T09:10:34Z</time>
      </trkpt>
      <trkpt lat="45.42175" lon="5.93368">
        <ele>1599.29</ele>
        <time>2015-02-28T09:10:55Z</time>
      </trkpt>
      <trkpt lat="45.42177" lon="5.93358">
        <ele>1599.77</ele>
        <time>2015-02-28T09:11:21Z</time>
      </trkpt>
      <trkpt lat="45.42175" lon="5.9336">
        <ele>1599.77</ele>
        <time>2015-02-28T09:11:41Z</time>
      </trkpt>
      <trkpt lat="45.42166" lon="5.93367">
        <ele>1600.25</ele>
        <time>2015-02-28T09:12:05Z</time>
      </trkpt>
      <trkpt lat="45.42154" lon="5.93361">
        <ele>1598.81</ele>
        <time>2015-02-28T09:12:15Z</time>
      </trkpt>
      <trkpt lat="45.42153" lon="5.93365">
        <ele>1598.33</ele>
        <time>2015-02-28T09:12:17Z</time>
      </trkpt>
      <trkpt lat="45.42143" lon="5.93377">
        <ele>1599.77</ele>
        <time>2015-02-28T09:12:30Z</time>
      </trkpt>
      <trkpt lat="45.42122" lon="5.93374">
        <ele>1600.25</ele>
        <time>2015-02-28T09:12:43Z</time>
      </trkpt>
      <trkpt lat="45.42105" lon="5.93374">
        <ele>1600.73</ele>
        <time>2015-02-28T09:12:56Z</time>
      </trkpt>
      <trkpt lat="45.4208" lon="5.93378">
        <ele>1600.25</ele>
        <time>2015-02-28T09:13:11Z</time>
      </trkpt>
      <trkpt lat="45.42072" lon="5.93362">
        <ele>1602.17</ele>
        <time>2015-02-28T09:13:28Z</time>
      </trkpt>
      <trkpt lat="45.42053" lon="5.93362">
        <ele>1603.62</ele>
        <time>2015-02-28T09:13:44Z</time>
      </trkpt>
      <trkpt lat="45.42029" lon="5.9335">
        <ele>1602.17</ele>
        <time>2015-02-28T09:13:55Z</time>
      </trkpt>
      <trkpt lat="45.42007" lon="5.93348">
        <ele>1600.25</ele>
        <time>2015-02-28T09:14:07Z</time>
      </trkpt>
      <trkpt lat="45.41998" lon="5.93339">
        <ele>1601.21</ele>
        <time>2015-02-28T09:14:19Z</time>
      </trkpt>
      <trkpt lat="45.41996" lon="5.93338">
        <ele>1601.21</ele>
        <time>2015-02-28T09:14:22Z</time>
      </trkpt>
      <trkpt lat="45.41996" lon="5.93342">
        <ele>1601.69</ele>
        <time>2015-02-28T09:14:31Z</time>
      </trkpt>
      <trkpt lat="45.41981" lon="5.93347">
        <ele>1603.14</ele>
        <time>2015-02-28T09:14:45Z</time>
      </trkpt>
      <trkpt lat="45.41962" lon="5.93349">
        <ele>1604.1</ele>
        <time>2015-02-28T09:15:00Z</time>
      </trkpt>
      <trkpt lat="45.41944" lon="5.93362">
        <ele>1606.02</ele>
        <time>2015-02-28T09:15:13Z</time>
      </trkpt>
      <trkpt lat="45.41926" lon="5.93362">
        <ele>1608.9</ele>
        <time>2015-02-28T09:15:29Z</time>
      </trkpt>
      <trkpt lat="45.41911" lon="5.93356">
        <ele>1611.79</ele>
        <time>2015-02-28T09:15:47Z</time>
      </trkpt>
      <trkpt lat="45.41901" lon="5.93354">
        <ele>1613.71</ele>
        <time>2015-02-28T09:16:02Z</time>
      </trkpt>
      <trkpt lat="45.41886" lon="5.93349">
        <ele>1615.63</ele>
        <time>2015-02-28T09:16:20Z</time>
      </trkpt>
      <trkpt lat="45.41875" lon="5.93347">
        <ele>1618.52</ele>
        <time>2015-02-28T09:16:37Z</time>
      </trkpt>
      <trkpt lat="45.41869" lon="5.93345">
        <ele>1621.88</ele>
        <time>2015-02-28T09:16:52Z</time>
      </trkpt>
      <trkpt lat="45.41874" lon="5.93339">
        <ele>1624.77</ele>
        <time>2015-02-28T09:17:06Z</time>
      </trkpt>
      <trkpt lat="45.4188" lon="5.93329">
        <ele>1628.13</ele>
        <time>2015-02-28T09:17:24Z</time>
      </trkpt>
      <trkpt lat="45.41882" lon="5.93319">
        <ele>1631.01</ele>
        <time>2015-02-28T09:17:39Z</time>
      </trkpt>
      <trkpt lat="45.41883" lon="5.9331">
        <ele>1633.9</ele>
        <time>2015-02-28T09:17:54Z</time>
      </trkpt>
      <trkpt lat="45.4188" lon="5.93304">
        <ele>1637.26</ele>
        <time>2015-02-28T09:18:10Z</time>
      </trkpt>
      <trkpt lat="45.41877" lon="5.933">
        <ele>1640.15</ele>
        <time>2015-02-28T09:18:30Z</time>
      </trkpt>
      <trkpt lat="45.4187" lon="5.93299">
        <ele>1643.51</ele>
        <time>2015-02-28T09:18:47Z</time>
      </trkpt>
      <trkpt lat="45.4187" lon="5.93297">
        <ele>1645.43</ele>
        <time>2015-02-28T09:19:07Z</time>
      </trkpt>
      <trkpt lat="45.41867" lon="5.93302">
        <ele>1648.32</ele>
        <time>2015-02-28T09:19:23Z</time>
      </trkpt>
      <trkpt lat="45.41866" lon="5.93309">
        <ele>1649.76</ele>
        <time>2015-02-28T09:19:55Z</time>
      </trkpt>
      <trkpt lat="45.41862" lon="5.93322">
        <ele>1652.64</ele>
        <time>2015-02-28T09:20:10Z</time>
      </trkpt>
      <trkpt lat="45.41859" lon="5.93327">
        <ele>1655.53</ele>
        <time>2015-02-28T09:20:20Z</time>
      </trkpt>
      <trkpt lat="45.4185" lon="5.93338">
        <ele>1658.41</ele>
        <time>2015-02-28T09:20:33Z</time>
      </trkpt>
      <trkpt lat="45.41846" lon="5.93346">
        <ele>1661.3</ele>
        <time>2015-02-28T09:20:46Z</time>
      </trkpt>
      <trkpt lat="45.41842" lon="5.9335">
        <ele>1664.66</ele>
        <time>2015-02-28T09:21:00Z</time>
      </trkpt>
      <trkpt lat="45.41837" lon="5.93353">
        <ele>1667.06</ele>
        <time>2015-02-28T09:21:16Z</time>
      </trkpt>
      <trkpt lat="45.41831" lon="5.93341">
        <ele>1669.47</ele>
        <time>2015-02-28T09:21:34Z</time>
      </trkpt>
      <trkpt lat="45.41827" lon="5.93338">
        <ele>1672.35</ele>
        <time>2015-02-28T09:22:01Z</time>
      </trkpt>
      <trkpt lat="45.41822" lon="5.93319">
        <ele>1675.23</ele>
        <time>2015-02-28T09:22:23Z</time>
      </trkpt>
      <trkpt lat="45.41819" lon="5.93292">
        <ele>1677.16</ele>
        <time>2015-02-28T09:22:49Z</time>
      </trkpt>
      <trkpt lat="45.41819" lon="5.93283">
        <ele>1677.64</ele>
        <time>2015-02-28T09:22:57Z</time>
      </trkpt>
      <trkpt lat="45.41812" lon="5.93269">
        <ele>1681.48</ele>
        <time>2015-02-28T09:23:13Z</time>
      </trkpt>
      <trkpt lat="45.41807" lon="5.93267">
        <ele>1684.37</ele>
        <time>2015-02-28T09:23:31Z</time>
      </trkpt>
      <trkpt lat="45.41802" lon="5.93274">
        <ele>1687.73</ele>
        <time>2015-02-28T09:23:44Z</time>
      </trkpt>
      <trkpt lat="45.41793" lon="5.93284">
        <ele>1690.62</ele>
        <time>2015-02-28T09:24:00Z</time>
      </trkpt>
      <trkpt lat="45.41786" lon="5.93289">
        <ele>1693.98</ele>
        <time>2015-02-28T09:24:13Z</time>
      </trkpt>
      <trkpt lat="45.4178" lon="5.9329">
        <ele>1695.9</ele>
        <time>2015-02-28T09:24:26Z</time>
      </trkpt>
      <trkpt lat="45.41773" lon="5.9328">
        <ele>1698.31</ele>
        <time>2015-02-28T09:24:42Z</time>
      </trkpt>
      <trkpt lat="45.41762" lon="5.93274">
        <ele>1700.71</ele>
        <time>2015-02-28T09:24:53Z</time>
      </trkpt>
      <trkpt lat="45.41753" lon="5.93268">
        <ele>1704.07</ele>
        <time>2015-02-28T09:25:09Z</time>
      </trkpt>
      <trkpt lat="45.41748" lon="5.9326">
        <ele>1706.48</ele>
        <time>2015-02-28T09:25:26Z</time>
      </trkpt>
      <trkpt lat="45.41756" lon="5.93258">
        <ele>1709.36</ele>
        <time>2015-02-28T09:25:46Z</time>
      </trkpt>
      <trkpt lat="45.41763" lon="5.93248">
        <ele>1711.76</ele>
        <time>2015-02-28T09:26:02Z</time>
      </trkpt>
      <trkpt lat="45.41765" lon="5.9324">
        <ele>1713.21</ele>
        <time>2015-02-28T09:26:13Z</time>
      </trkpt>
      <trkpt lat="45.41772" lon="5.93227">
        <ele>1715.61</ele>
        <time>2015-02-28T09:26:29Z</time>
      </trkpt>
      <trkpt lat="45.41774" lon="5.93225">
        <ele>1716.09</ele>
        <time>2015-02-28T09:26:31Z</time>
      </trkpt>
      <trkpt lat="45.41782" lon="5.93218">
        <ele>1718.49</ele>
        <time>2015-02-28T09:26:42Z</time>
      </trkpt>
      <trkpt lat="45.41785" lon="5.93207">
        <ele>1721.86</ele>
        <time>2015-02-28T09:26:54Z</time>
      </trkpt>
      <trkpt lat="45.41789" lon="5.93193">
        <ele>1724.74</ele>
        <time>2015-02-28T09:27:09Z</time>
      </trkpt>
      <trkpt lat="45.41791" lon="5.93179">
        <ele>1728.11</ele>
        <time>2015-02-28T09:27:27Z</time>
      </trkpt>
      <trkpt lat="45.41797" lon="5.93182">
        <ele>1727.63</ele>
        <time>2015-02-28T09:28:09Z</time>
      </trkpt>
      <trkpt lat="45.41798" lon="5.93181">
        <ele>1729.55</ele>
        <time>2015-02-28T09:28:14Z</time>
      </trkpt>
      <trkpt lat="45.41799" lon="5.93185">
        <ele>1728.59</ele>
        <time>2015-02-28T09:28:19Z</time>
      </trkpt>
      <trkpt lat="45.41797" lon="5.93182">
        <ele>1729.07</ele>
        <time>2015-02-28T09:28:49Z</time>
      </trkpt>
      <trkpt lat="45.41797" lon="5.93185">
        <ele>1729.55</ele>
        <time>2015-02-28T09:29:58Z</time>
      </trkpt>
      <trkpt lat="45.41784" lon="5.9319">
        <ele>1732.43</ele>
        <time>2015-02-28T09:30:33Z</time>
      </trkpt>
      <trkpt lat="45.41777" lon="5.93202">
        <ele>1733.39</ele>
        <time>2015-02-28T09:30:47Z</time>
      </trkpt>
      <trkpt lat="45.41772" lon="5.93196">
        <ele>1736.76</ele>
        <time>2015-02-28T09:31:05Z</time>
      </trkpt>
      <trkpt lat="45.41769" lon="5.93186">
        <ele>1739.64</ele>
        <time>2015-02-28T09:31:20Z</time>
      </trkpt>
      <trkpt lat="45.41767" lon="5.93186">
        <ele>1742.53</ele>
        <time>2015-02-28T09:31:45Z</time>
      </trkpt>
      <trkpt lat="45.41768" lon="5.9318">
        <ele>1744.45</ele>
        <time>2015-02-28T09:32:01Z</time>
      </trkpt>
      <trkpt lat="45.41765" lon="5.93176">
        <ele>1747.81</ele>
        <time>2015-02-28T09:32:22Z</time>
      </trkpt>
      <trkpt lat="45.41765" lon="5.93163">
        <ele>1751.18</ele>
        <time>2015-02-28T09:32:39Z</time>
      </trkpt>
      <trkpt lat="45.41764" lon="5.93159">
        <ele>1754.06</ele>
        <time>2015-02-28T09:33:01Z</time>
      </trkpt>
      <trkpt lat="45.41759" lon="5.9315">
        <ele>1757.43</ele>
        <time>2015-02-28T09:33:23Z</time>
      </trkpt>
      <trkpt lat="45.41761" lon="5.93137">
        <ele>1760.31</ele>
        <time>2015-02-28T09:33:36Z</time>
      </trkpt>
      <trkpt lat="45.41756" lon="5.93126">
        <ele>1762.71</ele>
        <time>2015-02-28T09:33:48Z</time>
      </trkpt>
      <trkpt lat="45.41747" lon="5.9312">
        <ele>1765.12</ele>
        <time>2015-02-28T09:33:57Z</time>
      </trkpt>
      <trkpt lat="45.41741" lon="5.93106">
        <ele>1768</ele>
        <time>2015-02-28T09:34:11Z</time>
      </trkpt>
      <trkpt lat="45.41737" lon="5.93102">
        <ele>1769.44</ele>
        <time>2015-02-28T09:34:16Z</time>
      </trkpt>
      <trkpt lat="45.41736" lon="5.93098">
        <ele>1769.44</ele>
        <time>2015-02-28T09:34:19Z</time>
      </trkpt>
      <trkpt lat="45.41734" lon="5.93081">
        <ele>1770.41</ele>
        <time>2015-02-28T09:34:31Z</time>
      </trkpt>
      <trkpt lat="45.41734" lon="5.93072">
        <ele>1772.33</ele>
        <time>2015-02-28T09:34:42Z</time>
      </trkpt>
      <trkpt lat="45.41733" lon="5.93056">
        <ele>1774.25</ele>
        <time>2015-02-28T09:34:55Z</time>
      </trkpt>
      <trkpt lat="45.41735" lon="5.93027">
        <ele>1773.77</ele>
        <time>2015-02-28T09:35:09Z</time>
      </trkpt>
      <trkpt lat="45.41736" lon="5.93008">
        <ele>1773.29</ele>
        <time>2015-02-28T09:35:21Z</time>
      </trkpt>
      <trkpt lat="45.41733" lon="5.92992">
        <ele>1775.21</ele>
        <time>2015-02-28T09:35:35Z</time>
      </trkpt>
      <trkpt lat="45.4173" lon="5.92975">
        <ele>1776.65</ele>
        <time>2015-02-28T09:35:47Z</time>
      </trkpt>
      <trkpt lat="45.4173" lon="5.92971">
        <ele>1777.13</ele>
        <time>2015-02-28T09:35:50Z</time>
      </trkpt>
      <trkpt lat="45.41725" lon="5.92952">
        <ele>1778.58</ele>
        <time>2015-02-28T09:36:03Z</time>
      </trkpt>
      <trkpt lat="45.41722" lon="5.92937">
        <ele>1780.02</ele>
        <time>2015-02-28T09:36:15Z</time>
      </trkpt>
      <trkpt lat="45.41719" lon="5.92921">
        <ele>1781.46</ele>
        <time>2015-02-28T09:36:29Z</time>
      </trkpt>
      <trkpt lat="45.41718" lon="5.92918">
        <ele>1782.42</ele>
        <time>2015-02-28T09:36:47Z</time>
      </trkpt>
      <trkpt lat="45.41714" lon="5.92915">
        <ele>1782.42</ele>
        <time>2015-02-28T09:37:01Z</time>
      </trkpt>
      <trkpt lat="45.41703" lon="5.92908">
        <ele>1785.79</ele>
        <time>2015-02-28T09:37:58Z</time>
      </trkpt>
      <trkpt lat="45.41695" lon="5.92896">
        <ele>1788.67</ele>
        <time>2015-02-28T09:38:15Z</time>
      </trkpt>
      <trkpt lat="45.41693" lon="5.92895">
        <ele>1789.63</ele>
        <time>2015-02-28T09:38:18Z</time>
      </trkpt>
      <trkpt lat="45.41684" lon="5.92886">
        <ele>1791.07</ele>
        <time>2015-02-28T09:38:31Z</time>
      </trkpt>
      <trkpt lat="45.41676" lon="5.92878">
        <ele>1793.48</ele>
        <time>2015-02-28T09:38:46Z</time>
      </trkpt>
      <trkpt lat="45.41668" lon="5.92871">
        <ele>1795.4</ele>
        <time>2015-02-28T09:38:57Z</time>
      </trkpt>
      <trkpt lat="45.4166" lon="5.92865">
        <ele>1797.32</ele>
        <time>2015-02-28T09:39:10Z</time>
      </trkpt>
      <trkpt lat="45.41654" lon="5.9286">
        <ele>1799.24</ele>
        <time>2015-02-28T09:39:21Z</time>
      </trkpt>
      <trkpt lat="45.41652" lon="5.92855">
        <ele>1800.21</ele>
        <time>2015-02-28T09:39:27Z</time>
      </trkpt>
      <trkpt lat="45.41643" lon="5.9285">
        <ele>1802.13</ele>
        <time>2015-02-28T09:39:41Z</time>
      </trkpt>
      <trkpt lat="45.41635" lon="5.92844">
        <ele>1803.09</ele>
        <time>2015-02-28T09:39:53Z</time>
      </trkpt>
      <trkpt lat="45.41626" lon="5.92829">
        <ele>1802.61</ele>
        <time>2015-02-28T09:40:08Z</time>
      </trkpt>
      <trkpt lat="45.4162" lon="5.92819">
        <ele>1803.09</ele>
        <time>2015-02-28T09:40:24Z</time>
      </trkpt>
      <trkpt lat="45.41604" lon="5.92802">
        <ele>1802.13</ele>
        <time>2015-02-28T09:40:46Z</time>
      </trkpt>
      <trkpt lat="45.41587" lon="5.9279">
        <ele>1800.69</ele>
        <time>2015-02-28T09:41:10Z</time>
      </trkpt>
      <trkpt lat="45.41583" lon="5.9279">
        <ele>1800.69</ele>
        <time>2015-02-28T09:41:14Z</time>
      </trkpt>
      <trkpt lat="45.41572" lon="5.92785">
        <ele>1799.73</ele>
        <time>2015-02-28T09:41:26Z</time>
      </trkpt>
      <trkpt lat="45.41565" lon="5.92778">
        <ele>1798.76</ele>
        <time>2015-02-28T09:41:46Z</time>
      </trkpt>
      <trkpt lat="45.41553" lon="5.92776">
        <ele>1801.17</ele>
        <time>2015-02-28T09:42:09Z</time>
      </trkpt>
      <trkpt lat="45.41546" lon="5.92771">
        <ele>1799.73</ele>
        <time>2015-02-28T09:42:33Z</time>
      </trkpt>
      <trkpt lat="45.41543" lon="5.9277">
        <ele>1798.76</ele>
        <time>2015-02-28T09:42:45Z</time>
      </trkpt>
      <trkpt lat="45.41538" lon="5.92768">
        <ele>1798.76</ele>
        <time>2015-02-28T09:42:59Z</time>
      </trkpt>
      <trkpt lat="45.41526" lon="5.92766">
        <ele>1799.73</ele>
        <time>2015-02-28T09:43:31Z</time>
      </trkpt>
      <trkpt lat="45.41522" lon="5.9276">
        <ele>1801.17</ele>
        <time>2015-02-28T09:44:00Z</time>
      </trkpt>
      <trkpt lat="45.41521" lon="5.92763">
        <ele>1802.61</ele>
        <time>2015-02-28T09:44:21Z</time>
      </trkpt>
      <trkpt lat="45.41518" lon="5.92761">
        <ele>1804.05</ele>
        <time>2015-02-28T09:44:37Z</time>
      </trkpt>
      <trkpt lat="45.41512" lon="5.92769">
        <ele>1807.42</ele>
        <time>2015-02-28T09:45:01Z</time>
      </trkpt>
      <trkpt lat="45.4151" lon="5.9277">
        <ele>1809.34</ele>
        <time>2015-02-28T09:45:26Z</time>
      </trkpt>
      <trkpt lat="45.41512" lon="5.92769">
        <ele>1808.86</ele>
        <time>2015-02-28T09:46:13Z</time>
      </trkpt>
      <trkpt lat="45.41514" lon="5.92767">
        <ele>1807.9</ele>
        <time>2015-02-28T09:46:17Z</time>
      </trkpt>
      <trkpt lat="45.41517" lon="5.92768">
        <ele>1805.49</ele>
        <time>2015-02-28T09:46:30Z</time>
      </trkpt>
      <trkpt lat="45.41517" lon="5.92765">
        <ele>1803.57</ele>
        <time>2015-02-28T09:46:50Z</time>
      </trkpt>
      <trkpt lat="45.41522" lon="5.92758">
        <ele>1800.21</ele>
        <time>2015-02-28T09:47:05Z</time>
      </trkpt>
      <trkpt lat="45.4153" lon="5.92762">
        <ele>1798.76</ele>
        <time>2015-02-28T09:47:20Z</time>
      </trkpt>
      <trkpt lat="45.41539" lon="5.92766">
        <ele>1797.32</ele>
        <time>2015-02-28T09:47:49Z</time>
      </trkpt>
      <trkpt lat="45.41546" lon="5.92769">
        <ele>1796.36</ele>
        <time>2015-02-28T09:48:04Z</time>
      </trkpt>
      <trkpt lat="45.41554" lon="5.92771">
        <ele>1794.44</ele>
        <time>2015-02-28T09:48:16Z</time>
      </trkpt>
      <trkpt lat="45.4156" lon="5.92777">
        <ele>1795.88</ele>
        <time>2015-02-28T09:48:29Z</time>
      </trkpt>
      <trkpt lat="45.41568" lon="5.92784">
        <ele>1798.28</ele>
        <time>2015-02-28T09:48:43Z</time>
      </trkpt>
      <trkpt lat="45.41573" lon="5.92786">
        <ele>1798.76</ele>
        <time>2015-02-28T09:48:48Z</time>
      </trkpt>
      <trkpt lat="45.41582" lon="5.9279">
        <ele>1799.73</ele>
        <time>2015-02-28T09:49:01Z</time>
      </trkpt>
      <trkpt lat="45.41594" lon="5.92796">
        <ele>1798.76</ele>
        <time>2015-02-28T09:49:14Z</time>
      </trkpt>
      <trkpt lat="45.41602" lon="5.92805">
        <ele>1800.69</ele>
        <time>2015-02-28T09:49:27Z</time>
      </trkpt>
      <trkpt lat="45.41614" lon="5.92815">
        <ele>1801.17</ele>
        <time>2015-02-28T09:49:42Z</time>
      </trkpt>
      <trkpt lat="45.41626" lon="5.92829">
        <ele>1802.61</ele>
        <time>2015-02-28T09:49:56Z</time>
      </trkpt>
      <trkpt lat="45.41636" lon="5.92839">
        <ele>1802.61</ele>
        <time>2015-02-28T09:50:08Z</time>
      </trkpt>
      <trkpt lat="45.41636" lon="5.92847">
        <ele>1803.09</ele>
        <time>2015-02-28T09:50:15Z</time>
      </trkpt>
      <trkpt lat="45.4163" lon="5.92858">
        <ele>1805.01</ele>
        <time>2015-02-28T09:50:30Z</time>
      </trkpt>
      <trkpt lat="45.41627" lon="5.92859">
        <ele>1805.49</ele>
        <time>2015-02-28T09:50:36Z</time>
      </trkpt>
      <trkpt lat="45.41618" lon="5.9286">
        <ele>1804.53</ele>
        <time>2015-02-28T09:50:43Z</time>
      </trkpt>
      <trkpt lat="45.41611" lon="5.92859">
        <ele>1802.61</ele>
        <time>2015-02-28T09:50:59Z</time>
      </trkpt>
      <trkpt lat="45.41605" lon="5.92855">
        <ele>1802.13</ele>
        <time>2015-02-28T09:51:23Z</time>
      </trkpt>
      <trkpt lat="45.41588" lon="5.92853">
        <ele>1799.24</ele>
        <time>2015-02-28T09:51:34Z</time>
      </trkpt>
      <trkpt lat="45.41586" lon="5.92854">
        <ele>1798.28</ele>
        <time>2015-02-28T09:51:35Z</time>
      </trkpt>
      <trkpt lat="45.41573" lon="5.92862">
        <ele>1794.92</ele>
        <time>2015-02-28T09:51:40Z</time>
      </trkpt>
      <trkpt lat="45.41563" lon="5.92862">
        <ele>1791.07</ele>
        <time>2015-02-28T09:51:43Z</time>
      </trkpt>
      <trkpt lat="45.41558" lon="5.92862">
        <ele>1789.15</ele>
        <time>2015-02-28T09:51:46Z</time>
      </trkpt>
      <trkpt lat="45.41543" lon="5.92861">
        <ele>1785.31</ele>
        <time>2015-02-28T09:51:52Z</time>
      </trkpt>
      <trkpt lat="45.4153" lon="5.92859">
        <ele>1782.42</ele>
        <time>2015-02-28T09:51:55Z</time>
      </trkpt>
      <trkpt lat="45.41524" lon="5.92858">
        <ele>1778.58</ele>
        <time>2015-02-28T09:51:58Z</time>
      </trkpt>
      <trkpt lat="45.41513" lon="5.92854">
        <ele>1775.21</ele>
        <time>2015-02-28T09:52:07Z</time>
      </trkpt>
      <trkpt lat="45.41505" lon="5.92851">
        <ele>1771.85</ele>
        <time>2015-02-28T09:52:12Z</time>
      </trkpt>
      <trkpt lat="45.41504" lon="5.92852">
        <ele>1771.37</ele>
        <time>2015-02-28T09:52:13Z</time>
      </trkpt>
      <trkpt lat="45.41496" lon="5.92852">
        <ele>1769.92</ele>
        <time>2015-02-28T09:52:30Z</time>
      </trkpt>
      <trkpt lat="45.41494" lon="5.92872">
        <ele>1766.56</ele>
        <time>2015-02-28T09:52:35Z</time>
      </trkpt>
      <trkpt lat="45.41492" lon="5.92873">
        <ele>1763.68</ele>
        <time>2015-02-28T09:52:38Z</time>
      </trkpt>
      <trkpt lat="45.41483" lon="5.92871">
        <ele>1760.31</ele>
        <time>2015-02-28T09:52:43Z</time>
      </trkpt>
      <trkpt lat="45.41483" lon="5.92871">
        <ele>1759.83</ele>
        <time>2015-02-28T09:52:44Z</time>
      </trkpt>
      <trkpt lat="45.41473" lon="5.92867">
        <ele>1755.99</ele>
        <time>2015-02-28T09:52:52Z</time>
      </trkpt>
      <trkpt lat="45.41461" lon="5.92862">
        <ele>1753.58</ele>
        <time>2015-02-28T09:53:05Z</time>
      </trkpt>
      <trkpt lat="45.4145" lon="5.92853">
        <ele>1749.74</ele>
        <time>2015-02-28T09:53:12Z</time>
      </trkpt>
      <trkpt lat="45.41449" lon="5.9285">
        <ele>1747.81</ele>
        <time>2015-02-28T09:53:15Z</time>
      </trkpt>
      <trkpt lat="45.41443" lon="5.92839">
        <ele>1748.29</ele>
        <time>2015-02-28T09:53:30Z</time>
      </trkpt>
      <trkpt lat="45.41442" lon="5.92837">
        <ele>1748.29</ele>
        <time>2015-02-28T09:53:32Z</time>
      </trkpt>
      <trkpt lat="45.41441" lon="5.92821">
        <ele>1749.74</ele>
        <time>2015-02-28T09:53:47Z</time>
      </trkpt>
      <trkpt lat="45.4144" lon="5.92809">
        <ele>1751.66</ele>
        <time>2015-02-28T09:53:58Z</time>
      </trkpt>
      <trkpt lat="45.41436" lon="5.92802">
        <ele>1753.1</ele>
        <time>2015-02-28T09:54:08Z</time>
      </trkpt>
      <trkpt lat="45.41435" lon="5.928">
        <ele>1753.58</ele>
        <time>2015-02-28T09:54:10Z</time>
      </trkpt>
      <trkpt lat="45.4143" lon="5.92793">
        <ele>1753.58</ele>
        <time>2015-02-28T09:54:21Z</time>
      </trkpt>
      <trkpt lat="45.41431" lon="5.9279">
        <ele>1754.06</ele>
        <time>2015-02-28T09:54:33Z</time>
      </trkpt>
      <trkpt lat="45.41428" lon="5.92782">
        <ele>1754.06</ele>
        <time>2015-02-28T09:54:55Z</time>
      </trkpt>
      <trkpt lat="45.41424" lon="5.92778">
        <ele>1755.02</ele>
        <time>2015-02-28T09:55:09Z</time>
      </trkpt>
      <trkpt lat="45.41423" lon="5.92777">
        <ele>1755.5</ele>
        <time>2015-02-28T09:55:51Z</time>
      </trkpt>
      <trkpt lat="45.41431" lon="5.92775">
        <ele>1758.39</ele>
        <time>2015-02-28T09:58:20Z</time>
      </trkpt>
      <trkpt lat="45.41432" lon="5.92772">
        <ele>1760.31</ele>
        <time>2015-02-28T09:58:37Z</time>
      </trkpt>
      <trkpt lat="45.41438" lon="5.92779">
        <ele>1760.31</ele>
        <time>2015-02-28T09:58:48Z</time>
      </trkpt>
      <trkpt lat="45.41442" lon="5.92798">
        <ele>1756.95</ele>
        <time>2015-02-28T09:58:57Z</time>
      </trkpt>
      <trkpt lat="45.41444" lon="5.92806">
        <ele>1754.06</ele>
        <time>2015-02-28T09:59:09Z</time>
      </trkpt>
      <trkpt lat="45.41443" lon="5.92824">
        <ele>1750.7</ele>
        <time>2015-02-28T09:59:17Z</time>
      </trkpt>
      <trkpt lat="45.41442" lon="5.92827">
        <ele>1750.7</ele>
        <time>2015-02-28T09:59:19Z</time>
      </trkpt>
      <trkpt lat="45.41439" lon="5.92834">
        <ele>1749.74</ele>
        <time>2015-02-28T09:59:29Z</time>
      </trkpt>
      <trkpt lat="45.41427" lon="5.92818">
        <ele>1747.33</ele>
        <time>2015-02-28T09:59:34Z</time>
      </trkpt>
      <trkpt lat="45.41421" lon="5.92811">
        <ele>1743.49</ele>
        <time>2015-02-28T09:59:38Z</time>
      </trkpt>
      <trkpt lat="45.41412" lon="5.92797">
        <ele>1741.57</ele>
        <time>2015-02-28T09:59:52Z</time>
      </trkpt>
      <trkpt lat="45.41412" lon="5.92797">
        <ele>1741.57</ele>
        <time>2015-02-28T09:59:53Z</time>
      </trkpt>
      <trkpt lat="45.41399" lon="5.92791">
        <ele>1739.64</ele>
        <time>2015-02-28T10:00:05Z</time>
      </trkpt>
      <trkpt lat="45.41388" lon="5.9279">
        <ele>1739.16</ele>
        <time>2015-02-28T10:00:18Z</time>
      </trkpt>
      <trkpt lat="45.41381" lon="5.9279">
        <ele>1739.16</ele>
        <time>2015-02-28T10:00:29Z</time>
      </trkpt>
      <trkpt lat="45.41374" lon="5.92788">
        <ele>1740.12</ele>
        <time>2015-02-28T10:00:43Z</time>
      </trkpt>
      <trkpt lat="45.41373" lon="5.92787">
        <ele>1740.12</ele>
        <time>2015-02-28T10:00:44Z</time>
      </trkpt>
      <trkpt lat="45.41369" lon="5.9277">
        <ele>1740.12</ele>
        <time>2015-02-28T10:00:58Z</time>
      </trkpt>
      <trkpt lat="45.41366" lon="5.92759">
        <ele>1739.16</ele>
        <time>2015-02-28T10:01:07Z</time>
      </trkpt>
      <trkpt lat="45.41355" lon="5.92743">
        <ele>1739.64</ele>
        <time>2015-02-28T10:01:22Z</time>
      </trkpt>
      <trkpt lat="45.41346" lon="5.92724">
        <ele>1740.6</ele>
        <time>2015-02-28T10:01:39Z</time>
      </trkpt>
      <trkpt lat="45.41341" lon="5.92712">
        <ele>1741.08</ele>
        <time>2015-02-28T10:01:50Z</time>
      </trkpt>
      <trkpt lat="45.41336" lon="5.92705">
        <ele>1742.53</ele>
        <time>2015-02-28T10:02:00Z</time>
      </trkpt>
      <trkpt lat="45.41334" lon="5.92702">
        <ele>1742.53</ele>
        <time>2015-02-28T10:02:03Z</time>
      </trkpt>
      <trkpt lat="45.41329" lon="5.92686">
        <ele>1743.97</ele>
        <time>2015-02-28T10:02:18Z</time>
      </trkpt>
      <trkpt lat="45.41329" lon="5.92685">
        <ele>1744.45</ele>
        <time>2015-02-28T10:02:20Z</time>
      </trkpt>
      <trkpt lat="45.41325" lon="5.92676">
        <ele>1745.89</ele>
        <time>2015-02-28T10:02:30Z</time>
      </trkpt>
      <trkpt lat="45.41323" lon="5.92662">
        <ele>1747.81</ele>
        <time>2015-02-28T10:02:44Z</time>
      </trkpt>
      <trkpt lat="45.41323" lon="5.9266">
        <ele>1748.78</ele>
        <time>2015-02-28T10:02:48Z</time>
      </trkpt>
      <trkpt lat="45.41318" lon="5.92647">
        <ele>1750.22</ele>
        <time>2015-02-28T10:03:03Z</time>
      </trkpt>
      <trkpt lat="45.41311" lon="5.92635">
        <ele>1753.1</ele>
        <time>2015-02-28T10:03:19Z</time>
      </trkpt>
      <trkpt lat="45.4131" lon="5.92627">
        <ele>1755.02</ele>
        <time>2015-02-28T10:03:28Z</time>
      </trkpt>
      <trkpt lat="45.41315" lon="5.92621">
        <ele>1756.47</ele>
        <time>2015-02-28T10:03:39Z</time>
      </trkpt>
      <trkpt lat="45.41322" lon="5.92617">
        <ele>1758.39</ele>
        <time>2015-02-28T10:03:52Z</time>
      </trkpt>
      <trkpt lat="45.41319" lon="5.92612">
        <ele>1759.35</ele>
        <time>2015-02-28T10:04:02Z</time>
      </trkpt>
      <trkpt lat="45.41314" lon="5.92602">
        <ele>1761.75</ele>
        <time>2015-02-28T10:04:15Z</time>
      </trkpt>
      <trkpt lat="45.41312" lon="5.92599">
        <ele>1762.23</ele>
        <time>2015-02-28T10:04:18Z</time>
      </trkpt>
      <trkpt lat="45.41308" lon="5.9259">
        <ele>1764.16</ele>
        <time>2015-02-28T10:04:30Z</time>
      </trkpt>
      <trkpt lat="45.41304" lon="5.92583">
        <ele>1765.6</ele>
        <time>2015-02-28T10:04:41Z</time>
      </trkpt>
      <trkpt lat="45.41305" lon="5.92573">
        <ele>1768</ele>
        <time>2015-02-28T10:04:53Z</time>
      </trkpt>
      <trkpt lat="45.41306" lon="5.92563">
        <ele>1770.41</ele>
        <time>2015-02-28T10:05:07Z</time>
      </trkpt>
      <trkpt lat="45.41304" lon="5.92555">
        <ele>1771.85</ele>
        <time>2015-02-28T10:05:17Z</time>
      </trkpt>
      <trkpt lat="45.41303" lon="5.92554">
        <ele>1772.33</ele>
        <time>2015-02-28T10:06:05Z</time>
      </trkpt>
      <trkpt lat="45.41303" lon="5.92554">
        <ele>1772.33</ele>
        <time>2015-02-28T10:07:06Z</time>
      </trkpt>
      <trkpt lat="45.41301" lon="5.9253">
        <ele>1771.85</ele>
        <time>2015-02-28T10:07:21Z</time>
      </trkpt>
      <trkpt lat="45.413" lon="5.9253">
        <ele>1770.41</ele>
        <time>2015-02-28T10:07:31Z</time>
      </trkpt>
      <trkpt lat="45.41302" lon="5.92538">
        <ele>1772.33</ele>
        <time>2015-02-28T10:07:43Z</time>
      </trkpt>
      <trkpt lat="45.41302" lon="5.92539">
        <ele>1772.33</ele>
        <time>2015-02-28T10:08:10Z</time>
      </trkpt>
      <trkpt lat="45.41307" lon="5.92556">
        <ele>1772.81</ele>
        <time>2015-02-28T10:08:21Z</time>
      </trkpt>
      <trkpt lat="45.41307" lon="5.92558">
        <ele>1772.81</ele>
        <time>2015-02-28T10:08:22Z</time>
      </trkpt>
      <trkpt lat="45.41298" lon="5.92574">
        <ele>1769.92</ele>
        <time>2015-02-28T10:08:40Z</time>
      </trkpt>
      <trkpt lat="45.41291" lon="5.92577">
        <ele>1771.85</ele>
        <time>2015-02-28T10:08:56Z</time>
      </trkpt>
      <trkpt lat="45.4128" lon="5.92582">
        <ele>1773.77</ele>
        <time>2015-02-28T10:09:10Z</time>
      </trkpt>
      <trkpt lat="45.41271" lon="5.92588">
        <ele>1774.73</ele>
        <time>2015-02-28T10:09:25Z</time>
      </trkpt>
      <trkpt lat="45.41262" lon="5.92591">
        <ele>1776.17</ele>
        <time>2015-02-28T10:09:39Z</time>
      </trkpt>
      <trkpt lat="45.41257" lon="5.9259">
        <ele>1778.58</ele>
        <time>2015-02-28T10:09:52Z</time>
      </trkpt>
      <trkpt lat="45.4125" lon="5.92593">
        <ele>1780.02</ele>
        <time>2015-02-28T10:10:04Z</time>
      </trkpt>
      <trkpt lat="45.41242" lon="5.926">
        <ele>1781.46</ele>
        <time>2015-02-28T10:10:16Z</time>
      </trkpt>
      <trkpt lat="45.41232" lon="5.92609">
        <ele>1782.42</ele>
        <time>2015-02-28T10:10:31Z</time>
      </trkpt>
      <trkpt lat="45.41231" lon="5.9261">
        <ele>1782.9</ele>
        <time>2015-02-28T10:10:33Z</time>
      </trkpt>
      <trkpt lat="45.41221" lon="5.92619">
        <ele>1784.34</ele>
        <time>2015-02-28T10:10:49Z</time>
      </trkpt>
      <trkpt lat="45.41211" lon="5.92627">
        <ele>1785.79</ele>
        <time>2015-02-28T10:11:04Z</time>
      </trkpt>
      <trkpt lat="45.41201" lon="5.92634">
        <ele>1786.27</ele>
        <time>2015-02-28T10:11:17Z</time>
      </trkpt>
      <trkpt lat="45.41195" lon="5.92641">
        <ele>1787.71</ele>
        <time>2015-02-28T10:11:28Z</time>
      </trkpt>
      <trkpt lat="45.41191" lon="5.92646">
        <ele>1788.67</ele>
        <time>2015-02-28T10:11:38Z</time>
      </trkpt>
      <trkpt lat="45.41186" lon="5.9265">
        <ele>1790.59</ele>
        <time>2015-02-28T10:11:53Z</time>
      </trkpt>
      <trkpt lat="45.4118" lon="5.92657">
        <ele>1791.55</ele>
        <time>2015-02-28T10:12:03Z</time>
      </trkpt>
      <trkpt lat="45.41172" lon="5.92664">
        <ele>1793.96</ele>
        <time>2015-02-28T10:12:16Z</time>
      </trkpt>
      <trkpt lat="45.41164" lon="5.92674">
        <ele>1795.88</ele>
        <time>2015-02-28T10:12:32Z</time>
      </trkpt>
      <trkpt lat="45.41158" lon="5.92684">
        <ele>1797.32</ele>
        <time>2015-02-28T10:12:45Z</time>
      </trkpt>
      <trkpt lat="45.41151" lon="5.92692">
        <ele>1798.76</ele>
        <time>2015-02-28T10:12:58Z</time>
      </trkpt>
      <trkpt lat="45.41147" lon="5.927">
        <ele>1799.73</ele>
        <time>2015-02-28T10:13:10Z</time>
      </trkpt>
      <trkpt lat="45.41145" lon="5.92706">
        <ele>1800.69</ele>
        <time>2015-02-28T10:13:15Z</time>
      </trkpt>
      <trkpt lat="45.4114" lon="5.92719">
        <ele>1801.65</ele>
        <time>2015-02-28T10:13:30Z</time>
      </trkpt>
      <trkpt lat="45.41137" lon="5.92719">
        <ele>1802.61</ele>
        <time>2015-02-28T10:14:46Z</time>
      </trkpt>
      <trkpt lat="45.41127" lon="5.92717">
        <ele>1805.01</ele>
        <time>2015-02-28T10:14:57Z</time>
      </trkpt>
      <trkpt lat="45.41123" lon="5.92715">
        <ele>1805.97</ele>
        <time>2015-02-28T10:15:03Z</time>
      </trkpt>
      <trkpt lat="45.41114" lon="5.92696">
        <ele>1808.38</ele>
        <time>2015-02-28T10:15:21Z</time>
      </trkpt>
      <trkpt lat="45.41104" lon="5.92682">
        <ele>1810.3</ele>
        <time>2015-02-28T10:15:38Z</time>
      </trkpt>
      <trkpt lat="45.41101" lon="5.92669">
        <ele>1811.74</ele>
        <time>2015-02-28T10:15:50Z</time>
      </trkpt>
      <trkpt lat="45.41098" lon="5.92654">
        <ele>1814.15</ele>
        <time>2015-02-28T10:16:04Z</time>
      </trkpt>
      <trkpt lat="45.41095" lon="5.92647">
        <ele>1815.11</ele>
        <time>2015-02-28T10:16:12Z</time>
      </trkpt>
      <trkpt lat="45.41098" lon="5.92633">
        <ele>1816.07</ele>
        <time>2015-02-28T10:16:21Z</time>
      </trkpt>
      <trkpt lat="45.41102" lon="5.92619">
        <ele>1817.99</ele>
        <time>2015-02-28T10:16:34Z</time>
      </trkpt>
      <trkpt lat="45.41102" lon="5.92618">
        <ele>1818.47</ele>
        <time>2015-02-28T10:16:35Z</time>
      </trkpt>
      <trkpt lat="45.41104" lon="5.92602">
        <ele>1818.95</ele>
        <time>2015-02-28T10:16:50Z</time>
      </trkpt>
      <trkpt lat="45.41105" lon="5.92591">
        <ele>1820.87</ele>
        <time>2015-02-28T10:17:03Z</time>
      </trkpt>
      <trkpt lat="45.41106" lon="5.92591">
        <ele>1821.35</ele>
        <time>2015-02-28T10:17:05Z</time>
      </trkpt>
      <trkpt lat="45.41114" lon="5.92577">
        <ele>1824.24</ele>
        <time>2015-02-28T10:17:21Z</time>
      </trkpt>
      <trkpt lat="45.41109" lon="5.92559">
        <ele>1824.72</ele>
        <time>2015-02-28T10:17:37Z</time>
      </trkpt>
      <trkpt lat="45.41108" lon="5.92547">
        <ele>1823.76</ele>
        <time>2015-02-28T10:17:45Z</time>
      </trkpt>
      <trkpt lat="45.41111" lon="5.92525">
        <ele>1823.76</ele>
        <time>2015-02-28T10:17:59Z</time>
      </trkpt>
      <trkpt lat="45.41112" lon="5.92507">
        <ele>1823.76</ele>
        <time>2015-02-28T10:18:12Z</time>
      </trkpt>
      <trkpt lat="45.41112" lon="5.92485">
        <ele>1823.28</ele>
        <time>2015-02-28T10:18:25Z</time>
      </trkpt>
      <trkpt lat="45.41108" lon="5.92465">
        <ele>1823.28</ele>
        <time>2015-02-28T10:18:44Z</time>
      </trkpt>
      <trkpt lat="45.41109" lon="5.92461">
        <ele>1823.28</ele>
        <time>2015-02-28T10:18:50Z</time>
      </trkpt>
      <trkpt lat="45.41094" lon="5.92445">
        <ele>1822.8</ele>
        <time>2015-02-28T10:19:08Z</time>
      </trkpt>
      <trkpt lat="45.41085" lon="5.92433">
        <ele>1823.28</ele>
        <time>2015-02-28T10:19:21Z</time>
      </trkpt>
      <trkpt lat="45.41084" lon="5.9243">
        <ele>1823.28</ele>
        <time>2015-02-28T10:19:24Z</time>
      </trkpt>
      <trkpt lat="45.41082" lon="5.92417">
        <ele>1825.2</ele>
        <time>2015-02-28T10:19:37Z</time>
      </trkpt>
      <trkpt lat="45.41077" lon="5.9241">
        <ele>1826.64</ele>
        <time>2015-02-28T10:19:46Z</time>
      </trkpt>
      <trkpt lat="45.41059" lon="5.92397">
        <ele>1826.16</ele>
        <time>2015-02-28T10:20:04Z</time>
      </trkpt>
      <trkpt lat="45.41049" lon="5.92388">
        <ele>1826.16</ele>
        <time>2015-02-28T10:20:19Z</time>
      </trkpt>
      <trkpt lat="45.41039" lon="5.92381">
        <ele>1828.08</ele>
        <time>2015-02-28T10:20:33Z</time>
      </trkpt>
      <trkpt lat="45.41025" lon="5.9236">
        <ele>1828.56</ele>
        <time>2015-02-28T10:20:54Z</time>
      </trkpt>
      <trkpt lat="45.41018" lon="5.92342">
        <ele>1829.05</ele>
        <time>2015-02-28T10:21:09Z</time>
      </trkpt>
      <trkpt lat="45.41011" lon="5.92328">
        <ele>1828.08</ele>
        <time>2015-02-28T10:21:22Z</time>
      </trkpt>
      <trkpt lat="45.41001" lon="5.92314">
        <ele>1826.64</ele>
        <time>2015-02-28T10:21:43Z</time>
      </trkpt>
      <trkpt lat="45.40997" lon="5.92313">
        <ele>1826.16</ele>
        <time>2015-02-28T10:22:15Z</time>
      </trkpt>
      <trkpt lat="45.40986" lon="5.92306">
        <ele>1827.12</ele>
        <time>2015-02-28T10:22:30Z</time>
      </trkpt>
      <trkpt lat="45.40978" lon="5.92295">
        <ele>1828.08</ele>
        <time>2015-02-28T10:22:44Z</time>
      </trkpt>
      <trkpt lat="45.40969" lon="5.92283">
        <ele>1828.56</ele>
        <time>2015-02-28T10:23:01Z</time>
      </trkpt>
      <trkpt lat="45.40963" lon="5.92265">
        <ele>1828.08</ele>
        <time>2015-02-28T10:23:14Z</time>
      </trkpt>
      <trkpt lat="45.40959" lon="5.92244">
        <ele>1826.64</ele>
        <time>2015-02-28T10:23:29Z</time>
      </trkpt>
      <trkpt lat="45.40957" lon="5.92241">
        <ele>1826.16</ele>
        <time>2015-02-28T10:23:36Z</time>
      </trkpt>
      <trkpt lat="45.40948" lon="5.92249">
        <ele>1823.76</ele>
        <time>2015-02-28T10:23:47Z</time>
      </trkpt>
      <trkpt lat="45.40939" lon="5.92247">
        <ele>1821.84</ele>
        <time>2015-02-28T10:23:53Z</time>
      </trkpt>
      <trkpt lat="45.40931" lon="5.92236">
        <ele>1817.99</ele>
        <time>2015-02-28T10:24:03Z</time>
      </trkpt>
      <trkpt lat="45.40927" lon="5.92234">
        <ele>1816.55</ele>
        <time>2015-02-28T10:24:13Z</time>
      </trkpt>
      <trkpt lat="45.40916" lon="5.92238">
        <ele>1815.11</ele>
        <time>2015-02-28T10:24:28Z</time>
      </trkpt>
      <trkpt lat="45.40913" lon="5.9224">
        <ele>1814.63</ele>
        <time>2015-02-28T10:24:43Z</time>
      </trkpt>
      <trkpt lat="45.40903" lon="5.92243">
        <ele>1814.15</ele>
        <time>2015-02-28T10:26:07Z</time>
      </trkpt>
      <trkpt lat="45.40887" lon="5.92226">
        <ele>1811.74</ele>
        <time>2015-02-28T10:26:20Z</time>
      </trkpt>
      <trkpt lat="45.40879" lon="5.92218">
        <ele>1808.38</ele>
        <time>2015-02-28T10:26:26Z</time>
      </trkpt>
      <trkpt lat="45.40869" lon="5.92213">
        <ele>1808.38</ele>
        <time>2015-02-28T10:26:39Z</time>
      </trkpt>
      <trkpt lat="45.40856" lon="5.92207">
        <ele>1810.3</ele>
        <time>2015-02-28T10:26:58Z</time>
      </trkpt>
      <trkpt lat="45.40845" lon="5.92208">
        <ele>1811.26</ele>
        <time>2015-02-28T10:27:12Z</time>
      </trkpt>
      <trkpt lat="45.40835" lon="5.92205">
        <ele>1812.7</ele>
        <time>2015-02-28T10:27:28Z</time>
      </trkpt>
      <trkpt lat="45.40829" lon="5.92205">
        <ele>1813.66</ele>
        <time>2015-02-28T10:27:46Z</time>
      </trkpt>
      <trkpt lat="45.40822" lon="5.922">
        <ele>1814.15</ele>
        <time>2015-02-28T10:27:56Z</time>
      </trkpt>
      <trkpt lat="45.40817" lon="5.92196">
        <ele>1815.11</ele>
        <time>2015-02-28T10:28:04Z</time>
      </trkpt>
      <trkpt lat="45.40808" lon="5.92187">
        <ele>1817.03</ele>
        <time>2015-02-28T10:28:18Z</time>
      </trkpt>
      <trkpt lat="45.40801" lon="5.92182">
        <ele>1818.95</ele>
        <time>2015-02-28T10:28:30Z</time>
      </trkpt>
      <trkpt lat="45.4079" lon="5.92174">
        <ele>1820.87</ele>
        <time>2015-02-28T10:28:46Z</time>
      </trkpt>
      <trkpt lat="45.40781" lon="5.92169">
        <ele>1822.8</ele>
        <time>2015-02-28T10:29:03Z</time>
      </trkpt>
      <trkpt lat="45.40772" lon="5.92168">
        <ele>1824.72</ele>
        <time>2015-02-28T10:29:16Z</time>
      </trkpt>
      <trkpt lat="45.40765" lon="5.92168">
        <ele>1826.16</ele>
        <time>2015-02-28T10:29:28Z</time>
      </trkpt>
      <trkpt lat="45.40756" lon="5.92164">
        <ele>1826.64</ele>
        <time>2015-02-28T10:29:40Z</time>
      </trkpt>
      <trkpt lat="45.40747" lon="5.9216">
        <ele>1826.64</ele>
        <time>2015-02-28T10:29:59Z</time>
      </trkpt>
      <trkpt lat="45.40749" lon="5.92151">
        <ele>1825.68</ele>
        <time>2015-02-28T10:31:52Z</time>
      </trkpt>
      <trkpt lat="45.4075" lon="5.9215">
        <ele>1825.68</ele>
        <time>2015-02-28T10:31:53Z</time>
      </trkpt>
      <trkpt lat="45.40741" lon="5.92137">
        <ele>1822.32</ele>
        <time>2015-02-28T10:32:03Z</time>
      </trkpt>
      <trkpt lat="45.4073" lon="5.92128">
        <ele>1821.35</ele>
        <time>2015-02-28T10:32:15Z</time>
      </trkpt>
      <trkpt lat="45.40727" lon="5.92124">
        <ele>1821.35</ele>
        <time>2015-02-28T10:32:32Z</time>
      </trkpt>
      <trkpt lat="45.40727" lon="5.92125">
        <ele>1820.39</ele>
        <time>2015-02-28T10:33:17Z</time>
      </trkpt>
      <trkpt lat="45.40726" lon="5.92125">
        <ele>1820.87</ele>
        <time>2015-02-28T10:33:37Z</time>
      </trkpt>
      <trkpt lat="45.40728" lon="5.92125">
        <ele>1821.35</ele>
        <time>2015-02-28T10:33:54Z</time>
      </trkpt>
      <trkpt lat="45.40728" lon="5.92124">
        <ele>1820.39</ele>
        <time>2015-02-28T10:34:25Z</time>
      </trkpt>
      <trkpt lat="45.40727" lon="5.92123">
        <ele>1819.43</ele>
        <time>2015-02-28T10:34:55Z</time>
      </trkpt>
      <trkpt lat="45.40726" lon="5.92122">
        <ele>1819.43</ele>
        <time>2015-02-28T10:35:23Z</time>
      </trkpt>
      <trkpt lat="45.40728" lon="5.92122">
        <ele>1819.91</ele>
        <time>2015-02-28T10:36:28Z</time>
      </trkpt>
      <trkpt lat="45.40728" lon="5.92123">
        <ele>1820.39</ele>
        <time>2015-02-28T10:36:45Z</time>
      </trkpt>
      <trkpt lat="45.40729" lon="5.92122">
        <ele>1819.43</ele>
        <time>2015-02-28T10:37:03Z</time>
      </trkpt>
      <trkpt lat="45.4073" lon="5.92121">
        <ele>1819.43</ele>
        <time>2015-02-28T10:37:43Z</time>
      </trkpt>
      <trkpt lat="45.40729" lon="5.92121">
        <ele>1818.95</ele>
        <time>2015-02-28T10:38:16Z</time>
      </trkpt>
      <trkpt lat="45.4073" lon="5.9212">
        <ele>1819.91</ele>
        <time>2015-02-28T10:38:45Z</time>
      </trkpt>
      <trkpt lat="45.40742" lon="5.9211">
        <ele>1816.55</ele>
        <time>2015-02-28T10:38:50Z</time>
      </trkpt>
      <trkpt lat="45.40746" lon="5.92097">
        <ele>1813.18</ele>
        <time>2015-02-28T10:38:53Z</time>
      </trkpt>
      <trkpt lat="45.40747" lon="5.92094">
        <ele>1813.18</ele>
        <time>2015-02-28T10:38:54Z</time>
      </trkpt>
      <trkpt lat="45.40751" lon="5.92089">
        <ele>1810.3</ele>
        <time>2015-02-28T10:38:56Z</time>
      </trkpt>
      <trkpt lat="45.40756" lon="5.92086">
        <ele>1806.94</ele>
        <time>2015-02-28T10:38:58Z</time>
      </trkpt>
      <trkpt lat="45.4076" lon="5.92077">
        <ele>1803.09</ele>
        <time>2015-02-28T10:39:00Z</time>
      </trkpt>
      <trkpt lat="45.40765" lon="5.9207">
        <ele>1799.73</ele>
        <time>2015-02-28T10:39:02Z</time>
      </trkpt>
      <trkpt lat="45.40768" lon="5.92068">
        <ele>1799.73</ele>
        <time>2015-02-28T10:39:03Z</time>
      </trkpt>
      <trkpt lat="45.40773" lon="5.92069">
        <ele>1794.44</ele>
        <time>2015-02-28T10:39:06Z</time>
      </trkpt>
      <trkpt lat="45.40773" lon="5.92069">
        <ele>1792.52</ele>
        <time>2015-02-28T10:39:09Z</time>
      </trkpt>
      <trkpt lat="45.40778" lon="5.92068">
        <ele>1791.55</ele>
        <time>2015-02-28T10:39:52Z</time>
      </trkpt>
      <trkpt lat="45.40789" lon="5.92063">
        <ele>1788.19</ele>
        <time>2015-02-28T10:39:57Z</time>
      </trkpt>
      <trkpt lat="45.40799" lon="5.92052">
        <ele>1783.86</ele>
        <time>2015-02-28T10:40:02Z</time>
      </trkpt>
      <trkpt lat="45.40801" lon="5.92044">
        <ele>1780.02</ele>
        <time>2015-02-28T10:40:04Z</time>
      </trkpt>
      <trkpt lat="45.40798" lon="5.92033">
        <ele>1774.73</ele>
        <time>2015-02-28T10:40:06Z</time>
      </trkpt>
      <trkpt lat="45.40799" lon="5.92028">
        <ele>1774.73</ele>
        <time>2015-02-28T10:40:07Z</time>
      </trkpt>
      <trkpt lat="45.40801" lon="5.92017">
        <ele>1768.96</ele>
        <time>2015-02-28T10:40:09Z</time>
      </trkpt>
      <trkpt lat="45.40805" lon="5.92006">
        <ele>1761.27</ele>
        <time>2015-02-28T10:40:12Z</time>
      </trkpt>
      <trkpt lat="45.40808" lon="5.91997">
        <ele>1756.47</ele>
        <time>2015-02-28T10:40:14Z</time>
      </trkpt>
      <trkpt lat="45.40809" lon="5.91992">
        <ele>1756.47</ele>
        <time>2015-02-28T10:40:15Z</time>
      </trkpt>
      <trkpt lat="45.40811" lon="5.91983">
        <ele>1750.7</ele>
        <time>2015-02-28T10:40:17Z</time>
      </trkpt>
      <trkpt lat="45.40814" lon="5.91977">
        <ele>1745.41</ele>
        <time>2015-02-28T10:40:19Z</time>
      </trkpt>
      <trkpt lat="45.40815" lon="5.91978">
        <ele>1741.08</ele>
        <time>2015-02-28T10:40:21Z</time>
      </trkpt>
      <trkpt lat="45.40814" lon="5.91979">
        <ele>1739.16</ele>
        <time>2015-02-28T10:40:24Z</time>
      </trkpt>
      <trkpt lat="45.40813" lon="5.91977">
        <ele>1739.16</ele>
        <time>2015-02-28T10:41:29Z</time>
      </trkpt>
      <trkpt lat="45.40812" lon="5.91976">
        <ele>1739.16</ele>
        <time>2015-02-28T10:41:33Z</time>
      </trkpt>
      <trkpt lat="45.40813" lon="5.91955">
        <ele>1736.76</ele>
        <time>2015-02-28T10:41:38Z</time>
      </trkpt>
      <trkpt lat="45.40817" lon="5.91949">
        <ele>1731.95</ele>
        <time>2015-02-28T10:41:40Z</time>
      </trkpt>
      <trkpt lat="45.40821" lon="5.91949">
        <ele>1725.7</ele>
        <time>2015-02-28T10:41:43Z</time>
      </trkpt>
      <trkpt lat="45.40824" lon="5.91948">
        <ele>1722.82</ele>
        <time>2015-02-28T10:42:02Z</time>
      </trkpt>
      <trkpt lat="45.40825" lon="5.91947">
        <ele>1723.3</ele>
        <time>2015-02-28T10:42:21Z</time>
      </trkpt>
      <trkpt lat="45.40824" lon="5.91944">
        <ele>1721.86</ele>
        <time>2015-02-28T10:42:39Z</time>
      </trkpt>
      <trkpt lat="45.40822" lon="5.91942">
        <ele>1720.9</ele>
        <time>2015-02-28T10:42:45Z</time>
      </trkpt>
      <trkpt lat="45.40828" lon="5.91938">
        <ele>1717.53</ele>
        <time>2015-02-28T10:42:50Z</time>
      </trkpt>
      <trkpt lat="45.40829" lon="5.91939">
        <ele>1717.53</ele>
        <time>2015-02-28T10:42:51Z</time>
      </trkpt>
      <trkpt lat="45.40844" lon="5.91948">
        <ele>1713.69</ele>
        <time>2015-02-28T10:42:56Z</time>
      </trkpt>
      <trkpt lat="45.40856" lon="5.91956">
        <ele>1710.32</ele>
        <time>2015-02-28T10:43:05Z</time>
      </trkpt>
      <trkpt lat="45.40863" lon="5.91964">
        <ele>1709.84</ele>
        <time>2015-02-28T10:43:07Z</time>
      </trkpt>
      <trkpt lat="45.4088" lon="5.91971">
        <ele>1707.92</ele>
        <time>2015-02-28T10:43:10Z</time>
      </trkpt>
      <trkpt lat="45.40888" lon="5.91975">
        <ele>1705.04</ele>
        <time>2015-02-28T10:43:12Z</time>
      </trkpt>
      <trkpt lat="45.40889" lon="5.91979">
        <ele>1701.19</ele>
        <time>2015-02-28T10:43:15Z</time>
      </trkpt>
      <trkpt lat="45.40891" lon="5.91979">
        <ele>1700.23</ele>
        <time>2015-02-28T10:43:26Z</time>
      </trkpt>
      <trkpt lat="45.40903" lon="5.91974">
        <ele>1697.83</ele>
        <time>2015-02-28T10:43:29Z</time>
      </trkpt>
      <trkpt lat="45.40907" lon="5.91971">
        <ele>1695.9</ele>
        <time>2015-02-28T10:43:30Z</time>
      </trkpt>
      <trkpt lat="45.40909" lon="5.91956">
        <ele>1690.14</ele>
        <time>2015-02-28T10:43:32Z</time>
      </trkpt>
      <trkpt lat="45.4091" lon="5.91949">
        <ele>1686.77</ele>
        <time>2015-02-28T10:43:33Z</time>
      </trkpt>
      <trkpt lat="45.40911" lon="5.91942">
        <ele>1682.44</ele>
        <time>2015-02-28T10:43:34Z</time>
      </trkpt>
      <trkpt lat="45.40913" lon="5.91919">
        <ele>1670.91</ele>
        <time>2015-02-28T10:43:37Z</time>
      </trkpt>
      <trkpt lat="45.40915" lon="5.91913">
        <ele>1667.06</ele>
        <time>2015-02-28T10:43:38Z</time>
      </trkpt>
      <trkpt lat="45.40916" lon="5.91906">
        <ele>1667.06</ele>
        <time>2015-02-28T10:43:39Z</time>
      </trkpt>
      <trkpt lat="45.40916" lon="5.91899">
        <ele>1663.7</ele>
        <time>2015-02-28T10:43:40Z</time>
      </trkpt>
      <trkpt lat="45.40918" lon="5.91892">
        <ele>1659.85</ele>
        <time>2015-02-28T10:43:41Z</time>
      </trkpt>
      <trkpt lat="45.4092" lon="5.91885">
        <ele>1656.01</ele>
        <time>2015-02-28T10:43:42Z</time>
      </trkpt>
      <trkpt lat="45.40921" lon="5.91878">
        <ele>1652.64</ele>
        <time>2015-02-28T10:43:43Z</time>
      </trkpt>
      <trkpt lat="45.40924" lon="5.91872">
        <ele>1648.8</ele>
        <time>2015-02-28T10:43:44Z</time>
      </trkpt>
      <trkpt lat="45.40937" lon="5.91856">
        <ele>1638.7</ele>
        <time>2015-02-28T10:43:48Z</time>
      </trkpt>
      <trkpt lat="45.40939" lon="5.91852">
        <ele>1638.7</ele>
        <time>2015-02-28T10:43:49Z</time>
      </trkpt>
      <trkpt lat="45.40941" lon="5.9185">
        <ele>1633.9</ele>
        <time>2015-02-28T10:43:53Z</time>
      </trkpt>
      <trkpt lat="45.4094" lon="5.9185">
        <ele>1632.94</ele>
        <time>2015-02-28T10:43:55Z</time>
      </trkpt>
      <trkpt lat="45.40942" lon="5.91847">
        <ele>1632.94</ele>
        <time>2015-02-28T10:43:59Z</time>
      </trkpt>
      <trkpt lat="45.40933" lon="5.91835">
        <ele>1628.13</ele>
        <time>2015-02-28T10:44:04Z</time>
      </trkpt>
      <trkpt lat="45.4093" lon="5.91826">
        <ele>1624.77</ele>
        <time>2015-02-28T10:44:06Z</time>
      </trkpt>
      <trkpt lat="45.40926" lon="5.91817">
        <ele>1621.4</ele>
        <time>2015-02-28T10:44:08Z</time>
      </trkpt>
      <trkpt lat="45.40925" lon="5.91813">
        <ele>1621.4</ele>
        <time>2015-02-28T10:44:09Z</time>
      </trkpt>
      <trkpt lat="45.40926" lon="5.91801">
        <ele>1618.04</ele>
        <time>2015-02-28T10:44:11Z</time>
      </trkpt>
      <trkpt lat="45.40926" lon="5.91793">
        <ele>1616.11</ele>
        <time>2015-02-28T10:44:12Z</time>
      </trkpt>
      <trkpt lat="45.40928" lon="5.91777">
        <ele>1609.86</ele>
        <time>2015-02-28T10:44:14Z</time>
      </trkpt>
      <trkpt lat="45.40934" lon="5.91761">
        <ele>1601.21</ele>
        <time>2015-02-28T10:44:16Z</time>
      </trkpt>
      <trkpt lat="45.40938" lon="5.91753">
        <ele>1597.85</ele>
        <time>2015-02-28T10:44:17Z</time>
      </trkpt>
      <trkpt lat="45.40945" lon="5.91738">
        <ele>1595.45</ele>
        <time>2015-02-28T10:44:19Z</time>
      </trkpt>
      <trkpt lat="45.40954" lon="5.91732">
        <ele>1591.6</ele>
        <time>2015-02-28T10:44:21Z</time>
      </trkpt>
      <trkpt lat="45.40956" lon="5.91728">
        <ele>1591.6</ele>
        <time>2015-02-28T10:44:22Z</time>
      </trkpt>
      <trkpt lat="45.4096" lon="5.91721">
        <ele>1590.16</ele>
        <time>2015-02-28T10:44:25Z</time>
      </trkpt>
      <trkpt lat="45.40961" lon="5.91726">
        <ele>1589.68</ele>
        <time>2015-02-28T10:44:54Z</time>
      </trkpt>
      <trkpt lat="45.4096" lon="5.91734">
        <ele>1589.68</ele>
        <time>2015-02-28T10:45:05Z</time>
      </trkpt>
      <trkpt lat="45.40957" lon="5.91738">
        <ele>1590.64</ele>
        <time>2015-02-28T10:45:26Z</time>
      </trkpt>
      <trkpt lat="45.40957" lon="5.91738">
        <ele>1590.64</ele>
        <time>2015-02-28T10:45:45Z</time>
      </trkpt>
      <trkpt lat="45.40956" lon="5.9174">
        <ele>1590.16</ele>
        <time>2015-02-28T10:46:19Z</time>
      </trkpt>
      <trkpt lat="45.40956" lon="5.9174">
        <ele>1590.64</ele>
        <time>2015-02-28T10:47:27Z</time>
      </trkpt>
      <trkpt lat="45.40956" lon="5.9174">
        <ele>1591.12</ele>
        <time>2015-02-28T10:47:50Z</time>
      </trkpt>
      <trkpt lat="45.40955" lon="5.91742">
        <ele>1590.64</ele>
        <time>2015-02-28T10:48:08Z</time>
      </trkpt>
      <trkpt lat="45.40955" lon="5.91744">
        <ele>1591.12</ele>
        <time>2015-02-28T10:49:13Z</time>
      </trkpt>
      <trkpt lat="45.40954" lon="5.91744">
        <ele>1591.12</ele>
        <time>2015-02-28T10:49:41Z</time>
      </trkpt>
      <trkpt lat="45.40952" lon="5.91743">
        <ele>1592.08</ele>
        <time>2015-02-28T10:50:36Z</time>
      </trkpt>
      <trkpt lat="45.40945" lon="5.91757">
        <ele>1592.56</ele>
        <time>2015-02-28T10:50:53Z</time>
      </trkpt>
      <trkpt lat="45.40937" lon="5.91767">
        <ele>1594.96</ele>
        <time>2015-02-28T10:51:08Z</time>
      </trkpt>
      <trkpt lat="45.40932" lon="5.91773">
        <ele>1596.41</ele>
        <time>2015-02-28T10:51:18Z</time>
      </trkpt>
      <trkpt lat="45.40926" lon="5.91777">
        <ele>1598.81</ele>
        <time>2015-02-28T10:51:31Z</time>
      </trkpt>
      <trkpt lat="45.40923" lon="5.91778">
        <ele>1600.25</ele>
        <time>2015-02-28T10:51:41Z</time>
      </trkpt>
      <trkpt lat="45.40918" lon="5.91778">
        <ele>1601.21</ele>
        <time>2015-02-28T10:51:50Z</time>
      </trkpt>
      <trkpt lat="45.40912" lon="5.9178">
        <ele>1603.14</ele>
        <time>2015-02-28T10:52:03Z</time>
      </trkpt>
      <trkpt lat="45.40906" lon="5.91785">
        <ele>1604.58</ele>
        <time>2015-02-28T10:52:15Z</time>
      </trkpt>
      <trkpt lat="45.40901" lon="5.91786">
        <ele>1606.02</ele>
        <time>2015-02-28T10:52:29Z</time>
      </trkpt>
      <trkpt lat="45.4089" lon="5.91786">
        <ele>1607.94</ele>
        <time>2015-02-28T10:52:47Z</time>
      </trkpt>
      <trkpt lat="45.40889" lon="5.91788">
        <ele>1609.38</ele>
        <time>2015-02-28T10:53:09Z</time>
      </trkpt>
      <trkpt lat="45.40889" lon="5.91796">
        <ele>1611.31</ele>
        <time>2015-02-28T10:53:21Z</time>
      </trkpt>
      <trkpt lat="45.40893" lon="5.91802">
        <ele>1612.27</ele>
        <time>2015-02-28T10:53:30Z</time>
      </trkpt>
      <trkpt lat="45.40897" lon="5.91809">
        <ele>1614.19</ele>
        <time>2015-02-28T10:53:45Z</time>
      </trkpt>
      <trkpt lat="45.40899" lon="5.91813">
        <ele>1616.11</ele>
        <time>2015-02-28T10:54:03Z</time>
      </trkpt>
      <trkpt lat="45.40897" lon="5.91816">
        <ele>1617.07</ele>
        <time>2015-02-28T10:54:10Z</time>
      </trkpt>
      <trkpt lat="45.40886" lon="5.91815">
        <ele>1617.07</ele>
        <time>2015-02-28T10:54:24Z</time>
      </trkpt>
      <trkpt lat="45.40881" lon="5.91816">
        <ele>1620.44</ele>
        <time>2015-02-28T10:54:58Z</time>
      </trkpt>
      <trkpt lat="45.40871" lon="5.91809">
        <ele>1620.92</ele>
        <time>2015-02-28T10:55:20Z</time>
      </trkpt>
      <trkpt lat="45.40859" lon="5.91809">
        <ele>1623.32</ele>
        <time>2015-02-28T10:55:39Z</time>
      </trkpt>
      <trkpt lat="45.40853" lon="5.91807">
        <ele>1623.32</ele>
        <time>2015-02-28T10:55:46Z</time>
      </trkpt>
      <trkpt lat="45.40839" lon="5.91795">
        <ele>1624.28</ele>
        <time>2015-02-28T10:56:05Z</time>
      </trkpt>
      <trkpt lat="45.40839" lon="5.91795">
        <ele>1624.28</ele>
        <time>2015-02-28T10:56:06Z</time>
      </trkpt>
      <trkpt lat="45.40833" lon="5.91791">
        <ele>1625.25</ele>
        <time>2015-02-28T10:56:19Z</time>
      </trkpt>
      <trkpt lat="45.4083" lon="5.91791">
        <ele>1626.21</ele>
        <time>2015-02-28T10:56:32Z</time>
      </trkpt>
      <trkpt lat="45.4083" lon="5.91789">
        <ele>1626.69</ele>
        <time>2015-02-28T10:57:35Z</time>
      </trkpt>
      <trkpt lat="45.40829" lon="5.9179">
        <ele>1626.69</ele>
        <time>2015-02-28T10:58:28Z</time>
      </trkpt>
      <trkpt lat="45.40829" lon="5.9179">
        <ele>1626.69</ele>
        <time>2015-02-28T10:59:07Z</time>
      </trkpt>
      <trkpt lat="45.40829" lon="5.91791">
        <ele>1627.65</ele>
        <time>2015-02-28T10:59:24Z</time>
      </trkpt>
      <trkpt lat="45.40829" lon="5.91791">
        <ele>1627.17</ele>
        <time>2015-02-28T10:59:31Z</time>
      </trkpt>
      <trkpt lat="45.40826" lon="5.91789">
        <ele>1627.17</ele>
        <time>2015-02-28T10:59:44Z</time>
      </trkpt>
      <trkpt lat="45.40817" lon="5.91776">
        <ele>1625.73</ele>
        <time>2015-02-28T10:59:49Z</time>
      </trkpt>
      <trkpt lat="45.4081" lon="5.9175">
        <ele>1620.44</ele>
        <time>2015-02-28T10:59:53Z</time>
      </trkpt>
      <trkpt lat="45.40804" lon="5.91738">
        <ele>1615.63</ele>
        <time>2015-02-28T10:59:55Z</time>
      </trkpt>
      <trkpt lat="45.40799" lon="5.91731">
        <ele>1610.35</ele>
        <time>2015-02-28T10:59:57Z</time>
      </trkpt>
      <trkpt lat="45.40799" lon="5.91715">
        <ele>1605.06</ele>
        <time>2015-02-28T11:00:00Z</time>
      </trkpt>
      <trkpt lat="45.408" lon="5.91704">
        <ele>1599.29</ele>
        <time>2015-02-28T11:00:02Z</time>
      </trkpt>
      <trkpt lat="45.40803" lon="5.91688">
        <ele>1594</ele>
        <time>2015-02-28T11:00:04Z</time>
      </trkpt>
      <trkpt lat="45.40805" lon="5.9168">
        <ele>1590.64</ele>
        <time>2015-02-28T11:00:05Z</time>
      </trkpt>
      <trkpt lat="45.40809" lon="5.91665">
        <ele>1587.27</ele>
        <time>2015-02-28T11:00:07Z</time>
      </trkpt>
      <trkpt lat="45.40811" lon="5.91657">
        <ele>1584.39</ele>
        <time>2015-02-28T11:00:08Z</time>
      </trkpt>
      <trkpt lat="45.40813" lon="5.91648">
        <ele>1580.54</ele>
        <time>2015-02-28T11:00:09Z</time>
      </trkpt>
      <trkpt lat="45.40807" lon="5.91635">
        <ele>1573.82</ele>
        <time>2015-02-28T11:00:11Z</time>
      </trkpt>
      <trkpt lat="45.40803" lon="5.91629">
        <ele>1570.93</ele>
        <time>2015-02-28T11:00:12Z</time>
      </trkpt>
      <trkpt lat="45.40805" lon="5.91624">
        <ele>1568.05</ele>
        <time>2015-02-28T11:00:13Z</time>
      </trkpt>
      <trkpt lat="45.40812" lon="5.91615">
        <ele>1563.72</ele>
        <time>2015-02-28T11:00:16Z</time>
      </trkpt>
      <trkpt lat="45.40816" lon="5.9161">
        <ele>1559.88</ele>
        <time>2015-02-28T11:00:18Z</time>
      </trkpt>
      <trkpt lat="45.40822" lon="5.91596">
        <ele>1555.07</ele>
        <time>2015-02-28T11:00:22Z</time>
      </trkpt>
      <trkpt lat="45.40825" lon="5.91584">
        <ele>1552.19</ele>
        <time>2015-02-28T11:00:25Z</time>
      </trkpt>
      <trkpt lat="45.40826" lon="5.91579">
        <ele>1552.19</ele>
        <time>2015-02-28T11:00:26Z</time>
      </trkpt>
      <trkpt lat="45.40827" lon="5.91565">
        <ele>1547.86</ele>
        <time>2015-02-28T11:00:29Z</time>
      </trkpt>
      <trkpt lat="45.40824" lon="5.91552">
        <ele>1544.5</ele>
        <time>2015-02-28T11:00:32Z</time>
      </trkpt>
      <trkpt lat="45.4082" lon="5.91548">
        <ele>1542.09</ele>
        <time>2015-02-28T11:00:40Z</time>
      </trkpt>
      <trkpt lat="45.40815" lon="5.91535">
        <ele>1540.65</ele>
        <time>2015-02-28T11:01:01Z</time>
      </trkpt>
      <trkpt lat="45.4082" lon="5.91525">
        <ele>1540.17</ele>
        <time>2015-02-28T11:01:12Z</time>
      </trkpt>
      <trkpt lat="45.40817" lon="5.91509">
        <ele>1538.73</ele>
        <time>2015-02-28T11:01:15Z</time>
      </trkpt>
      <trkpt lat="45.40809" lon="5.915">
        <ele>1535.84</ele>
        <time>2015-02-28T11:01:20Z</time>
      </trkpt>
      <trkpt lat="45.40806" lon="5.91497">
        <ele>1535.36</ele>
        <time>2015-02-28T11:01:21Z</time>
      </trkpt>
      <trkpt lat="45.40804" lon="5.91486">
        <ele>1532.48</ele>
        <time>2015-02-28T11:01:31Z</time>
      </trkpt>
      <trkpt lat="45.40804" lon="5.91486">
        <ele>1532.48</ele>
        <time>2015-02-28T11:01:37Z</time>
      </trkpt>
      <trkpt lat="45.4081" lon="5.91481">
        <ele>1531.52</ele>
        <time>2015-02-28T11:01:52Z</time>
      </trkpt>
      <trkpt lat="45.40814" lon="5.91481">
        <ele>1532</ele>
        <time>2015-02-28T11:02:04Z</time>
      </trkpt>
      <trkpt lat="45.40818" lon="5.91487">
        <ele>1532.48</ele>
        <time>2015-02-28T11:02:33Z</time>
      </trkpt>
      <trkpt lat="45.40824" lon="5.9149">
        <ele>1532.96</ele>
        <time>2015-02-28T11:02:50Z</time>
      </trkpt>
      <trkpt lat="45.40828" lon="5.91489">
        <ele>1530.08</ele>
        <time>2015-02-28T11:02:54Z</time>
      </trkpt>
      <trkpt lat="45.40838" lon="5.9148">
        <ele>1527.67</ele>
        <time>2015-02-28T11:02:58Z</time>
      </trkpt>
      <trkpt lat="45.40841" lon="5.91478">
        <ele>1526.23</ele>
        <time>2015-02-28T11:02:59Z</time>
      </trkpt>
      <trkpt lat="45.4085" lon="5.91466">
        <ele>1521.9</ele>
        <time>2015-02-28T11:03:04Z</time>
      </trkpt>
      <trkpt lat="45.40854" lon="5.9146">
        <ele>1520.94</ele>
        <time>2015-02-28T11:03:15Z</time>
      </trkpt>
      <trkpt lat="45.40855" lon="5.91463">
        <ele>1521.42</ele>
        <time>2015-02-28T11:03:57Z</time>
      </trkpt>
      <trkpt lat="45.40855" lon="5.91461">
        <ele>1522.39</ele>
        <time>2015-02-28T11:05:48Z</time>
      </trkpt>
      <trkpt lat="45.40853" lon="5.9146">
        <ele>1522.39</ele>
        <time>2015-02-28T11:06:19Z</time>
      </trkpt>
      <trkpt lat="45.40853" lon="5.91462">
        <ele>1521.9</ele>
        <time>2015-02-28T11:06:40Z</time>
      </trkpt>
      <trkpt lat="45.40853" lon="5.91459">
        <ele>1522.87</ele>
        <time>2015-02-28T11:07:07Z</time>
      </trkpt>
      <trkpt lat="45.40852" lon="5.91459">
        <ele>1523.35</ele>
        <time>2015-02-28T11:08:06Z</time>
      </trkpt>
      <trkpt lat="45.40853" lon="5.9146">
        <ele>1523.83</ele>
        <time>2015-02-28T11:08:59Z</time>
      </trkpt>
      <trkpt lat="45.40852" lon="5.91459">
        <ele>1523.83</ele>
        <time>2015-02-28T11:09:22Z</time>
      </trkpt>
      <trkpt lat="45.40853" lon="5.9146">
        <ele>1523.83</ele>
        <time>2015-02-28T11:10:07Z</time>
      </trkpt>
      <trkpt lat="45.40857" lon="5.91465">
        <ele>1524.31</ele>
        <time>2015-02-28T11:10:23Z</time>
      </trkpt>
      <trkpt lat="45.40859" lon="5.91471">
        <ele>1524.79</ele>
        <time>2015-02-28T11:10:52Z</time>
      </trkpt>
      <trkpt lat="45.4086" lon="5.91481">
        <ele>1525.27</ele>
        <time>2015-02-28T11:11:00Z</time>
      </trkpt>
      <trkpt lat="45.40864" lon="5.91486">
        <ele>1525.75</ele>
        <time>2015-02-28T11:11:06Z</time>
      </trkpt>
      <trkpt lat="45.40876" lon="5.91495">
        <ele>1527.19</ele>
        <time>2015-02-28T11:11:21Z</time>
      </trkpt>
      <trkpt lat="45.40885" lon="5.91503">
        <ele>1528.63</ele>
        <time>2015-02-28T11:11:34Z</time>
      </trkpt>
      <trkpt lat="45.40897" lon="5.91504">
        <ele>1529.59</ele>
        <time>2015-02-28T11:11:46Z</time>
      </trkpt>
      <trkpt lat="45.40905" lon="5.91507">
        <ele>1531.52</ele>
        <time>2015-02-28T11:11:58Z</time>
      </trkpt>
      <trkpt lat="45.40907" lon="5.9151">
        <ele>1532.48</ele>
        <time>2015-02-28T11:12:03Z</time>
      </trkpt>
      <trkpt lat="45.40909" lon="5.91515">
        <ele>1533.44</ele>
        <time>2015-02-28T11:12:07Z</time>
      </trkpt>
      <trkpt lat="45.40914" lon="5.91525">
        <ele>1534.88</ele>
        <time>2015-02-28T11:12:19Z</time>
      </trkpt>
      <trkpt lat="45.40913" lon="5.91527">
        <ele>1535.36</ele>
        <time>2015-02-28T11:12:22Z</time>
      </trkpt>
      <trkpt lat="45.40914" lon="5.9154">
        <ele>1537.29</ele>
        <time>2015-02-28T11:12:34Z</time>
      </trkpt>
      <trkpt lat="45.40919" lon="5.91551">
        <ele>1539.69</ele>
        <time>2015-02-28T11:12:49Z</time>
      </trkpt>
      <trkpt lat="45.40923" lon="5.91557">
        <ele>1541.13</ele>
        <time>2015-02-28T11:12:58Z</time>
      </trkpt>
      <trkpt lat="45.40933" lon="5.91564">
        <ele>1543.05</ele>
        <time>2015-02-28T11:13:12Z</time>
      </trkpt>
      <trkpt lat="45.40932" lon="5.91574">
        <ele>1544.98</ele>
        <time>2015-02-28T11:13:26Z</time>
      </trkpt>
      <trkpt lat="45.40925" lon="5.91579">
        <ele>1547.86</ele>
        <time>2015-02-28T11:13:41Z</time>
      </trkpt>
      <trkpt lat="45.40921" lon="5.91581">
        <ele>1549.78</ele>
        <time>2015-02-28T11:13:57Z</time>
      </trkpt>
      <trkpt lat="45.40922" lon="5.91586">
        <ele>1551.22</ele>
        <time>2015-02-28T11:14:08Z</time>
      </trkpt>
      <trkpt lat="45.4092" lon="5.91588">
        <ele>1552.67</ele>
        <time>2015-02-28T11:14:18Z</time>
      </trkpt>
      <trkpt lat="45.40918" lon="5.9159">
        <ele>1553.63</ele>
        <time>2015-02-28T11:14:30Z</time>
      </trkpt>
      <trkpt lat="45.40918" lon="5.9159">
        <ele>1553.15</ele>
        <time>2015-02-28T11:14:56Z</time>
      </trkpt>
      <trkpt lat="45.40919" lon="5.91596">
        <ele>1555.55</ele>
        <time>2015-02-28T11:15:19Z</time>
      </trkpt>
      <trkpt lat="45.40922" lon="5.91601">
        <ele>1557.95</ele>
        <time>2015-02-28T11:15:32Z</time>
      </trkpt>
      <trkpt lat="45.40918" lon="5.91602">
        <ele>1559.88</ele>
        <time>2015-02-28T11:15:44Z</time>
      </trkpt>
      <trkpt lat="45.4092" lon="5.91604">
        <ele>1561.32</ele>
        <time>2015-02-28T11:15:58Z</time>
      </trkpt>
      <trkpt lat="45.40924" lon="5.9161">
        <ele>1564.2</ele>
        <time>2015-02-28T11:16:12Z</time>
      </trkpt>
      <trkpt lat="45.40923" lon="5.9162">
        <ele>1566.12</ele>
        <time>2015-02-28T11:16:28Z</time>
      </trkpt>
      <trkpt lat="45.40925" lon="5.91627">
        <ele>1567.09</ele>
        <time>2015-02-28T11:17:02Z</time>
      </trkpt>
      <trkpt lat="45.40935" lon="5.91647">
        <ele>1568.05</ele>
        <time>2015-02-28T11:17:22Z</time>
      </trkpt>
      <trkpt lat="45.40942" lon="5.9166">
        <ele>1569.01</ele>
        <time>2015-02-28T11:17:38Z</time>
      </trkpt>
      <trkpt lat="45.40944" lon="5.91677">
        <ele>1571.89</ele>
        <time>2015-02-28T11:17:56Z</time>
      </trkpt>
      <trkpt lat="45.40951" lon="5.91691">
        <ele>1574.3</ele>
        <time>2015-02-28T11:18:09Z</time>
      </trkpt>
      <trkpt lat="45.40959" lon="5.91706">
        <ele>1575.26</ele>
        <time>2015-02-28T11:18:24Z</time>
      </trkpt>
      <trkpt lat="45.40965" lon="5.91706">
        <ele>1576.7</ele>
        <time>2015-02-28T11:18:35Z</time>
      </trkpt>
      <trkpt lat="45.40966" lon="5.91706">
        <ele>1576.7</ele>
        <time>2015-02-28T11:18:36Z</time>
      </trkpt>
      <trkpt lat="45.40967" lon="5.91706">
        <ele>1577.18</ele>
        <time>2015-02-28T11:18:38Z</time>
      </trkpt>
      <trkpt lat="45.40982" lon="5.91711">
        <ele>1576.7</ele>
        <time>2015-02-28T11:18:53Z</time>
      </trkpt>
      <trkpt lat="45.40992" lon="5.91719">
        <ele>1578.62</ele>
        <time>2015-02-28T11:19:07Z</time>
      </trkpt>
      <trkpt lat="45.40997" lon="5.91723">
        <ele>1578.62</ele>
        <time>2015-02-28T11:19:24Z</time>
      </trkpt>
      <trkpt lat="45.41002" lon="5.91726">
        <ele>1579.1</ele>
        <time>2015-02-28T11:19:40Z</time>
      </trkpt>
      <trkpt lat="45.41014" lon="5.91735">
        <ele>1580.54</ele>
        <time>2015-02-28T11:19:55Z</time>
      </trkpt>
      <trkpt lat="45.41018" lon="5.91739">
        <ele>1581.03</ele>
        <time>2015-02-28T11:20:07Z</time>
      </trkpt>
      <trkpt lat="45.41025" lon="5.91745">
        <ele>1581.99</ele>
        <time>2015-02-28T11:20:26Z</time>
      </trkpt>
      <trkpt lat="45.41036" lon="5.91757">
        <ele>1582.95</ele>
        <time>2015-02-28T11:20:40Z</time>
      </trkpt>
      <trkpt lat="45.4104" lon="5.91762">
        <ele>1583.43</ele>
        <time>2015-02-28T11:20:45Z</time>
      </trkpt>
      <trkpt lat="45.41051" lon="5.91775">
        <ele>1584.39</ele>
        <time>2015-02-28T11:20:59Z</time>
      </trkpt>
      <trkpt lat="45.41061" lon="5.91787">
        <ele>1585.35</ele>
        <time>2015-02-28T11:21:12Z</time>
      </trkpt>
      <trkpt lat="45.41069" lon="5.91799">
        <ele>1585.83</ele>
        <time>2015-02-28T11:21:24Z</time>
      </trkpt>
      <trkpt lat="45.41073" lon="5.91804">
        <ele>1586.79</ele>
        <time>2015-02-28T11:21:30Z</time>
      </trkpt>
      <trkpt lat="45.41082" lon="5.91816">
        <ele>1587.75</ele>
        <time>2015-02-28T11:21:43Z</time>
      </trkpt>
      <trkpt lat="45.41095" lon="5.91828">
        <ele>1589.2</ele>
        <time>2015-02-28T11:21:58Z</time>
      </trkpt>
      <trkpt lat="45.411" lon="5.91835">
        <ele>1589.68</ele>
        <time>2015-02-28T11:22:05Z</time>
      </trkpt>
      <trkpt lat="45.41115" lon="5.91841">
        <ele>1591.12</ele>
        <time>2015-02-28T11:22:21Z</time>
      </trkpt>
      <trkpt lat="45.41127" lon="5.91851">
        <ele>1592.56</ele>
        <time>2015-02-28T11:22:36Z</time>
      </trkpt>
      <trkpt lat="45.41134" lon="5.9186">
        <ele>1593.52</ele>
        <time>2015-02-28T11:22:47Z</time>
      </trkpt>
      <trkpt lat="45.41141" lon="5.91868">
        <ele>1594.48</ele>
        <time>2015-02-28T11:22:57Z</time>
      </trkpt>
      <trkpt lat="45.41145" lon="5.91871">
        <ele>1595.45</ele>
        <time>2015-02-28T11:23:02Z</time>
      </trkpt>
      <trkpt lat="45.41155" lon="5.91885">
        <ele>1596.89</ele>
        <time>2015-02-28T11:23:17Z</time>
      </trkpt>
      <trkpt lat="45.41171" lon="5.91904">
        <ele>1599.29</ele>
        <time>2015-02-28T11:23:39Z</time>
      </trkpt>
      <trkpt lat="45.41179" lon="5.91917">
        <ele>1600.73</ele>
        <time>2015-02-28T11:23:54Z</time>
      </trkpt>
      <trkpt lat="45.41193" lon="5.91931">
        <ele>1603.62</ele>
        <time>2015-02-28T11:24:14Z</time>
      </trkpt>
      <trkpt lat="45.41199" lon="5.91941">
        <ele>1606.5</ele>
        <time>2015-02-28T11:24:28Z</time>
      </trkpt>
      <trkpt lat="45.41202" lon="5.91951">
        <ele>1608.9</ele>
        <time>2015-02-28T11:24:41Z</time>
      </trkpt>
      <trkpt lat="45.41206" lon="5.91959">
        <ele>1610.83</ele>
        <time>2015-02-28T11:24:52Z</time>
      </trkpt>
      <trkpt lat="45.41213" lon="5.91973">
        <ele>1613.71</ele>
        <time>2015-02-28T11:25:10Z</time>
      </trkpt>
      <trkpt lat="45.41217" lon="5.91967">
        <ele>1615.15</ele>
        <time>2015-02-28T11:25:23Z</time>
      </trkpt>
      <trkpt lat="45.4122" lon="5.9196">
        <ele>1617.07</ele>
        <time>2015-02-28T11:25:32Z</time>
      </trkpt>
      <trkpt lat="45.4122" lon="5.91951">
        <ele>1619</ele>
        <time>2015-02-28T11:25:43Z</time>
      </trkpt>
      <trkpt lat="45.41222" lon="5.91952">
        <ele>1619.96</ele>
        <time>2015-02-28T11:25:58Z</time>
      </trkpt>
      <trkpt lat="45.41225" lon="5.91954">
        <ele>1620.92</ele>
        <time>2015-02-28T11:26:10Z</time>
      </trkpt>
      <trkpt lat="45.41227" lon="5.91957">
        <ele>1621.4</ele>
        <time>2015-02-28T11:26:15Z</time>
      </trkpt>
      <trkpt lat="45.41232" lon="5.91965">
        <ele>1623.8</ele>
        <time>2015-02-28T11:26:28Z</time>
      </trkpt>
      <trkpt lat="45.41235" lon="5.91972">
        <ele>1625.25</ele>
        <time>2015-02-28T11:26:39Z</time>
      </trkpt>
      <trkpt lat="45.41239" lon="5.91979">
        <ele>1627.65</ele>
        <time>2015-02-28T11:26:49Z</time>
      </trkpt>
      <trkpt lat="45.41241" lon="5.9199">
        <ele>1629.57</ele>
        <time>2015-02-28T11:27:03Z</time>
      </trkpt>
      <trkpt lat="45.41242" lon="5.91988">
        <ele>1630.53</ele>
        <time>2015-02-28T11:27:14Z</time>
      </trkpt>
      <trkpt lat="45.41247" lon="5.91991">
        <ele>1632.46</ele>
        <time>2015-02-28T11:27:23Z</time>
      </trkpt>
      <trkpt lat="45.4125" lon="5.92">
        <ele>1633.9</ele>
        <time>2015-02-28T11:27:34Z</time>
      </trkpt>
      <trkpt lat="45.41253" lon="5.92009">
        <ele>1635.82</ele>
        <time>2015-02-28T11:27:46Z</time>
      </trkpt>
      <trkpt lat="45.41256" lon="5.92019">
        <ele>1638.7</ele>
        <time>2015-02-28T11:27:59Z</time>
      </trkpt>
      <trkpt lat="45.41258" lon="5.92027">
        <ele>1640.15</ele>
        <time>2015-02-28T11:28:10Z</time>
      </trkpt>
      <trkpt lat="45.41259" lon="5.92039">
        <ele>1642.07</ele>
        <time>2015-02-28T11:28:23Z</time>
      </trkpt>
      <trkpt lat="45.41263" lon="5.92047">
        <ele>1644.47</ele>
        <time>2015-02-28T11:28:34Z</time>
      </trkpt>
      <trkpt lat="45.41268" lon="5.92055">
        <ele>1646.88</ele>
        <time>2015-02-28T11:28:48Z</time>
      </trkpt>
      <trkpt lat="45.41268" lon="5.92062">
        <ele>1648.32</ele>
        <time>2015-02-28T11:28:59Z</time>
      </trkpt>
      <trkpt lat="45.4127" lon="5.92069">
        <ele>1650.72</ele>
        <time>2015-02-28T11:29:10Z</time>
      </trkpt>
      <trkpt lat="45.41273" lon="5.92078">
        <ele>1652.64</ele>
        <time>2015-02-28T11:29:22Z</time>
      </trkpt>
      <trkpt lat="45.41274" lon="5.92082">
        <ele>1653.12</ele>
        <time>2015-02-28T11:29:27Z</time>
      </trkpt>
      <trkpt lat="45.41278" lon="5.92095">
        <ele>1655.53</ele>
        <time>2015-02-28T11:29:42Z</time>
      </trkpt>
      <trkpt lat="45.4128" lon="5.92095">
        <ele>1656.49</ele>
        <time>2015-02-28T11:29:48Z</time>
      </trkpt>
      <trkpt lat="45.41292" lon="5.92093">
        <ele>1659.85</ele>
        <time>2015-02-28T11:30:06Z</time>
      </trkpt>
      <trkpt lat="45.41293" lon="5.92104">
        <ele>1662.26</ele>
        <time>2015-02-28T11:30:22Z</time>
      </trkpt>
      <trkpt lat="45.41297" lon="5.92106">
        <ele>1664.18</ele>
        <time>2015-02-28T11:30:33Z</time>
      </trkpt>
      <trkpt lat="45.41304" lon="5.92102">
        <ele>1665.62</ele>
        <time>2015-02-28T11:30:43Z</time>
      </trkpt>
      <trkpt lat="45.41315" lon="5.92097">
        <ele>1667.54</ele>
        <time>2015-02-28T11:30:59Z</time>
      </trkpt>
      <trkpt lat="45.41314" lon="5.92107">
        <ele>1668.99</ele>
        <time>2015-02-28T11:31:11Z</time>
      </trkpt>
      <trkpt lat="45.41317" lon="5.92112">
        <ele>1671.39</ele>
        <time>2015-02-28T11:31:25Z</time>
      </trkpt>
      <trkpt lat="45.41319" lon="5.92111">
        <ele>1671.87</ele>
        <time>2015-02-28T11:31:28Z</time>
      </trkpt>
      <trkpt lat="45.41324" lon="5.92107">
        <ele>1673.31</ele>
        <time>2015-02-28T11:31:38Z</time>
      </trkpt>
      <trkpt lat="45.41328" lon="5.921">
        <ele>1675.23</ele>
        <time>2015-02-28T11:31:51Z</time>
      </trkpt>
      <trkpt lat="45.41329" lon="5.92108">
        <ele>1676.68</ele>
        <time>2015-02-28T11:32:03Z</time>
      </trkpt>
      <trkpt lat="45.41329" lon="5.92114">
        <ele>1677.64</ele>
        <time>2015-02-28T11:32:10Z</time>
      </trkpt>
      <trkpt lat="45.41326" lon="5.92127">
        <ele>1679.08</ele>
        <time>2015-02-28T11:32:22Z</time>
      </trkpt>
      <trkpt lat="45.41322" lon="5.92142">
        <ele>1681.48</ele>
        <time>2015-02-28T11:32:37Z</time>
      </trkpt>
      <trkpt lat="45.41321" lon="5.92152">
        <ele>1683.41</ele>
        <time>2015-02-28T11:32:48Z</time>
      </trkpt>
      <trkpt lat="45.4132" lon="5.92164">
        <ele>1685.33</ele>
        <time>2015-02-28T11:32:59Z</time>
      </trkpt>
      <trkpt lat="45.41319" lon="5.92173">
        <ele>1687.25</ele>
        <time>2015-02-28T11:33:11Z</time>
      </trkpt>
      <trkpt lat="45.4132" lon="5.92184">
        <ele>1689.17</ele>
        <time>2015-02-28T11:33:23Z</time>
      </trkpt>
      <trkpt lat="45.41321" lon="5.92196">
        <ele>1691.58</ele>
        <time>2015-02-28T11:33:35Z</time>
      </trkpt>
      <trkpt lat="45.41324" lon="5.92201">
        <ele>1693.02</ele>
        <time>2015-02-28T11:33:44Z</time>
      </trkpt>
      <trkpt lat="45.4133" lon="5.922">
        <ele>1693.98</ele>
        <time>2015-02-28T11:33:52Z</time>
      </trkpt>
      <trkpt lat="45.41337" lon="5.92198">
        <ele>1695.9</ele>
        <time>2015-02-28T11:34:03Z</time>
      </trkpt>
      <trkpt lat="45.41344" lon="5.92196">
        <ele>1697.34</ele>
        <time>2015-02-28T11:34:12Z</time>
      </trkpt>
      <trkpt lat="45.41347" lon="5.92197">
        <ele>1698.31</ele>
        <time>2015-02-28T11:34:19Z</time>
      </trkpt>
      <trkpt lat="45.41352" lon="5.92198">
        <ele>1699.75</ele>
        <time>2015-02-28T11:34:26Z</time>
      </trkpt>
      <trkpt lat="45.41361" lon="5.92197">
        <ele>1701.19</ele>
        <time>2015-02-28T11:34:36Z</time>
      </trkpt>
      <trkpt lat="45.41366" lon="5.92193">
        <ele>1702.63</ele>
        <time>2015-02-28T11:34:46Z</time>
      </trkpt>
      <trkpt lat="45.41371" lon="5.9219">
        <ele>1704.07</ele>
        <time>2015-02-28T11:34:54Z</time>
      </trkpt>
      <trkpt lat="45.41374" lon="5.92188">
        <ele>1704.55</ele>
        <time>2015-02-28T11:34:59Z</time>
      </trkpt>
      <trkpt lat="45.4138" lon="5.92186">
        <ele>1706.48</ele>
        <time>2015-02-28T11:35:09Z</time>
      </trkpt>
      <trkpt lat="45.41385" lon="5.92186">
        <ele>1708.4</ele>
        <time>2015-02-28T11:35:18Z</time>
      </trkpt>
      <trkpt lat="45.41392" lon="5.92189">
        <ele>1710.32</ele>
        <time>2015-02-28T11:35:30Z</time>
      </trkpt>
      <trkpt lat="45.41399" lon="5.92196">
        <ele>1713.69</ele>
        <time>2015-02-28T11:35:46Z</time>
      </trkpt>
      <trkpt lat="45.41401" lon="5.92206">
        <ele>1716.57</ele>
        <time>2015-02-28T11:36:00Z</time>
      </trkpt>
      <trkpt lat="45.41403" lon="5.92212">
        <ele>1718.01</ele>
        <time>2015-02-28T11:36:08Z</time>
      </trkpt>
      <trkpt lat="45.41409" lon="5.92215">
        <ele>1719.94</ele>
        <time>2015-02-28T11:36:18Z</time>
      </trkpt>
      <trkpt lat="45.41416" lon="5.92219">
        <ele>1721.86</ele>
        <time>2015-02-28T11:36:29Z</time>
      </trkpt>
      <trkpt lat="45.41418" lon="5.9222">
        <ele>1722.34</ele>
        <time>2015-02-28T11:36:33Z</time>
      </trkpt>
      <trkpt lat="45.41424" lon="5.92222">
        <ele>1723.78</ele>
        <time>2015-02-28T11:36:44Z</time>
      </trkpt>
      <trkpt lat="45.41429" lon="5.92224">
        <ele>1725.7</ele>
        <time>2015-02-28T11:36:54Z</time>
      </trkpt>
      <trkpt lat="45.41436" lon="5.92225">
        <ele>1727.63</ele>
        <time>2015-02-28T11:37:06Z</time>
      </trkpt>
      <trkpt lat="45.4144" lon="5.92227">
        <ele>1729.07</ele>
        <time>2015-02-28T11:37:13Z</time>
      </trkpt>
      <trkpt lat="45.41443" lon="5.92233">
        <ele>1730.99</ele>
        <time>2015-02-28T11:37:24Z</time>
      </trkpt>
      <trkpt lat="45.41447" lon="5.92236">
        <ele>1732.43</ele>
        <time>2015-02-28T11:37:53Z</time>
      </trkpt>
      <trkpt lat="45.41455" lon="5.9224">
        <ele>1735.32</ele>
        <time>2015-02-28T11:38:07Z</time>
      </trkpt>
      <trkpt lat="45.41457" lon="5.9224">
        <ele>1735.32</ele>
        <time>2015-02-28T11:38:10Z</time>
      </trkpt>
      <trkpt lat="45.4146" lon="5.92238">
        <ele>1736.76</ele>
        <time>2015-02-28T11:38:15Z</time>
      </trkpt>
      <trkpt lat="45.41463" lon="5.92232">
        <ele>1738.2</ele>
        <time>2015-02-28T11:38:24Z</time>
      </trkpt>
      <trkpt lat="45.41468" lon="5.92239">
        <ele>1740.12</ele>
        <time>2015-02-28T11:38:36Z</time>
      </trkpt>
      <trkpt lat="45.41473" lon="5.92244">
        <ele>1742.53</ele>
        <time>2015-02-28T11:38:49Z</time>
      </trkpt>
      <trkpt lat="45.41477" lon="5.92242">
        <ele>1743.01</ele>
        <time>2015-02-28T11:38:56Z</time>
      </trkpt>
      <trkpt lat="45.41479" lon="5.92237">
        <ele>1745.41</ele>
        <time>2015-02-28T11:39:07Z</time>
      </trkpt>
      <trkpt lat="45.41482" lon="5.9224">
        <ele>1746.37</ele>
        <time>2015-02-28T11:39:17Z</time>
      </trkpt>
      <trkpt lat="45.41483" lon="5.92245">
        <ele>1747.81</ele>
        <time>2015-02-28T11:39:31Z</time>
      </trkpt>
      <trkpt lat="45.41483" lon="5.92245">
        <ele>1748.78</ele>
        <time>2015-02-28T11:39:50Z</time>
      </trkpt>
      <trkpt lat="45.41483" lon="5.92249">
        <ele>1749.74</ele>
        <time>2015-02-28T11:40:05Z</time>
      </trkpt>
      <trkpt lat="45.41483" lon="5.92248">
        <ele>1748.78</ele>
        <time>2015-02-28T11:40:25Z</time>
      </trkpt>
      <trkpt lat="45.41483" lon="5.92249">
        <ele>1749.26</ele>
        <time>2015-02-28T11:40:48Z</time>
      </trkpt>
      <trkpt lat="45.41484" lon="5.92247">
        <ele>1749.26</ele>
        <time>2015-02-28T11:41:13Z</time>
      </trkpt>
      <trkpt lat="45.41487" lon="5.92243">
        <ele>1750.7</ele>
        <time>2015-02-28T11:41:28Z</time>
      </trkpt>
      <trkpt lat="45.4149" lon="5.92247">
        <ele>1752.14</ele>
        <time>2015-02-28T11:41:40Z</time>
      </trkpt>
      <trkpt lat="45.41494" lon="5.92253">
        <ele>1754.54</ele>
        <time>2015-02-28T11:41:52Z</time>
      </trkpt>
      <trkpt lat="45.41497" lon="5.92256">
        <ele>1755.5</ele>
        <time>2015-02-28T11:42:01Z</time>
      </trkpt>
      <trkpt lat="45.41505" lon="5.92259">
        <ele>1757.43</ele>
        <time>2015-02-28T11:42:14Z</time>
      </trkpt>
      <trkpt lat="45.41513" lon="5.92264">
        <ele>1758.87</ele>
        <time>2015-02-28T11:42:25Z</time>
      </trkpt>
      <trkpt lat="45.4152" lon="5.92268">
        <ele>1760.31</ele>
        <time>2015-02-28T11:42:37Z</time>
      </trkpt>
      <trkpt lat="45.41526" lon="5.92269">
        <ele>1761.75</ele>
        <time>2015-02-28T11:42:47Z</time>
      </trkpt>
      <trkpt lat="45.41532" lon="5.92272">
        <ele>1762.71</ele>
        <time>2015-02-28T11:42:58Z</time>
      </trkpt>
      <trkpt lat="45.4154" lon="5.92274">
        <ele>1764.16</ele>
        <time>2015-02-28T11:43:10Z</time>
      </trkpt>
      <trkpt lat="45.41547" lon="5.92276">
        <ele>1766.08</ele>
        <time>2015-02-28T11:43:22Z</time>
      </trkpt>
      <trkpt lat="45.41554" lon="5.92279">
        <ele>1768.48</ele>
        <time>2015-02-28T11:43:36Z</time>
      </trkpt>
      <trkpt lat="45.41562" lon="5.92281">
        <ele>1770.89</ele>
        <time>2015-02-28T11:43:49Z</time>
      </trkpt>
      <trkpt lat="45.41569" lon="5.92281">
        <ele>1772.81</ele>
        <time>2015-02-28T11:44:01Z</time>
      </trkpt>
      <trkpt lat="45.41578" lon="5.92283">
        <ele>1774.25</ele>
        <time>2015-02-28T11:44:14Z</time>
      </trkpt>
      <trkpt lat="45.41586" lon="5.92284">
        <ele>1776.17</ele>
        <time>2015-02-28T11:44:27Z</time>
      </trkpt>
      <trkpt lat="45.41593" lon="5.92286">
        <ele>1778.1</ele>
        <time>2015-02-28T11:44:39Z</time>
      </trkpt>
      <trkpt lat="45.416" lon="5.92286">
        <ele>1779.06</ele>
        <time>2015-02-28T11:44:50Z</time>
      </trkpt>
      <trkpt lat="45.4161" lon="5.92294">
        <ele>1780.98</ele>
        <time>2015-02-28T11:45:05Z</time>
      </trkpt>
      <trkpt lat="45.41616" lon="5.92301">
        <ele>1783.38</ele>
        <time>2015-02-28T11:45:17Z</time>
      </trkpt>
      <trkpt lat="45.41624" lon="5.92303">
        <ele>1784.82</ele>
        <time>2015-02-28T11:45:31Z</time>
      </trkpt>
      <trkpt lat="45.41629" lon="5.92299">
        <ele>1786.75</ele>
        <time>2015-02-28T11:45:42Z</time>
      </trkpt>
      <trkpt lat="45.4163" lon="5.92296">
        <ele>1787.23</ele>
        <time>2015-02-28T11:45:45Z</time>
      </trkpt>
      <trkpt lat="45.41632" lon="5.92282">
        <ele>1787.71</ele>
        <time>2015-02-28T11:45:56Z</time>
      </trkpt>
      <trkpt lat="45.41633" lon="5.92276">
        <ele>1788.19</ele>
        <time>2015-02-28T11:46:06Z</time>
      </trkpt>
      <trkpt lat="45.41635" lon="5.92274">
        <ele>1789.15</ele>
        <time>2015-02-28T11:46:15Z</time>
      </trkpt>
      <trkpt lat="45.4164" lon="5.92281">
        <ele>1791.07</ele>
        <time>2015-02-28T11:46:27Z</time>
      </trkpt>
      <trkpt lat="45.41643" lon="5.92285">
        <ele>1791.55</ele>
        <time>2015-02-28T11:46:33Z</time>
      </trkpt>
      <trkpt lat="45.41645" lon="5.92293">
        <ele>1792.03</ele>
        <time>2015-02-28T11:46:41Z</time>
      </trkpt>
      <trkpt lat="45.41647" lon="5.92304">
        <ele>1793.48</ele>
        <time>2015-02-28T11:46:52Z</time>
      </trkpt>
      <trkpt lat="45.41656" lon="5.92313">
        <ele>1794.92</ele>
        <time>2015-02-28T11:47:07Z</time>
      </trkpt>
      <trkpt lat="45.41662" lon="5.9232">
        <ele>1797.32</ele>
        <time>2015-02-28T11:47:18Z</time>
      </trkpt>
      <trkpt lat="45.41665" lon="5.92323">
        <ele>1797.8</ele>
        <time>2015-02-28T11:47:23Z</time>
      </trkpt>
      <trkpt lat="45.41674" lon="5.92331">
        <ele>1799.24</ele>
        <time>2015-02-28T11:47:39Z</time>
      </trkpt>
      <trkpt lat="45.41681" lon="5.92339">
        <ele>1800.69</ele>
        <time>2015-02-28T11:47:51Z</time>
      </trkpt>
      <trkpt lat="45.41686" lon="5.92343">
        <ele>1801.65</ele>
        <time>2015-02-28T11:47:59Z</time>
      </trkpt>
      <trkpt lat="45.4169" lon="5.92345">
        <ele>1802.13</ele>
        <time>2015-02-28T11:48:04Z</time>
      </trkpt>
      <trkpt lat="45.41697" lon="5.92355">
        <ele>1803.57</ele>
        <time>2015-02-28T11:48:17Z</time>
      </trkpt>
      <trkpt lat="45.417" lon="5.92359">
        <ele>1804.05</ele>
        <time>2015-02-28T11:48:22Z</time>
      </trkpt>
      <trkpt lat="45.41703" lon="5.92365">
        <ele>1804.05</ele>
        <time>2015-02-28T11:48:28Z</time>
      </trkpt>
      <trkpt lat="45.41709" lon="5.92372">
        <ele>1805.49</ele>
        <time>2015-02-28T11:48:36Z</time>
      </trkpt>
      <trkpt lat="45.41716" lon="5.92381">
        <ele>1806.45</ele>
        <time>2015-02-28T11:48:47Z</time>
      </trkpt>
      <trkpt lat="45.41721" lon="5.9239">
        <ele>1807.9</ele>
        <time>2015-02-28T11:48:59Z</time>
      </trkpt>
      <trkpt lat="45.41722" lon="5.92392">
        <ele>1808.38</ele>
        <time>2015-02-28T11:49:02Z</time>
      </trkpt>
      <trkpt lat="45.41726" lon="5.924">
        <ele>1809.34</ele>
        <time>2015-02-28T11:49:12Z</time>
      </trkpt>
      <trkpt lat="45.4173" lon="5.92411">
        <ele>1810.78</ele>
        <time>2015-02-28T11:49:24Z</time>
      </trkpt>
      <trkpt lat="45.41733" lon="5.92425">
        <ele>1811.74</ele>
        <time>2015-02-28T11:49:36Z</time>
      </trkpt>
      <trkpt lat="45.41733" lon="5.92427">
        <ele>1811.74</ele>
        <time>2015-02-28T11:49:38Z</time>
      </trkpt>
      <trkpt lat="45.41739" lon="5.92445">
        <ele>1812.22</ele>
        <time>2015-02-28T11:49:54Z</time>
      </trkpt>
      <trkpt lat="45.41743" lon="5.92462">
        <ele>1813.18</ele>
        <time>2015-02-28T11:50:08Z</time>
      </trkpt>
      <trkpt lat="45.41746" lon="5.92479">
        <ele>1814.63</ele>
        <time>2015-02-28T11:50:23Z</time>
      </trkpt>
      <trkpt lat="45.41748" lon="5.9249">
        <ele>1816.07</ele>
        <time>2015-02-28T11:50:35Z</time>
      </trkpt>
      <trkpt lat="45.4175" lon="5.925">
        <ele>1816.55</ele>
        <time>2015-02-28T11:50:46Z</time>
      </trkpt>
      <trkpt lat="45.4175" lon="5.92501">
        <ele>1816.55</ele>
        <time>2015-02-28T11:50:47Z</time>
      </trkpt>
      <trkpt lat="45.41754" lon="5.92515">
        <ele>1818.47</ele>
        <time>2015-02-28T11:51:01Z</time>
      </trkpt>
      <trkpt lat="45.41757" lon="5.92532">
        <ele>1819.91</ele>
        <time>2015-02-28T11:51:16Z</time>
      </trkpt>
      <trkpt lat="45.41759" lon="5.92539">
        <ele>1820.39</ele>
        <time>2015-02-28T11:51:31Z</time>
      </trkpt>
      <trkpt lat="45.4176" lon="5.92541">
        <ele>1820.39</ele>
        <time>2015-02-28T11:51:55Z</time>
      </trkpt>
      <trkpt lat="45.4176" lon="5.92542">
        <ele>1820.39</ele>
        <time>2015-02-28T11:52:00Z</time>
      </trkpt>
      <trkpt lat="45.41763" lon="5.92559">
        <ele>1822.8</ele>
        <time>2015-02-28T11:52:16Z</time>
      </trkpt>
      <trkpt lat="45.41764" lon="5.92573">
        <ele>1824.24</ele>
        <time>2015-02-28T11:52:28Z</time>
      </trkpt>
      <trkpt lat="45.41765" lon="5.92583">
        <ele>1825.68</ele>
        <time>2015-02-28T11:52:39Z</time>
      </trkpt>
      <trkpt lat="45.41767" lon="5.92598">
        <ele>1826.16</ele>
        <time>2015-02-28T11:53:05Z</time>
      </trkpt>
      <trkpt lat="45.41769" lon="5.92614">
        <ele>1827.6</ele>
        <time>2015-02-28T11:53:18Z</time>
      </trkpt>
      <trkpt lat="45.4177" lon="5.92629">
        <ele>1829.05</ele>
        <time>2015-02-28T11:53:30Z</time>
      </trkpt>
      <trkpt lat="45.41772" lon="5.92649">
        <ele>1830.01</ele>
        <time>2015-02-28T11:53:46Z</time>
      </trkpt>
      <trkpt lat="45.41774" lon="5.92662">
        <ele>1830.49</ele>
        <time>2015-02-28T11:53:59Z</time>
      </trkpt>
      <trkpt lat="45.41774" lon="5.92679">
        <ele>1830.97</ele>
        <time>2015-02-28T11:54:48Z</time>
      </trkpt>
      <trkpt lat="45.41774" lon="5.92697">
        <ele>1830.97</ele>
        <time>2015-02-28T11:55:03Z</time>
      </trkpt>
      <trkpt lat="45.41774" lon="5.92697">
        <ele>1830.49</ele>
        <time>2015-02-28T11:56:07Z</time>
      </trkpt>
      <trkpt lat="45.41774" lon="5.92703">
        <ele>1830.01</ele>
        <time>2015-02-28T11:59:41Z</time>
      </trkpt>
      <trkpt lat="45.41774" lon="5.92703">
        <ele>1829.53</ele>
        <time>2015-02-28T12:00:57Z</time>
      </trkpt>
      <trkpt lat="45.41771" lon="5.92721">
        <ele>1828.08</ele>
        <time>2015-02-28T12:01:49Z</time>
      </trkpt>
      <trkpt lat="45.4177" lon="5.92741">
        <ele>1825.68</ele>
        <time>2015-02-28T12:02:03Z</time>
      </trkpt>
      <trkpt lat="45.41778" lon="5.92762">
        <ele>1823.28</ele>
        <time>2015-02-28T12:02:18Z</time>
      </trkpt>
      <trkpt lat="45.41783" lon="5.92774">
        <ele>1820.39</ele>
        <time>2015-02-28T12:02:32Z</time>
      </trkpt>
      <trkpt lat="45.41789" lon="5.92786">
        <ele>1818.95</ele>
        <time>2015-02-28T12:02:44Z</time>
      </trkpt>
      <trkpt lat="45.41801" lon="5.92799">
        <ele>1817.51</ele>
        <time>2015-02-28T12:02:58Z</time>
      </trkpt>
      <trkpt lat="45.41814" lon="5.92809">
        <ele>1815.59</ele>
        <time>2015-02-28T12:03:12Z</time>
      </trkpt>
      <trkpt lat="45.41816" lon="5.9281">
        <ele>1815.11</ele>
        <time>2015-02-28T12:03:25Z</time>
      </trkpt>
      <trkpt lat="45.4183" lon="5.92809">
        <ele>1813.66</ele>
        <time>2015-02-28T12:03:38Z</time>
      </trkpt>
      <trkpt lat="45.41835" lon="5.92813">
        <ele>1813.66</ele>
        <time>2015-02-28T12:03:44Z</time>
      </trkpt>
      <trkpt lat="45.41849" lon="5.9283">
        <ele>1813.18</ele>
        <time>2015-02-28T12:04:03Z</time>
      </trkpt>
      <trkpt lat="45.41858" lon="5.9284">
        <ele>1813.18</ele>
        <time>2015-02-28T12:04:16Z</time>
      </trkpt>
      <trkpt lat="45.41868" lon="5.92849">
        <ele>1812.7</ele>
        <time>2015-02-28T12:04:28Z</time>
      </trkpt>
      <trkpt lat="45.41868" lon="5.92849">
        <ele>1813.66</ele>
        <time>2015-02-28T12:04:43Z</time>
      </trkpt>
      <trkpt lat="45.4188" lon="5.92863">
        <ele>1812.7</ele>
        <time>2015-02-28T12:06:32Z</time>
      </trkpt>
      <trkpt lat="45.41899" lon="5.92874">
        <ele>1810.78</ele>
        <time>2015-02-28T12:06:51Z</time>
      </trkpt>
      <trkpt lat="45.41908" lon="5.92879">
        <ele>1808.38</ele>
        <time>2015-02-28T12:07:01Z</time>
      </trkpt>
      <trkpt lat="45.41909" lon="5.92878">
        <ele>1808.38</ele>
        <time>2015-02-28T12:07:02Z</time>
      </trkpt>
      <trkpt lat="45.41919" lon="5.92868">
        <ele>1807.9</ele>
        <time>2015-02-28T12:07:17Z</time>
      </trkpt>
      <trkpt lat="45.41921" lon="5.92866">
        <ele>1807.9</ele>
        <time>2015-02-28T12:07:40Z</time>
      </trkpt>
      <trkpt lat="45.41923" lon="5.92858">
        <ele>1807.9</ele>
        <time>2015-02-28T12:07:48Z</time>
      </trkpt>
      <trkpt lat="45.41921" lon="5.92848">
        <ele>1808.86</ele>
        <time>2015-02-28T12:08:00Z</time>
      </trkpt>
      <trkpt lat="45.41922" lon="5.92846">
        <ele>1809.82</ele>
        <time>2015-02-28T12:08:04Z</time>
      </trkpt>
      <trkpt lat="45.41924" lon="5.92846">
        <ele>1809.82</ele>
        <time>2015-02-28T12:08:06Z</time>
      </trkpt>
      <trkpt lat="45.41932" lon="5.92853">
        <ele>1812.7</ele>
        <time>2015-02-28T12:08:21Z</time>
      </trkpt>
      <trkpt lat="45.41941" lon="5.9286">
        <ele>1814.15</ele>
        <time>2015-02-28T12:08:34Z</time>
      </trkpt>
      <trkpt lat="45.41952" lon="5.9287">
        <ele>1815.11</ele>
        <time>2015-02-28T12:08:48Z</time>
      </trkpt>
      <trkpt lat="45.41953" lon="5.92872">
        <ele>1815.11</ele>
        <time>2015-02-28T12:08:49Z</time>
      </trkpt>
      <trkpt lat="45.41956" lon="5.92879">
        <ele>1814.15</ele>
        <time>2015-02-28T12:08:55Z</time>
      </trkpt>
      <trkpt lat="45.41959" lon="5.92884">
        <ele>1816.07</ele>
        <time>2015-02-28T12:09:10Z</time>
      </trkpt>
      <trkpt lat="45.41964" lon="5.92884">
        <ele>1817.99</ele>
        <time>2015-02-28T12:09:24Z</time>
      </trkpt>
      <trkpt lat="45.41974" lon="5.92886">
        <ele>1818.95</ele>
        <time>2015-02-28T12:09:38Z</time>
      </trkpt>
      <trkpt lat="45.41987" lon="5.92887">
        <ele>1819.91</ele>
        <time>2015-02-28T12:09:52Z</time>
      </trkpt>
      <trkpt lat="45.41995" lon="5.92889">
        <ele>1820.39</ele>
        <time>2015-02-28T12:10:00Z</time>
      </trkpt>
      <trkpt lat="45.42008" lon="5.92888">
        <ele>1820.39</ele>
        <time>2015-02-28T12:10:12Z</time>
      </trkpt>
      <trkpt lat="45.42022" lon="5.92886">
        <ele>1819.91</ele>
        <time>2015-02-28T12:10:26Z</time>
      </trkpt>
      <trkpt lat="45.42036" lon="5.92889">
        <ele>1819.43</ele>
        <time>2015-02-28T12:10:41Z</time>
      </trkpt>
      <trkpt lat="45.42046" lon="5.92891">
        <ele>1820.39</ele>
        <time>2015-02-28T12:10:55Z</time>
      </trkpt>
      <trkpt lat="45.42058" lon="5.92894">
        <ele>1820.39</ele>
        <time>2015-02-28T12:11:10Z</time>
      </trkpt>
      <trkpt lat="45.42068" lon="5.92908">
        <ele>1819.91</ele>
        <time>2015-02-28T12:11:25Z</time>
      </trkpt>
      <trkpt lat="45.42075" lon="5.92922">
        <ele>1821.35</ele>
        <time>2015-02-28T12:11:38Z</time>
      </trkpt>
      <trkpt lat="45.42086" lon="5.92938">
        <ele>1822.8</ele>
        <time>2015-02-28T12:11:55Z</time>
      </trkpt>
      <trkpt lat="45.42095" lon="5.92947">
        <ele>1823.28</ele>
        <time>2015-02-28T12:12:08Z</time>
      </trkpt>
      <trkpt lat="45.42105" lon="5.92956">
        <ele>1823.76</ele>
        <time>2015-02-28T12:12:20Z</time>
      </trkpt>
      <trkpt lat="45.42115" lon="5.92965">
        <ele>1823.76</ele>
        <time>2015-02-28T12:12:34Z</time>
      </trkpt>
      <trkpt lat="45.42122" lon="5.92979">
        <ele>1824.72</ele>
        <time>2015-02-28T12:12:48Z</time>
      </trkpt>
      <trkpt lat="45.42132" lon="5.92986">
        <ele>1823.76</ele>
        <time>2015-02-28T12:12:58Z</time>
      </trkpt>
      <trkpt lat="45.42146" lon="5.93">
        <ele>1820.39</ele>
        <time>2015-02-28T12:13:11Z</time>
      </trkpt>
      <trkpt lat="45.42147" lon="5.93">
        <ele>1820.39</ele>
        <time>2015-02-28T12:13:12Z</time>
      </trkpt>
      <trkpt lat="45.42158" lon="5.93016">
        <ele>1816.55</ele>
        <time>2015-02-28T12:14:16Z</time>
      </trkpt>
      <trkpt lat="45.42158" lon="5.93019">
        <ele>1814.63</ele>
        <time>2015-02-28T12:14:20Z</time>
      </trkpt>
      <trkpt lat="45.42161" lon="5.93018">
        <ele>1814.15</ele>
        <time>2015-02-28T12:14:24Z</time>
      </trkpt>
      <trkpt lat="45.42167" lon="5.93021">
        <ele>1811.26</ele>
        <time>2015-02-28T12:14:32Z</time>
      </trkpt>
      <trkpt lat="45.42178" lon="5.93026">
        <ele>1809.82</ele>
        <time>2015-02-28T12:14:47Z</time>
      </trkpt>
      <trkpt lat="45.4218" lon="5.93026">
        <ele>1809.82</ele>
        <time>2015-02-28T12:14:49Z</time>
      </trkpt>
      <trkpt lat="45.42185" lon="5.93026">
        <ele>1808.86</ele>
        <time>2015-02-28T12:14:54Z</time>
      </trkpt>
      <trkpt lat="45.42193" lon="5.93019">
        <ele>1805.97</ele>
        <time>2015-02-28T12:15:00Z</time>
      </trkpt>
      <trkpt lat="45.42201" lon="5.93019">
        <ele>1804.05</ele>
        <time>2015-02-28T12:15:04Z</time>
      </trkpt>
      <trkpt lat="45.42209" lon="5.93033">
        <ele>1798.76</ele>
        <time>2015-02-28T12:15:08Z</time>
      </trkpt>
      <trkpt lat="45.42211" lon="5.93034">
        <ele>1797.32</ele>
        <time>2015-02-28T12:15:09Z</time>
      </trkpt>
      <trkpt lat="45.42221" lon="5.93022">
        <ele>1791.55</ele>
        <time>2015-02-28T12:15:13Z</time>
      </trkpt>
      <trkpt lat="45.42224" lon="5.93018">
        <ele>1791.55</ele>
        <time>2015-02-28T12:15:14Z</time>
      </trkpt>
      <trkpt lat="45.42232" lon="5.93003">
        <ele>1786.75</ele>
        <time>2015-02-28T12:15:17Z</time>
      </trkpt>
      <trkpt lat="45.42235" lon="5.9299">
        <ele>1783.38</ele>
        <time>2015-02-28T12:15:19Z</time>
      </trkpt>
      <trkpt lat="45.42236" lon="5.92985">
        <ele>1780.02</ele>
        <time>2015-02-28T12:15:21Z</time>
      </trkpt>
      <trkpt lat="45.42236" lon="5.92984">
        <ele>1778.58</ele>
        <time>2015-02-28T12:15:24Z</time>
      </trkpt>
      <trkpt lat="45.42238" lon="5.9299">
        <ele>1778.1</ele>
        <time>2015-02-28T12:15:41Z</time>
      </trkpt>
      <trkpt lat="45.42252" lon="5.92995">
        <ele>1774.73</ele>
        <time>2015-02-28T12:15:51Z</time>
      </trkpt>
      <trkpt lat="45.4226" lon="5.93001">
        <ele>1772.81</ele>
        <time>2015-02-28T12:15:55Z</time>
      </trkpt>
      <trkpt lat="45.42263" lon="5.93001">
        <ele>1770.89</ele>
        <time>2015-02-28T12:15:58Z</time>
      </trkpt>
      <trkpt lat="45.42276" lon="5.92983">
        <ele>1766.56</ele>
        <time>2015-02-28T12:16:04Z</time>
      </trkpt>
      <trkpt lat="45.4228" lon="5.92981">
        <ele>1766.56</ele>
        <time>2015-02-28T12:16:05Z</time>
      </trkpt>
      <trkpt lat="45.42282" lon="5.9298">
        <ele>1763.2</ele>
        <time>2015-02-28T12:16:09Z</time>
      </trkpt>
      <trkpt lat="45.42294" lon="5.92971">
        <ele>1761.75</ele>
        <time>2015-02-28T12:16:16Z</time>
      </trkpt>
      <trkpt lat="45.42301" lon="5.92984">
        <ele>1759.83</ele>
        <time>2015-02-28T12:16:27Z</time>
      </trkpt>
      <trkpt lat="45.42304" lon="5.93">
        <ele>1761.27</ele>
        <time>2015-02-28T12:16:42Z</time>
      </trkpt>
      <trkpt lat="45.42305" lon="5.93004">
        <ele>1760.79</ele>
        <time>2015-02-28T12:16:55Z</time>
      </trkpt>
      <trkpt lat="45.42305" lon="5.93003">
        <ele>1760.79</ele>
        <time>2015-02-28T12:16:56Z</time>
      </trkpt>
      <trkpt lat="45.42311" lon="5.9298">
        <ele>1758.87</ele>
        <time>2015-02-28T12:17:07Z</time>
      </trkpt>
      <trkpt lat="45.42315" lon="5.92968">
        <ele>1757.43</ele>
        <time>2015-02-28T12:17:20Z</time>
      </trkpt>
      <trkpt lat="45.42321" lon="5.92971">
        <ele>1758.87</ele>
        <time>2015-02-28T12:17:34Z</time>
      </trkpt>
      <trkpt lat="45.42321" lon="5.92972">
        <ele>1759.83</ele>
        <time>2015-02-28T12:18:45Z</time>
      </trkpt>
      <trkpt lat="45.42321" lon="5.92975">
        <ele>1759.35</ele>
        <time>2015-02-28T12:18:50Z</time>
      </trkpt>
      <trkpt lat="45.42323" lon="5.92996">
        <ele>1758.87</ele>
        <time>2015-02-28T12:19:05Z</time>
      </trkpt>
      <trkpt lat="45.42321" lon="5.93014">
        <ele>1756.95</ele>
        <time>2015-02-28T12:19:16Z</time>
      </trkpt>
      <trkpt lat="45.42327" lon="5.93039">
        <ele>1753.1</ele>
        <time>2015-02-28T12:19:24Z</time>
      </trkpt>
      <trkpt lat="45.42328" lon="5.93042">
        <ele>1753.1</ele>
        <time>2015-02-28T12:19:25Z</time>
      </trkpt>
      <trkpt lat="45.42328" lon="5.93045">
        <ele>1750.22</ele>
        <time>2015-02-28T12:19:29Z</time>
      </trkpt>
      <trkpt lat="45.42328" lon="5.93045">
        <ele>1749.74</ele>
        <time>2015-02-28T12:19:44Z</time>
      </trkpt>
      <trkpt lat="45.42333" lon="5.9306">
        <ele>1748.78</ele>
        <time>2015-02-28T12:19:56Z</time>
      </trkpt>
      <trkpt lat="45.42336" lon="5.93083">
        <ele>1746.37</ele>
        <time>2015-02-28T12:20:09Z</time>
      </trkpt>
      <trkpt lat="45.4234" lon="5.93095">
        <ele>1748.78</ele>
        <time>2015-02-28T12:20:21Z</time>
      </trkpt>
      <trkpt lat="45.42345" lon="5.93104">
        <ele>1749.26</ele>
        <time>2015-02-28T12:20:30Z</time>
      </trkpt>
      <trkpt lat="45.42348" lon="5.93109">
        <ele>1749.74</ele>
        <time>2015-02-28T12:20:37Z</time>
      </trkpt>
      <trkpt lat="45.42349" lon="5.93122">
        <ele>1750.22</ele>
        <time>2015-02-28T12:20:51Z</time>
      </trkpt>
      <trkpt lat="45.42351" lon="5.9313">
        <ele>1751.18</ele>
        <time>2015-02-28T12:20:58Z</time>
      </trkpt>
      <trkpt lat="45.42353" lon="5.93148">
        <ele>1752.62</ele>
        <time>2015-02-28T12:21:15Z</time>
      </trkpt>
      <trkpt lat="45.42353" lon="5.93155">
        <ele>1752.62</ele>
        <time>2015-02-28T12:21:39Z</time>
      </trkpt>
      <trkpt lat="45.42353" lon="5.93152">
        <ele>1753.1</ele>
        <time>2015-02-28T12:22:36Z</time>
      </trkpt>
      <trkpt lat="45.42348" lon="5.93132">
        <ele>1752.62</ele>
        <time>2015-02-28T12:22:48Z</time>
      </trkpt>
      <trkpt lat="45.42346" lon="5.93112">
        <ele>1751.18</ele>
        <time>2015-02-28T12:23:03Z</time>
      </trkpt>
      <trkpt lat="45.42342" lon="5.93106">
        <ele>1750.7</ele>
        <time>2015-02-28T12:23:08Z</time>
      </trkpt>
      <trkpt lat="45.42333" lon="5.93088">
        <ele>1749.26</ele>
        <time>2015-02-28T12:23:20Z</time>
      </trkpt>
      <trkpt lat="45.42333" lon="5.93086">
        <ele>1748.78</ele>
        <time>2015-02-28T12:23:21Z</time>
      </trkpt>
      <trkpt lat="45.42335" lon="5.93073">
        <ele>1747.33</ele>
        <time>2015-02-28T12:23:29Z</time>
      </trkpt>
      <trkpt lat="45.42331" lon="5.93058">
        <ele>1748.78</ele>
        <time>2015-02-28T12:23:41Z</time>
      </trkpt>
      <trkpt lat="45.42325" lon="5.93041">
        <ele>1750.22</ele>
        <time>2015-02-28T12:23:56Z</time>
      </trkpt>
      <trkpt lat="45.42323" lon="5.93032">
        <ele>1751.18</ele>
        <time>2015-02-28T12:24:05Z</time>
      </trkpt>
      <trkpt lat="45.42322" lon="5.93028">
        <ele>1753.1</ele>
        <time>2015-02-28T12:24:15Z</time>
      </trkpt>
      <trkpt lat="45.42321" lon="5.93021">
        <ele>1755.02</ele>
        <time>2015-02-28T12:24:27Z</time>
      </trkpt>
      <trkpt lat="45.42318" lon="5.93008">
        <ele>1756.95</ele>
        <time>2015-02-28T12:24:40Z</time>
      </trkpt>
      <trkpt lat="45.42319" lon="5.93006">
        <ele>1756.95</ele>
        <time>2015-02-28T12:24:42Z</time>
      </trkpt>
      <trkpt lat="45.4232" lon="5.93002">
        <ele>1757.43</ele>
        <time>2015-02-28T12:24:46Z</time>
      </trkpt>
      <trkpt lat="45.42324" lon="5.92989">
        <ele>1758.87</ele>
        <time>2015-02-28T12:24:58Z</time>
      </trkpt>
      <trkpt lat="45.4233" lon="5.92986">
        <ele>1760.31</ele>
        <time>2015-02-28T12:25:10Z</time>
      </trkpt>
      <trkpt lat="45.42335" lon="5.9299">
        <ele>1762.23</ele>
        <time>2015-02-28T12:25:22Z</time>
      </trkpt>
      <trkpt lat="45.42341" lon="5.92989">
        <ele>1764.16</ele>
        <time>2015-02-28T12:25:32Z</time>
      </trkpt>
      <trkpt lat="45.42344" lon="5.92989">
        <ele>1765.12</ele>
        <time>2015-02-28T12:25:37Z</time>
      </trkpt>
      <trkpt lat="45.42346" lon="5.92994">
        <ele>1765.6</ele>
        <time>2015-02-28T12:25:43Z</time>
      </trkpt>
      <trkpt lat="45.42349" lon="5.93008">
        <ele>1767.52</ele>
        <time>2015-02-28T12:25:56Z</time>
      </trkpt>
      <trkpt lat="45.42352" lon="5.93017">
        <ele>1768.48</ele>
        <time>2015-02-28T12:26:05Z</time>
      </trkpt>
      <trkpt lat="45.42359" lon="5.93024">
        <ele>1770.89</ele>
        <time>2015-02-28T12:26:19Z</time>
      </trkpt>
      <trkpt lat="45.42362" lon="5.93025">
        <ele>1771.37</ele>
        <time>2015-02-28T12:26:22Z</time>
      </trkpt>
      <trkpt lat="45.42369" lon="5.93035">
        <ele>1773.29</ele>
        <time>2015-02-28T12:26:34Z</time>
      </trkpt>
      <trkpt lat="45.42378" lon="5.93045">
        <ele>1776.17</ele>
        <time>2015-02-28T12:26:50Z</time>
      </trkpt>
      <trkpt lat="45.42383" lon="5.93052">
        <ele>1778.1</ele>
        <time>2015-02-28T12:27:00Z</time>
      </trkpt>
      <trkpt lat="45.42388" lon="5.93065">
        <ele>1780.02</ele>
        <time>2015-02-28T12:27:13Z</time>
      </trkpt>
      <trkpt lat="45.42391" lon="5.93078">
        <ele>1782.9</ele>
        <time>2015-02-28T12:27:25Z</time>
      </trkpt>
      <trkpt lat="45.42393" lon="5.93085">
        <ele>1785.79</ele>
        <time>2015-02-28T12:27:37Z</time>
      </trkpt>
      <trkpt lat="45.42396" lon="5.93091">
        <ele>1788.19</ele>
        <time>2015-02-28T12:27:48Z</time>
      </trkpt>
      <trkpt lat="45.42398" lon="5.93101">
        <ele>1791.07</ele>
        <time>2015-02-28T12:28:01Z</time>
      </trkpt>
      <trkpt lat="45.42408" lon="5.9311">
        <ele>1794.44</ele>
        <time>2015-02-28T12:28:17Z</time>
      </trkpt>
      <trkpt lat="45.4241" lon="5.93111">
        <ele>1794.92</ele>
        <time>2015-02-28T12:28:20Z</time>
      </trkpt>
      <trkpt lat="45.42413" lon="5.93124">
        <ele>1798.28</ele>
        <time>2015-02-28T12:28:36Z</time>
      </trkpt>
      <trkpt lat="45.42422" lon="5.9313">
        <ele>1801.17</ele>
        <time>2015-02-28T12:28:50Z</time>
      </trkpt>
      <trkpt lat="45.42428" lon="5.93136">
        <ele>1803.57</ele>
        <time>2015-02-28T12:29:04Z</time>
      </trkpt>
      <trkpt lat="45.4243" lon="5.93141">
        <ele>1804.53</ele>
        <time>2015-02-28T12:29:10Z</time>
      </trkpt>
      <trkpt lat="45.42431" lon="5.93145">
        <ele>1805.49</ele>
        <time>2015-02-28T12:29:15Z</time>
      </trkpt>
      <trkpt lat="45.4243" lon="5.93147">
        <ele>1805.97</ele>
        <time>2015-02-28T12:29:18Z</time>
      </trkpt>
      <trkpt lat="45.42431" lon="5.93152">
        <ele>1806.94</ele>
        <time>2015-02-28T12:29:24Z</time>
      </trkpt>
      <trkpt lat="45.42433" lon="5.93165">
        <ele>1809.82</ele>
        <time>2015-02-28T12:29:37Z</time>
      </trkpt>
      <trkpt lat="45.42435" lon="5.93174">
        <ele>1811.26</ele>
        <time>2015-02-28T12:29:48Z</time>
      </trkpt>
      <trkpt lat="45.42436" lon="5.9319">
        <ele>1814.63</ele>
        <time>2015-02-28T12:30:03Z</time>
      </trkpt>
      <trkpt lat="45.42445" lon="5.93195">
        <ele>1817.51</ele>
        <time>2015-02-28T12:30:18Z</time>
      </trkpt>
      <trkpt lat="45.42456" lon="5.93199">
        <ele>1819.43</ele>
        <time>2015-02-28T12:30:36Z</time>
      </trkpt>
      <trkpt lat="45.42459" lon="5.93199">
        <ele>1819.91</ele>
        <time>2015-02-28T12:30:40Z</time>
      </trkpt>
      <trkpt lat="45.42471" lon="5.93201">
        <ele>1820.39</ele>
        <time>2015-02-28T12:30:54Z</time>
      </trkpt>
      <trkpt lat="45.42476" lon="5.93202">
        <ele>1820.87</ele>
        <time>2015-02-28T12:31:00Z</time>
      </trkpt>
      <trkpt lat="45.42489" lon="5.93197">
        <ele>1821.35</ele>
        <time>2015-02-28T12:31:13Z</time>
      </trkpt>
      <trkpt lat="45.42493" lon="5.93198">
        <ele>1822.8</ele>
        <time>2015-02-28T12:31:20Z</time>
      </trkpt>
      <trkpt lat="45.42499" lon="5.932">
        <ele>1823.28</ele>
        <time>2015-02-28T12:31:26Z</time>
      </trkpt>
      <trkpt lat="45.42512" lon="5.93203">
        <ele>1824.24</ele>
        <time>2015-02-28T12:31:39Z</time>
      </trkpt>
      <trkpt lat="45.42519" lon="5.93203">
        <ele>1826.16</ele>
        <time>2015-02-28T12:31:50Z</time>
      </trkpt>
      <trkpt lat="45.42528" lon="5.93208">
        <ele>1827.6</ele>
        <time>2015-02-28T12:32:04Z</time>
      </trkpt>
      <trkpt lat="45.42532" lon="5.93206">
        <ele>1827.6</ele>
        <time>2015-02-28T12:32:08Z</time>
      </trkpt>
      <trkpt lat="45.42542" lon="5.93202">
        <ele>1828.56</ele>
        <time>2015-02-28T12:32:20Z</time>
      </trkpt>
      <trkpt lat="45.42547" lon="5.93203">
        <ele>1829.53</ele>
        <time>2015-02-28T12:32:27Z</time>
      </trkpt>
      <trkpt lat="45.42559" lon="5.93207">
        <ele>1831.45</ele>
        <time>2015-02-28T12:32:43Z</time>
      </trkpt>
      <trkpt lat="45.42559" lon="5.93207">
        <ele>1831.93</ele>
        <time>2015-02-28T12:32:44Z</time>
      </trkpt>
      <trkpt lat="45.42563" lon="5.9321">
        <ele>1832.41</ele>
        <time>2015-02-28T12:32:49Z</time>
      </trkpt>
      <trkpt lat="45.42572" lon="5.9322">
        <ele>1833.37</ele>
        <time>2015-02-28T12:33:01Z</time>
      </trkpt>
      <trkpt lat="45.42576" lon="5.93221">
        <ele>1833.85</ele>
        <time>2015-02-28T12:33:05Z</time>
      </trkpt>
      <trkpt lat="45.42591" lon="5.93233">
        <ele>1835.29</ele>
        <time>2015-02-28T12:33:21Z</time>
      </trkpt>
      <trkpt lat="45.42606" lon="5.93244">
        <ele>1835.29</ele>
        <time>2015-02-28T12:33:35Z</time>
      </trkpt>
      <trkpt lat="45.42622" lon="5.93257">
        <ele>1834.33</ele>
        <time>2015-02-28T12:33:48Z</time>
      </trkpt>
      <trkpt lat="45.42635" lon="5.93271">
        <ele>1830.97</ele>
        <time>2015-02-28T12:33:54Z</time>
      </trkpt>
      <trkpt lat="45.42638" lon="5.93272">
        <ele>1830.01</ele>
        <time>2015-02-28T12:33:56Z</time>
      </trkpt>
      <trkpt lat="45.42641" lon="5.93275">
        <ele>1829.05</ele>
        <time>2015-02-28T12:34:02Z</time>
      </trkpt>
      <trkpt lat="45.4265" lon="5.9329">
        <ele>1826.64</ele>
        <time>2015-02-28T12:34:13Z</time>
      </trkpt>
      <trkpt lat="45.42654" lon="5.93313">
        <ele>1823.76</ele>
        <time>2015-02-28T12:34:24Z</time>
      </trkpt>
      <trkpt lat="45.42658" lon="5.93339">
        <ele>1819.91</ele>
        <time>2015-02-28T12:34:35Z</time>
      </trkpt>
      <trkpt lat="45.42664" lon="5.93349">
        <ele>1817.99</ele>
        <time>2015-02-28T12:34:45Z</time>
      </trkpt>
      <trkpt lat="45.42678" lon="5.93368">
        <ele>1820.39</ele>
        <time>2015-02-28T12:35:04Z</time>
      </trkpt>
      <trkpt lat="45.42686" lon="5.93377">
        <ele>1823.28</ele>
        <time>2015-02-28T12:35:17Z</time>
      </trkpt>
      <trkpt lat="45.42701" lon="5.93383">
        <ele>1824.72</ele>
        <time>2015-02-28T12:35:31Z</time>
      </trkpt>
      <trkpt lat="45.42712" lon="5.93386">
        <ele>1825.68</ele>
        <time>2015-02-28T12:35:41Z</time>
      </trkpt>
      <trkpt lat="45.42722" lon="5.93389">
        <ele>1826.16</ele>
        <time>2015-02-28T12:35:50Z</time>
      </trkpt>
      <trkpt lat="45.42737" lon="5.93394">
        <ele>1826.64</ele>
        <time>2015-02-28T12:36:03Z</time>
      </trkpt>
      <trkpt lat="45.42748" lon="5.93397">
        <ele>1828.56</ele>
        <time>2015-02-28T12:36:18Z</time>
      </trkpt>
      <trkpt lat="45.42764" lon="5.93403">
        <ele>1830.49</ele>
        <time>2015-02-28T12:36:34Z</time>
      </trkpt>
      <trkpt lat="45.42777" lon="5.93406">
        <ele>1831.45</ele>
        <time>2015-02-28T12:36:48Z</time>
      </trkpt>
      <trkpt lat="45.4279" lon="5.93417">
        <ele>1831.93</ele>
        <time>2015-02-28T12:37:03Z</time>
      </trkpt>
      <trkpt lat="45.42792" lon="5.9342">
        <ele>1832.41</ele>
        <time>2015-02-28T12:37:06Z</time>
      </trkpt>
      <trkpt lat="45.4281" lon="5.93428">
        <ele>1832.89</ele>
        <time>2015-02-28T12:37:22Z</time>
      </trkpt>
      <trkpt lat="45.4282" lon="5.93436">
        <ele>1832.41</ele>
        <time>2015-02-28T12:37:36Z</time>
      </trkpt>
      <trkpt lat="45.42825" lon="5.93442">
        <ele>1832.41</ele>
        <time>2015-02-28T12:37:49Z</time>
      </trkpt>
      <trkpt lat="45.42834" lon="5.93452">
        <ele>1832.89</ele>
        <time>2015-02-28T12:38:01Z</time>
      </trkpt>
      <trkpt lat="45.42842" lon="5.93459">
        <ele>1833.85</ele>
        <time>2015-02-28T12:38:10Z</time>
      </trkpt>
      <trkpt lat="45.42859" lon="5.93463">
        <ele>1832.41</ele>
        <time>2015-02-28T12:38:24Z</time>
      </trkpt>
      <trkpt lat="45.42872" lon="5.93452">
        <ele>1830.49</ele>
        <time>2015-02-28T12:38:36Z</time>
      </trkpt>
      <trkpt lat="45.42885" lon="5.9344">
        <ele>1828.56</ele>
        <time>2015-02-28T12:38:48Z</time>
      </trkpt>
      <trkpt lat="45.42887" lon="5.93441">
        <ele>1828.08</ele>
        <time>2015-02-28T12:39:05Z</time>
      </trkpt>
      <trkpt lat="45.4289" lon="5.93443">
        <ele>1827.6</ele>
        <time>2015-02-28T12:39:45Z</time>
      </trkpt>
      <trkpt lat="45.42899" lon="5.93451">
        <ele>1827.6</ele>
        <time>2015-02-28T12:39:55Z</time>
      </trkpt>
      <trkpt lat="45.42906" lon="5.93456">
        <ele>1827.12</ele>
        <time>2015-02-28T12:40:09Z</time>
      </trkpt>
      <trkpt lat="45.42907" lon="5.93456">
        <ele>1827.12</ele>
        <time>2015-02-28T12:40:10Z</time>
      </trkpt>
      <trkpt lat="45.42912" lon="5.93456">
        <ele>1826.64</ele>
        <time>2015-02-28T12:40:17Z</time>
      </trkpt>
      <trkpt lat="45.42923" lon="5.93461">
        <ele>1827.6</ele>
        <time>2015-02-28T12:40:31Z</time>
      </trkpt>
      <trkpt lat="45.4293" lon="5.93463">
        <ele>1827.6</ele>
        <time>2015-02-28T12:40:46Z</time>
      </trkpt>
      <trkpt lat="45.42926" lon="5.93462">
        <ele>1827.6</ele>
        <time>2015-02-28T12:42:19Z</time>
      </trkpt>
      <trkpt lat="45.42919" lon="5.93458">
        <ele>1827.12</ele>
        <time>2015-02-28T12:42:25Z</time>
      </trkpt>
      <trkpt lat="45.42903" lon="5.93457">
        <ele>1826.64</ele>
        <time>2015-02-28T12:42:40Z</time>
      </trkpt>
      <trkpt lat="45.42894" lon="5.93445">
        <ele>1827.12</ele>
        <time>2015-02-28T12:42:54Z</time>
      </trkpt>
      <trkpt lat="45.42894" lon="5.93445">
        <ele>1826.64</ele>
        <time>2015-02-28T12:43:24Z</time>
      </trkpt>
      <trkpt lat="45.42895" lon="5.93445">
        <ele>1827.12</ele>
        <time>2015-02-28T12:43:46Z</time>
      </trkpt>
      <trkpt lat="45.42895" lon="5.93445">
        <ele>1827.12</ele>
        <time>2015-02-28T12:44:19Z</time>
      </trkpt>
      <trkpt lat="45.42895" lon="5.93445">
        <ele>1827.12</ele>
        <time>2015-02-28T12:45:32Z</time>
      </trkpt>
      <trkpt lat="45.42897" lon="5.93443">
        <ele>1826.16</ele>
        <time>2015-02-28T12:46:09Z</time>
      </trkpt>
      <trkpt lat="45.42889" lon="5.93443">
        <ele>1825.68</ele>
        <time>2015-02-28T12:47:11Z</time>
      </trkpt>
      <trkpt lat="45.42889" lon="5.9345">
        <ele>1822.8</ele>
        <time>2015-02-28T12:47:24Z</time>
      </trkpt>
      <trkpt lat="45.42889" lon="5.93456">
        <ele>1819.43</ele>
        <time>2015-02-28T12:48:11Z</time>
      </trkpt>
      <trkpt lat="45.42889" lon="5.93458">
        <ele>1816.55</ele>
        <time>2015-02-28T12:48:22Z</time>
      </trkpt>
      <trkpt lat="45.42889" lon="5.93463">
        <ele>1813.18</ele>
        <time>2015-02-28T12:48:31Z</time>
      </trkpt>
      <trkpt lat="45.42889" lon="5.93473">
        <ele>1809.82</ele>
        <time>2015-02-28T12:48:35Z</time>
      </trkpt>
      <trkpt lat="45.42887" lon="5.93478">
        <ele>1806.45</ele>
        <time>2015-02-28T12:48:37Z</time>
      </trkpt>
      <trkpt lat="45.42886" lon="5.93484">
        <ele>1803.09</ele>
        <time>2015-02-28T12:48:40Z</time>
      </trkpt>
      <trkpt lat="45.42888" lon="5.93487">
        <ele>1800.21</ele>
        <time>2015-02-28T12:48:44Z</time>
      </trkpt>
      <trkpt lat="45.42887" lon="5.93494">
        <ele>1796.84</ele>
        <time>2015-02-28T12:48:51Z</time>
      </trkpt>
      <trkpt lat="45.42888" lon="5.93494">
        <ele>1795.4</ele>
        <time>2015-02-28T12:48:56Z</time>
      </trkpt>
      <trkpt lat="45.42888" lon="5.93496">
        <ele>1793.48</ele>
        <time>2015-02-28T12:49:12Z</time>
      </trkpt>
      <trkpt lat="45.4289" lon="5.93499">
        <ele>1790.59</ele>
        <time>2015-02-28T12:49:41Z</time>
      </trkpt>
      <trkpt lat="45.42889" lon="5.93509">
        <ele>1786.75</ele>
        <time>2015-02-28T12:49:58Z</time>
      </trkpt>
      <trkpt lat="45.42889" lon="5.93519">
        <ele>1782.9</ele>
        <time>2015-02-28T12:50:06Z</time>
      </trkpt>
      <trkpt lat="45.42886" lon="5.93529">
        <ele>1779.54</ele>
        <time>2015-02-28T12:50:08Z</time>
      </trkpt>
      <trkpt lat="45.42886" lon="5.93538">
        <ele>1777.13</ele>
        <time>2015-02-28T12:50:10Z</time>
      </trkpt>
      <trkpt lat="45.42887" lon="5.93542">
        <ele>1774.25</ele>
        <time>2015-02-28T12:50:11Z</time>
      </trkpt>
      <trkpt lat="45.42886" lon="5.93547">
        <ele>1769.44</ele>
        <time>2015-02-28T12:50:13Z</time>
      </trkpt>
      <trkpt lat="45.42885" lon="5.93546">
        <ele>1767.04</ele>
        <time>2015-02-28T12:50:16Z</time>
      </trkpt>
      <trkpt lat="45.42884" lon="5.93545">
        <ele>1767.04</ele>
        <time>2015-02-28T12:50:35Z</time>
      </trkpt>
      <trkpt lat="45.42884" lon="5.93545">
        <ele>1767.52</ele>
        <time>2015-02-28T12:51:23Z</time>
      </trkpt>
      <trkpt lat="45.42897" lon="5.93547">
        <ele>1764.16</ele>
        <time>2015-02-28T12:51:29Z</time>
      </trkpt>
      <trkpt lat="45.42899" lon="5.93547">
        <ele>1763.2</ele>
        <time>2015-02-28T12:51:30Z</time>
      </trkpt>
      <trkpt lat="45.42901" lon="5.93558">
        <ele>1757.91</ele>
        <time>2015-02-28T12:51:34Z</time>
      </trkpt>
      <trkpt lat="45.42902" lon="5.93566">
        <ele>1755.5</ele>
        <time>2015-02-28T12:51:36Z</time>
      </trkpt>
      <trkpt lat="45.42908" lon="5.93572">
        <ele>1750.7</ele>
        <time>2015-02-28T12:51:38Z</time>
      </trkpt>
      <trkpt lat="45.4291" lon="5.93573">
        <ele>1747.33</ele>
        <time>2015-02-28T12:51:40Z</time>
      </trkpt>
      <trkpt lat="45.42911" lon="5.93572">
        <ele>1745.41</ele>
        <time>2015-02-28T12:51:44Z</time>
      </trkpt>
      <trkpt lat="45.42922" lon="5.93577">
        <ele>1743.97</ele>
        <time>2015-02-28T12:51:48Z</time>
      </trkpt>
      <trkpt lat="45.42923" lon="5.93581">
        <ele>1742.53</ele>
        <time>2015-02-28T12:51:49Z</time>
      </trkpt>
      <trkpt lat="45.42917" lon="5.93598">
        <ele>1735.8</ele>
        <time>2015-02-28T12:51:52Z</time>
      </trkpt>
      <trkpt lat="45.42916" lon="5.93603">
        <ele>1732.91</ele>
        <time>2015-02-28T12:51:53Z</time>
      </trkpt>
      <trkpt lat="45.42912" lon="5.93613">
        <ele>1725.22</ele>
        <time>2015-02-28T12:51:55Z</time>
      </trkpt>
      <trkpt lat="45.42907" lon="5.93627">
        <ele>1717.05</ele>
        <time>2015-02-28T12:51:57Z</time>
      </trkpt>
      <trkpt lat="45.42905" lon="5.93642">
        <ele>1713.69</ele>
        <time>2015-02-28T12:51:59Z</time>
      </trkpt>
      <trkpt lat="45.42903" lon="5.93648">
        <ele>1709.36</ele>
        <time>2015-02-28T12:52:00Z</time>
      </trkpt>
      <trkpt lat="45.42903" lon="5.93649">
        <ele>1706</ele>
        <time>2015-02-28T12:52:01Z</time>
      </trkpt>
      <trkpt lat="45.42905" lon="5.9365">
        <ele>1702.63</ele>
        <time>2015-02-28T12:52:02Z</time>
      </trkpt>
      <trkpt lat="45.42909" lon="5.93648">
        <ele>1695.9</ele>
        <time>2015-02-28T12:52:05Z</time>
      </trkpt>
      <trkpt lat="45.4291" lon="5.93646">
        <ele>1693.98</ele>
        <time>2015-02-28T12:52:21Z</time>
      </trkpt>
      <trkpt lat="45.42915" lon="5.93644">
        <ele>1695.42</ele>
        <time>2015-02-28T12:52:31Z</time>
      </trkpt>
      <trkpt lat="45.42923" lon="5.93657">
        <ele>1692.54</ele>
        <time>2015-02-28T12:52:38Z</time>
      </trkpt>
      <trkpt lat="45.42914" lon="5.93661">
        <ele>1688.69</ele>
        <time>2015-02-28T12:52:40Z</time>
      </trkpt>
      <trkpt lat="45.42906" lon="5.93678">
        <ele>1682.44</ele>
        <time>2015-02-28T12:52:43Z</time>
      </trkpt>
      <trkpt lat="45.42902" lon="5.93682">
        <ele>1679.56</ele>
        <time>2015-02-28T12:52:44Z</time>
      </trkpt>
      <trkpt lat="45.42902" lon="5.93687">
        <ele>1676.68</ele>
        <time>2015-02-28T12:52:45Z</time>
      </trkpt>
      <trkpt lat="45.42901" lon="5.93698">
        <ele>1669.95</ele>
        <time>2015-02-28T12:52:47Z</time>
      </trkpt>
      <trkpt lat="45.42901" lon="5.93703">
        <ele>1667.06</ele>
        <time>2015-02-28T12:52:48Z</time>
      </trkpt>
      <trkpt lat="45.42895" lon="5.93712">
        <ele>1660.33</ele>
        <time>2015-02-28T12:52:50Z</time>
      </trkpt>
      <trkpt lat="45.42893" lon="5.93718">
        <ele>1660.33</ele>
        <time>2015-02-28T12:52:51Z</time>
      </trkpt>
      <trkpt lat="45.42886" lon="5.9373">
        <ele>1653.6</ele>
        <time>2015-02-28T12:52:53Z</time>
      </trkpt>
      <trkpt lat="45.42885" lon="5.93734">
        <ele>1651.2</ele>
        <time>2015-02-28T12:52:54Z</time>
      </trkpt>
      <trkpt lat="45.42889" lon="5.93743">
        <ele>1645.43</ele>
        <time>2015-02-28T12:52:56Z</time>
      </trkpt>
      <trkpt lat="45.42885" lon="5.93751">
        <ele>1637.26</ele>
        <time>2015-02-28T12:52:59Z</time>
      </trkpt>
      <trkpt lat="45.42888" lon="5.93747">
        <ele>1633.42</ele>
        <time>2015-02-28T12:53:02Z</time>
      </trkpt>
      <trkpt lat="45.42896" lon="5.93746">
        <ele>1630.53</ele>
        <time>2015-02-28T12:54:14Z</time>
      </trkpt>
      <trkpt lat="45.42897" lon="5.93748">
        <ele>1628.61</ele>
        <time>2015-02-28T12:54:16Z</time>
      </trkpt>
      <trkpt lat="45.42896" lon="5.93769">
        <ele>1623.32</ele>
        <time>2015-02-28T12:54:20Z</time>
      </trkpt>
      <trkpt lat="45.42894" lon="5.93783">
        <ele>1616.59</ele>
        <time>2015-02-28T12:54:22Z</time>
      </trkpt>
      <trkpt lat="45.42892" lon="5.93788">
        <ele>1612.27</ele>
        <time>2015-02-28T12:54:23Z</time>
      </trkpt>
      <trkpt lat="45.42888" lon="5.93789">
        <ele>1608.42</ele>
        <time>2015-02-28T12:54:24Z</time>
      </trkpt>
      <trkpt lat="45.42884" lon="5.93791">
        <ele>1605.06</ele>
        <time>2015-02-28T12:54:25Z</time>
      </trkpt>
      <trkpt lat="45.42883" lon="5.93793">
        <ele>1601.69</ele>
        <time>2015-02-28T12:54:26Z</time>
      </trkpt>
      <trkpt lat="45.42883" lon="5.93795">
        <ele>1599.29</ele>
        <time>2015-02-28T12:54:27Z</time>
      </trkpt>
      <trkpt lat="45.42879" lon="5.93803">
        <ele>1595.45</ele>
        <time>2015-02-28T12:54:30Z</time>
      </trkpt>
      <trkpt lat="45.42881" lon="5.93819">
        <ele>1588.24</ele>
        <time>2015-02-28T12:54:33Z</time>
      </trkpt>
      <trkpt lat="45.42881" lon="5.93825">
        <ele>1582.47</ele>
        <time>2015-02-28T12:54:35Z</time>
      </trkpt>
      <trkpt lat="45.42878" lon="5.93828">
        <ele>1578.14</ele>
        <time>2015-02-28T12:54:37Z</time>
      </trkpt>
      <trkpt lat="45.42877" lon="5.93828">
        <ele>1578.14</ele>
        <time>2015-02-28T12:54:38Z</time>
      </trkpt>
      <trkpt lat="45.42877" lon="5.93827">
        <ele>1575.26</ele>
        <time>2015-02-28T12:54:42Z</time>
      </trkpt>
      <trkpt lat="45.42877" lon="5.93828">
        <ele>1575.26</ele>
        <time>2015-02-28T12:54:55Z</time>
      </trkpt>
      <trkpt lat="45.4287" lon="5.93828">
        <ele>1574.3</ele>
        <time>2015-02-28T12:55:00Z</time>
      </trkpt>
      <trkpt lat="45.42865" lon="5.93841">
        <ele>1569.97</ele>
        <time>2015-02-28T12:55:04Z</time>
      </trkpt>
      <trkpt lat="45.42862" lon="5.9385">
        <ele>1565.64</ele>
        <time>2015-02-28T12:55:06Z</time>
      </trkpt>
      <trkpt lat="45.42863" lon="5.93854">
        <ele>1560.84</ele>
        <time>2015-02-28T12:55:08Z</time>
      </trkpt>
      <trkpt lat="45.42864" lon="5.93858">
        <ele>1558.92</ele>
        <time>2015-02-28T12:55:10Z</time>
      </trkpt>
      <trkpt lat="45.42864" lon="5.93856">
        <ele>1556.99</ele>
        <time>2015-02-28T12:55:13Z</time>
      </trkpt>
      <trkpt lat="45.42865" lon="5.93853">
        <ele>1556.99</ele>
        <time>2015-02-28T12:55:26Z</time>
      </trkpt>
      <trkpt lat="45.42848" lon="5.9386">
        <ele>1553.63</ele>
        <time>2015-02-28T12:55:35Z</time>
      </trkpt>
      <trkpt lat="45.42844" lon="5.93873">
        <ele>1549.78</ele>
        <time>2015-02-28T12:55:38Z</time>
      </trkpt>
      <trkpt lat="45.42837" lon="5.93874">
        <ele>1544.98</ele>
        <time>2015-02-28T12:55:40Z</time>
      </trkpt>
      <trkpt lat="45.42834" lon="5.93875">
        <ele>1544.98</ele>
        <time>2015-02-28T12:55:41Z</time>
      </trkpt>
      <trkpt lat="45.42829" lon="5.93878">
        <ele>1542.09</ele>
        <time>2015-02-28T12:55:43Z</time>
      </trkpt>
      <trkpt lat="45.42824" lon="5.9388">
        <ele>1541.13</ele>
        <time>2015-02-28T12:55:45Z</time>
      </trkpt>
      <trkpt lat="45.42816" lon="5.93892">
        <ele>1538.73</ele>
        <time>2015-02-28T12:55:55Z</time>
      </trkpt>
      <trkpt lat="45.428" lon="5.93896">
        <ele>1534.88</ele>
        <time>2015-02-28T12:56:00Z</time>
      </trkpt>
      <trkpt lat="45.42794" lon="5.939">
        <ele>1533.92</ele>
        <time>2015-02-28T12:56:02Z</time>
      </trkpt>
      <trkpt lat="45.42792" lon="5.93897">
        <ele>1532</ele>
        <time>2015-02-28T12:56:11Z</time>
      </trkpt>
      <trkpt lat="45.42773" lon="5.939">
        <ele>1529.11</ele>
        <time>2015-02-28T12:56:23Z</time>
      </trkpt>
      <trkpt lat="45.42747" lon="5.93901">
        <ele>1525.75</ele>
        <time>2015-02-28T12:56:29Z</time>
      </trkpt>
      <trkpt lat="45.42738" lon="5.93905">
        <ele>1522.39</ele>
        <time>2015-02-28T12:56:32Z</time>
      </trkpt>
      <trkpt lat="45.42737" lon="5.93912">
        <ele>1520.46</ele>
        <time>2015-02-28T12:56:35Z</time>
      </trkpt>
      <trkpt lat="45.42726" lon="5.93927">
        <ele>1515.18</ele>
        <time>2015-02-28T12:56:38Z</time>
      </trkpt>
      <trkpt lat="45.42717" lon="5.93933">
        <ele>1510.37</ele>
        <time>2015-02-28T12:56:40Z</time>
      </trkpt>
      <trkpt lat="45.42715" lon="5.93928">
        <ele>1507.48</ele>
        <time>2015-02-28T12:56:47Z</time>
      </trkpt>
      <trkpt lat="45.42716" lon="5.93928">
        <ele>1507</ele>
        <time>2015-02-28T12:57:03Z</time>
      </trkpt>
      <trkpt lat="45.4272" lon="5.93935">
        <ele>1505.56</ele>
        <time>2015-02-28T12:57:06Z</time>
      </trkpt>
      <trkpt lat="45.42723" lon="5.93941">
        <ele>1502.2</ele>
        <time>2015-02-28T12:57:08Z</time>
      </trkpt>
      <trkpt lat="45.42721" lon="5.93947">
        <ele>1498.35</ele>
        <time>2015-02-28T12:57:10Z</time>
      </trkpt>
      <trkpt lat="45.42718" lon="5.93953">
        <ele>1494.99</ele>
        <time>2015-02-28T12:57:13Z</time>
      </trkpt>
      <trkpt lat="45.42716" lon="5.93953">
        <ele>1494.03</ele>
        <time>2015-02-28T12:57:15Z</time>
      </trkpt>
      <trkpt lat="45.42712" lon="5.93971">
        <ele>1490.66</ele>
        <time>2015-02-28T12:57:20Z</time>
      </trkpt>
      <trkpt lat="45.42711" lon="5.93979">
        <ele>1486.82</ele>
        <time>2015-02-28T12:57:22Z</time>
      </trkpt>
      <trkpt lat="45.42712" lon="5.93978">
        <ele>1483.93</ele>
        <time>2015-02-28T12:57:24Z</time>
      </trkpt>
      <trkpt lat="45.4271" lon="5.93985">
        <ele>1482.01</ele>
        <time>2015-02-28T12:57:27Z</time>
      </trkpt>
      <trkpt lat="45.42708" lon="5.93996">
        <ele>1478.65</ele>
        <time>2015-02-28T12:57:31Z</time>
      </trkpt>
      <trkpt lat="45.42708" lon="5.93994">
        <ele>1475.76</ele>
        <time>2015-02-28T12:57:35Z</time>
      </trkpt>
      <trkpt lat="45.42708" lon="5.93993">
        <ele>1475.76</ele>
        <time>2015-02-28T12:57:36Z</time>
      </trkpt>
      <trkpt lat="45.42707" lon="5.93992">
        <ele>1478.65</ele>
        <time>2015-02-28T13:00:09Z</time>
      </trkpt>
      <trkpt lat="45.427" lon="5.93995">
        <ele>1480.09</ele>
        <time>2015-02-28T13:01:07Z</time>
      </trkpt>
      <trkpt lat="45.427" lon="5.93995">
        <ele>1480.09</ele>
        <time>2015-02-28T13:01:09Z</time>
      </trkpt>
      <trkpt lat="45.42694" lon="5.93996">
        <ele>1480.57</ele>
        <time>2015-02-28T13:01:20Z</time>
      </trkpt>
      <trkpt lat="45.42692" lon="5.93999">
        <ele>1481.05</ele>
        <time>2015-02-28T13:01:28Z</time>
      </trkpt>
      <trkpt lat="45.42685" lon="5.94001">
        <ele>1482.49</ele>
        <time>2015-02-28T13:01:44Z</time>
      </trkpt>
      <trkpt lat="45.4268" lon="5.94">
        <ele>1482.49</ele>
        <time>2015-02-28T13:01:57Z</time>
      </trkpt>
      <trkpt lat="45.42678" lon="5.94001">
        <ele>1483.45</ele>
        <time>2015-02-28T13:02:08Z</time>
      </trkpt>
      <trkpt lat="45.42672" lon="5.93996">
        <ele>1484.41</ele>
        <time>2015-02-28T13:02:22Z</time>
      </trkpt>
      <trkpt lat="45.42668" lon="5.93993">
        <ele>1484.89</ele>
        <time>2015-02-28T13:02:35Z</time>
      </trkpt>
      <trkpt lat="45.42667" lon="5.93993">
        <ele>1485.85</ele>
        <time>2015-02-28T13:03:00Z</time>
      </trkpt>
      <trkpt lat="45.42667" lon="5.93994">
        <ele>1485.85</ele>
        <time>2015-02-28T13:04:22Z</time>
      </trkpt>
      <trkpt lat="45.4267" lon="5.93993">
        <ele>1486.82</ele>
        <time>2015-02-28T13:06:38Z</time>
      </trkpt>
      <trkpt lat="45.42664" lon="5.93987">
        <ele>1487.3</ele>
        <time>2015-02-28T13:08:53Z</time>
      </trkpt>
      <trkpt lat="45.42662" lon="5.93983">
        <ele>1487.78</ele>
        <time>2015-02-28T13:08:56Z</time>
      </trkpt>
      <trkpt lat="45.42654" lon="5.93973">
        <ele>1489.7</ele>
        <time>2015-02-28T13:09:07Z</time>
      </trkpt>
      <trkpt lat="45.4265" lon="5.93964">
        <ele>1490.66</ele>
        <time>2015-02-28T13:09:17Z</time>
      </trkpt>
      <trkpt lat="45.4265" lon="5.93963">
        <ele>1490.66</ele>
        <time>2015-02-28T13:09:18Z</time>
      </trkpt>
      <trkpt lat="45.42642" lon="5.93953">
        <ele>1491.62</ele>
        <time>2015-02-28T13:09:32Z</time>
      </trkpt>
      <trkpt lat="45.42641" lon="5.93952">
        <ele>1491.62</ele>
        <time>2015-02-28T13:09:33Z</time>
      </trkpt>
      <trkpt lat="45.42638" lon="5.93943">
        <ele>1492.58</ele>
        <time>2015-02-28T13:09:44Z</time>
      </trkpt>
      <trkpt lat="45.42638" lon="5.93942">
        <ele>1493.06</ele>
        <time>2015-02-28T13:09:58Z</time>
      </trkpt>
      <trkpt lat="45.42637" lon="5.93943">
        <ele>1493.06</ele>
        <time>2015-02-28T13:10:45Z</time>
      </trkpt>
      <trkpt lat="45.42614" lon="5.93931">
        <ele>1490.66</ele>
        <time>2015-02-28T13:11:41Z</time>
      </trkpt>
      <trkpt lat="45.42591" lon="5.93925">
        <ele>1488.26</ele>
        <time>2015-02-28T13:11:45Z</time>
      </trkpt>
      <trkpt lat="45.42556" lon="5.93926">
        <ele>1484.41</ele>
        <time>2015-02-28T13:11:50Z</time>
      </trkpt>
      <trkpt lat="45.42533" lon="5.93926">
        <ele>1481.05</ele>
        <time>2015-02-28T13:11:53Z</time>
      </trkpt>
      <trkpt lat="45.4251" lon="5.93925">
        <ele>1478.65</ele>
        <time>2015-02-28T13:11:56Z</time>
      </trkpt>
      <trkpt lat="45.42486" lon="5.93921">
        <ele>1475.28</ele>
        <time>2015-02-28T13:11:59Z</time>
      </trkpt>
      <trkpt lat="45.42462" lon="5.93915">
        <ele>1471.92</ele>
        <time>2015-02-28T13:12:02Z</time>
      </trkpt>
      <trkpt lat="45.42439" lon="5.93907">
        <ele>1468.55</ele>
        <time>2015-02-28T13:12:05Z</time>
      </trkpt>
      <trkpt lat="45.42431" lon="5.93904">
        <ele>1468.55</ele>
        <time>2015-02-28T13:12:06Z</time>
      </trkpt>
      <trkpt lat="45.42407" lon="5.93892">
        <ele>1464.71</ele>
        <time>2015-02-28T13:12:09Z</time>
      </trkpt>
      <trkpt lat="45.42384" lon="5.93876">
        <ele>1460.38</ele>
        <time>2015-02-28T13:12:12Z</time>
      </trkpt>
      <trkpt lat="45.42362" lon="5.93856">
        <ele>1456.05</ele>
        <time>2015-02-28T13:12:15Z</time>
      </trkpt>
      <trkpt lat="45.42354" lon="5.9385">
        <ele>1456.05</ele>
        <time>2015-02-28T13:12:16Z</time>
      </trkpt>
      <trkpt lat="45.42346" lon="5.93844">
        <ele>1455.09</ele>
        <time>2015-02-28T13:12:17Z</time>
      </trkpt>
      <trkpt lat="45.4231" lon="5.93838">
        <ele>1449.81</ele>
        <time>2015-02-28T13:12:21Z</time>
      </trkpt>
      <trkpt lat="45.42275" lon="5.93845">
        <ele>1444.04</ele>
        <time>2015-02-28T13:12:25Z</time>
      </trkpt>
      <trkpt lat="45.42257" lon="5.93845">
        <ele>1443.08</ele>
        <time>2015-02-28T13:12:27Z</time>
      </trkpt>
      <trkpt lat="45.42231" lon="5.93835">
        <ele>1439.23</ele>
        <time>2015-02-28T13:12:30Z</time>
      </trkpt>
      <trkpt lat="45.42207" lon="5.93818">
        <ele>1434.42</ele>
        <time>2015-02-28T13:12:33Z</time>
      </trkpt>
      <trkpt lat="45.42192" lon="5.93807">
        <ele>1430.58</ele>
        <time>2015-02-28T13:12:35Z</time>
      </trkpt>
      <trkpt lat="45.42185" lon="5.938">
        <ele>1430.58</ele>
        <time>2015-02-28T13:12:36Z</time>
      </trkpt>
      <trkpt lat="45.42171" lon="5.93789">
        <ele>1427.7</ele>
        <time>2015-02-28T13:12:38Z</time>
      </trkpt>
      <trkpt lat="45.42141" lon="5.93776">
        <ele>1422.89</ele>
        <time>2015-02-28T13:12:42Z</time>
      </trkpt>
      <trkpt lat="45.42121" lon="5.93767">
        <ele>1419.52</ele>
        <time>2015-02-28T13:12:45Z</time>
      </trkpt>
      <trkpt lat="45.42108" lon="5.9376">
        <ele>1418.56</ele>
        <time>2015-02-28T13:12:47Z</time>
      </trkpt>
      <trkpt lat="45.42081" lon="5.9376">
        <ele>1414.24</ele>
        <time>2015-02-28T13:12:52Z</time>
      </trkpt>
      <trkpt lat="45.42045" lon="5.93761">
        <ele>1410.39</ele>
        <time>2015-02-28T13:12:58Z</time>
      </trkpt>
      <trkpt lat="45.42013" lon="5.93756">
        <ele>1407.03</ele>
        <time>2015-02-28T13:13:03Z</time>
      </trkpt>
      <trkpt lat="45.42" lon="5.93753">
        <ele>1405.58</ele>
        <time>2015-02-28T13:13:05Z</time>
      </trkpt>
      <trkpt lat="45.41987" lon="5.93747">
        <ele>1404.62</ele>
        <time>2015-02-28T13:13:07Z</time>
      </trkpt>
      <trkpt lat="45.41964" lon="5.93724">
        <ele>1401.26</ele>
        <time>2015-02-28T13:13:11Z</time>
      </trkpt>
      <trkpt lat="45.4196" lon="5.93717">
        <ele>1400.3</ele>
        <time>2015-02-28T13:13:12Z</time>
      </trkpt>
      <trkpt lat="45.4195" lon="5.93703">
        <ele>1396.45</ele>
        <time>2015-02-28T13:13:17Z</time>
      </trkpt>
      <trkpt lat="45.41949" lon="5.93704">
        <ele>1393.09</ele>
        <time>2015-02-28T13:13:39Z</time>
      </trkpt>
      <trkpt lat="45.41941" lon="5.93714">
        <ele>1389.72</ele>
        <time>2015-02-28T13:13:42Z</time>
      </trkpt>
      <trkpt lat="45.41938" lon="5.93722">
        <ele>1385.88</ele>
        <time>2015-02-28T13:13:44Z</time>
      </trkpt>
      <trkpt lat="45.41936" lon="5.93734">
        <ele>1381.55</ele>
        <time>2015-02-28T13:13:46Z</time>
      </trkpt>
      <trkpt lat="45.41936" lon="5.93741">
        <ele>1379.15</ele>
        <time>2015-02-28T13:13:48Z</time>
      </trkpt>
      <trkpt lat="45.41936" lon="5.93746">
        <ele>1375.78</ele>
        <time>2015-02-28T13:13:50Z</time>
      </trkpt>
      <trkpt lat="45.41935" lon="5.93748">
        <ele>1371.94</ele>
        <time>2015-02-28T13:13:52Z</time>
      </trkpt>
      <trkpt lat="45.4194" lon="5.9376">
        <ele>1369.05</ele>
        <time>2015-02-28T13:14:00Z</time>
      </trkpt>
      <trkpt lat="45.4194" lon="5.93765">
        <ele>1365.69</ele>
        <time>2015-02-28T13:14:08Z</time>
      </trkpt>
      <trkpt lat="45.41938" lon="5.93772">
        <ele>1365.69</ele>
        <time>2015-02-28T13:14:16Z</time>
      </trkpt>
      <trkpt lat="45.41937" lon="5.93776">
        <ele>1363.29</ele>
        <time>2015-02-28T13:14:31Z</time>
      </trkpt>
      <trkpt lat="45.41936" lon="5.93776">
        <ele>1363.29</ele>
        <time>2015-02-28T13:15:00Z</time>
      </trkpt>
      <trkpt lat="45.41931" lon="5.93769">
        <ele>1363.29</ele>
        <time>2015-02-28T13:15:39Z</time>
      </trkpt>
      <trkpt lat="45.41925" lon="5.93764">
        <ele>1363.77</ele>
        <time>2015-02-28T13:15:45Z</time>
      </trkpt>
      <trkpt lat="45.41913" lon="5.93762">
        <ele>1364.73</ele>
        <time>2015-02-28T13:16:00Z</time>
      </trkpt>
      <trkpt lat="45.41914" lon="5.93759">
        <ele>1363.77</ele>
        <time>2015-02-28T13:16:27Z</time>
      </trkpt>
      <trkpt lat="45.41912" lon="5.93761">
        <ele>1364.25</ele>
        <time>2015-02-28T13:16:31Z</time>
      </trkpt>
      <trkpt lat="45.41891" lon="5.93769">
        <ele>1365.69</ele>
        <time>2015-02-28T13:16:48Z</time>
      </trkpt>
      <trkpt lat="45.41881" lon="5.93767">
        <ele>1365.69</ele>
        <time>2015-02-28T13:16:56Z</time>
      </trkpt>
      <trkpt lat="45.41865" lon="5.93764">
        <ele>1366.17</ele>
        <time>2015-02-28T13:17:11Z</time>
      </trkpt>
      <trkpt lat="45.41849" lon="5.93763">
        <ele>1367.13</ele>
        <time>2015-02-28T13:17:28Z</time>
      </trkpt>
      <trkpt lat="45.41833" lon="5.93766">
        <ele>1367.61</ele>
        <time>2015-02-28T13:17:45Z</time>
      </trkpt>
      <trkpt lat="45.41814" lon="5.93771">
        <ele>1368.09</ele>
        <time>2015-02-28T13:18:03Z</time>
      </trkpt>
      <trkpt lat="45.41796" lon="5.93772">
        <ele>1369.05</ele>
        <time>2015-02-28T13:18:18Z</time>
      </trkpt>
      <trkpt lat="45.41779" lon="5.93769">
        <ele>1369.05</ele>
        <time>2015-02-28T13:18:33Z</time>
      </trkpt>
      <trkpt lat="45.41758" lon="5.93759">
        <ele>1369.54</ele>
        <time>2015-02-28T13:18:48Z</time>
      </trkpt>
      <trkpt lat="45.41741" lon="5.93749">
        <ele>1369.54</ele>
        <time>2015-02-28T13:19:00Z</time>
      </trkpt>
      <trkpt lat="45.41736" lon="5.93741">
        <ele>1370.02</ele>
        <time>2015-02-28T13:19:13Z</time>
      </trkpt>
      <trkpt lat="45.41722" lon="5.93726">
        <ele>1369.54</ele>
        <time>2015-02-28T13:19:53Z</time>
      </trkpt>
      <trkpt lat="45.41687" lon="5.93708">
        <ele>1366.17</ele>
        <time>2015-02-28T13:20:01Z</time>
      </trkpt>
      <trkpt lat="45.41682" lon="5.93706">
        <ele>1365.69</ele>
        <time>2015-02-28T13:20:02Z</time>
      </trkpt>
      <trkpt lat="45.41646" lon="5.93701">
        <ele>1361.84</ele>
        <time>2015-02-28T13:20:08Z</time>
      </trkpt>
      <trkpt lat="45.41634" lon="5.937">
        <ele>1360.88</ele>
        <time>2015-02-28T13:20:10Z</time>
      </trkpt>
      <trkpt lat="45.4161" lon="5.93695">
        <ele>1357.04</ele>
        <time>2015-02-28T13:20:14Z</time>
      </trkpt>
      <trkpt lat="45.41584" lon="5.93687">
        <ele>1353.19</ele>
        <time>2015-02-28T13:20:18Z</time>
      </trkpt>
      <trkpt lat="45.41571" lon="5.93682">
        <ele>1352.23</ele>
        <time>2015-02-28T13:20:20Z</time>
      </trkpt>
      <trkpt lat="45.41546" lon="5.93679">
        <ele>1348.87</ele>
        <time>2015-02-28T13:20:24Z</time>
      </trkpt>
      <trkpt lat="45.41515" lon="5.93676">
        <ele>1345.5</ele>
        <time>2015-02-28T13:20:29Z</time>
      </trkpt>
      <trkpt lat="45.41509" lon="5.93674">
        <ele>1345.02</ele>
        <time>2015-02-28T13:20:30Z</time>
      </trkpt>
      <trkpt lat="45.41477" lon="5.93661">
        <ele>1341.66</ele>
        <time>2015-02-28T13:20:35Z</time>
      </trkpt>
      <trkpt lat="45.4147" lon="5.93658">
        <ele>1340.7</ele>
        <time>2015-02-28T13:20:36Z</time>
      </trkpt>
      <trkpt lat="45.41442" lon="5.9365">
        <ele>1338.29</ele>
        <time>2015-02-28T13:20:40Z</time>
      </trkpt>
      <trkpt lat="45.41428" lon="5.93644">
        <ele>1336.37</ele>
        <time>2015-02-28T13:20:42Z</time>
      </trkpt>
      <trkpt lat="45.41401" lon="5.93629">
        <ele>1332.04</ele>
        <time>2015-02-28T13:20:46Z</time>
      </trkpt>
      <trkpt lat="45.41381" lon="5.93617">
        <ele>1328.68</ele>
        <time>2015-02-28T13:20:49Z</time>
      </trkpt>
      <trkpt lat="45.41374" lon="5.93613">
        <ele>1328.68</ele>
        <time>2015-02-28T13:20:50Z</time>
      </trkpt>
      <trkpt lat="45.41353" lon="5.93603">
        <ele>1325.31</ele>
        <time>2015-02-28T13:20:53Z</time>
      </trkpt>
      <trkpt lat="45.41323" lon="5.9358">
        <ele>1320.99</ele>
        <time>2015-02-28T13:20:58Z</time>
      </trkpt>
      <trkpt lat="45.4131" lon="5.93571">
        <ele>1319.07</ele>
        <time>2015-02-28T13:21:00Z</time>
      </trkpt>
      <trkpt lat="45.41277" lon="5.9356">
        <ele>1315.7</ele>
        <time>2015-02-28T13:21:05Z</time>
      </trkpt>
      <trkpt lat="45.41257" lon="5.93555">
        <ele>1312.82</ele>
        <time>2015-02-28T13:21:08Z</time>
      </trkpt>
      <trkpt lat="45.41235" lon="5.93558">
        <ele>1310.41</ele>
        <time>2015-02-28T13:21:11Z</time>
      </trkpt>
      <trkpt lat="45.41228" lon="5.93561">
        <ele>1309.45</ele>
        <time>2015-02-28T13:21:12Z</time>
      </trkpt>
      <trkpt lat="45.41199" lon="5.9357">
        <ele>1305.61</ele>
        <time>2015-02-28T13:21:16Z</time>
      </trkpt>
      <trkpt lat="45.41171" lon="5.93565">
        <ele>1301.76</ele>
        <time>2015-02-28T13:21:20Z</time>
      </trkpt>
      <trkpt lat="45.41137" lon="5.93548">
        <ele>1297.92</ele>
        <time>2015-02-28T13:21:25Z</time>
      </trkpt>
      <trkpt lat="45.41103" lon="5.93547">
        <ele>1293.11</ele>
        <time>2015-02-28T13:21:30Z</time>
      </trkpt>
      <trkpt lat="45.41097" lon="5.93546">
        <ele>1293.11</ele>
        <time>2015-02-28T13:21:31Z</time>
      </trkpt>
      <trkpt lat="45.4109" lon="5.93544">
        <ele>1292.15</ele>
        <time>2015-02-28T13:21:32Z</time>
      </trkpt>
      <trkpt lat="45.41056" lon="5.93531">
        <ele>1287.34</ele>
        <time>2015-02-28T13:21:37Z</time>
      </trkpt>
      <trkpt lat="45.41042" lon="5.93526">
        <ele>1285.42</ele>
        <time>2015-02-28T13:21:39Z</time>
      </trkpt>
      <trkpt lat="45.41014" lon="5.93527">
        <ele>1282.54</ele>
        <time>2015-02-28T13:21:43Z</time>
      </trkpt>
      <trkpt lat="45.41007" lon="5.9353">
        <ele>1281.09</ele>
        <time>2015-02-28T13:21:44Z</time>
      </trkpt>
      <trkpt lat="45.40984" lon="5.93542">
        <ele>1276.77</ele>
        <time>2015-02-28T13:21:48Z</time>
      </trkpt>
      <trkpt lat="45.40974" lon="5.93546">
        <ele>1275.81</ele>
        <time>2015-02-28T13:21:50Z</time>
      </trkpt>
      <trkpt lat="45.4095" lon="5.93539">
        <ele>1272.44</ele>
        <time>2015-02-28T13:21:54Z</time>
      </trkpt>
      <trkpt lat="45.40926" lon="5.93513">
        <ele>1269.08</ele>
        <time>2015-02-28T13:21:58Z</time>
      </trkpt>
      <trkpt lat="45.40921" lon="5.93505">
        <ele>1268.12</ele>
        <time>2015-02-28T13:21:59Z</time>
      </trkpt>
      <trkpt lat="45.40905" lon="5.93469">
        <ele>1265.23</ele>
        <time>2015-02-28T13:22:03Z</time>
      </trkpt>
      <trkpt lat="45.40884" lon="5.9344">
        <ele>1260.91</ele>
        <time>2015-02-28T13:22:08Z</time>
      </trkpt>
      <trkpt lat="45.40867" lon="5.93432">
        <ele>1258.98</ele>
        <time>2015-02-28T13:22:11Z</time>
      </trkpt>
      <trkpt lat="45.40837" lon="5.93411">
        <ele>1255.62</ele>
        <time>2015-02-28T13:22:16Z</time>
      </trkpt>
      <trkpt lat="45.40815" lon="5.93389">
        <ele>1252.74</ele>
        <time>2015-02-28T13:22:20Z</time>
      </trkpt>
      <trkpt lat="45.40803" lon="5.93379">
        <ele>1251.29</ele>
        <time>2015-02-28T13:22:22Z</time>
      </trkpt>
      <trkpt lat="45.40768" lon="5.93362">
        <ele>1246.97</ele>
        <time>2015-02-28T13:22:27Z</time>
      </trkpt>
      <trkpt lat="45.40745" lon="5.93352">
        <ele>1243.6</ele>
        <time>2015-02-28T13:22:30Z</time>
      </trkpt>
      <trkpt lat="45.40718" lon="5.93334">
        <ele>1240.72</ele>
        <time>2015-02-28T13:22:34Z</time>
      </trkpt>
      <trkpt lat="45.40692" lon="5.93311">
        <ele>1236.87</ele>
        <time>2015-02-28T13:22:38Z</time>
      </trkpt>
      <trkpt lat="45.40673" lon="5.93294">
        <ele>1233.51</ele>
        <time>2015-02-28T13:22:41Z</time>
      </trkpt>
      <trkpt lat="45.40649" lon="5.93274">
        <ele>1230.14</ele>
        <time>2015-02-28T13:22:45Z</time>
      </trkpt>
      <trkpt lat="45.40644" lon="5.93269">
        <ele>1230.14</ele>
        <time>2015-02-28T13:22:46Z</time>
      </trkpt>
      <trkpt lat="45.40639" lon="5.93264">
        <ele>1229.18</ele>
        <time>2015-02-28T13:22:47Z</time>
      </trkpt>
      <trkpt lat="45.40627" lon="5.93276">
        <ele>1225.34</ele>
        <time>2015-02-28T13:22:52Z</time>
      </trkpt>
      <trkpt lat="45.4063" lon="5.93282">
        <ele>1224.86</ele>
        <time>2015-02-28T13:22:53Z</time>
      </trkpt>
      <trkpt lat="45.40642" lon="5.93304">
        <ele>1221.97</ele>
        <time>2015-02-28T13:22:57Z</time>
      </trkpt>
      <trkpt lat="45.4066" lon="5.93342">
        <ele>1218.61</ele>
        <time>2015-02-28T13:23:02Z</time>
      </trkpt>
      <trkpt lat="45.40676" lon="5.93376">
        <ele>1215.24</ele>
        <time>2015-02-28T13:23:06Z</time>
      </trkpt>
      <trkpt lat="45.4069" lon="5.93403">
        <ele>1213.32</ele>
        <time>2015-02-28T13:23:09Z</time>
      </trkpt>
      <trkpt lat="45.40695" lon="5.93412">
        <ele>1211.88</ele>
        <time>2015-02-28T13:23:10Z</time>
      </trkpt>
      <trkpt lat="45.40725" lon="5.93452">
        <ele>1207.07</ele>
        <time>2015-02-28T13:23:15Z</time>
      </trkpt>
      <trkpt lat="45.40742" lon="5.93471">
        <ele>1203.71</ele>
        <time>2015-02-28T13:23:18Z</time>
      </trkpt>
      <trkpt lat="45.40755" lon="5.93495">
        <ele>1201.3</ele>
        <time>2015-02-28T13:23:21Z</time>
      </trkpt>
      <trkpt lat="45.40766" lon="5.93519">
        <ele>1197.94</ele>
        <time>2015-02-28T13:23:24Z</time>
      </trkpt>
      <trkpt lat="45.40778" lon="5.93544">
        <ele>1195.06</ele>
        <time>2015-02-28T13:23:27Z</time>
      </trkpt>
      <trkpt lat="45.408" lon="5.93568">
        <ele>1192.17</ele>
        <time>2015-02-28T13:23:31Z</time>
      </trkpt>
      <trkpt lat="45.40806" lon="5.93575">
        <ele>1190.73</ele>
        <time>2015-02-28T13:23:32Z</time>
      </trkpt>
      <trkpt lat="45.4082" lon="5.93622">
        <ele>1185.92</ele>
        <time>2015-02-28T13:23:37Z</time>
      </trkpt>
      <trkpt lat="45.40826" lon="5.93642">
        <ele>1184</ele>
        <time>2015-02-28T13:23:39Z</time>
      </trkpt>
      <trkpt lat="45.40837" lon="5.93669">
        <ele>1182.08</ele>
        <time>2015-02-28T13:23:42Z</time>
      </trkpt>
      <trkpt lat="45.40842" lon="5.93678">
        <ele>1180.64</ele>
        <time>2015-02-28T13:23:43Z</time>
      </trkpt>
      <trkpt lat="45.40876" lon="5.93705">
        <ele>1175.83</ele>
        <time>2015-02-28T13:23:48Z</time>
      </trkpt>
      <trkpt lat="45.40897" lon="5.93722">
        <ele>1172.47</ele>
        <time>2015-02-28T13:23:51Z</time>
      </trkpt>
      <trkpt lat="45.40911" lon="5.93733">
        <ele>1171.02</ele>
        <time>2015-02-28T13:23:53Z</time>
      </trkpt>
      <trkpt lat="45.40934" lon="5.93748">
        <ele>1167.18</ele>
        <time>2015-02-28T13:23:56Z</time>
      </trkpt>
      <trkpt lat="45.40959" lon="5.93779">
        <ele>1161.89</ele>
        <time>2015-02-28T13:24:00Z</time>
      </trkpt>
      <trkpt lat="45.40981" lon="5.9381">
        <ele>1159.01</ele>
        <time>2015-02-28T13:24:04Z</time>
      </trkpt>
      <trkpt lat="45.40998" lon="5.93832">
        <ele>1155.64</ele>
        <time>2015-02-28T13:24:07Z</time>
      </trkpt>
      <trkpt lat="45.41016" lon="5.93856">
        <ele>1152.28</ele>
        <time>2015-02-28T13:24:10Z</time>
      </trkpt>
      <trkpt lat="45.41034" lon="5.93881">
        <ele>1148.91</ele>
        <time>2015-02-28T13:24:13Z</time>
      </trkpt>
      <trkpt lat="45.41047" lon="5.93894">
        <ele>1147.47</ele>
        <time>2015-02-28T13:24:15Z</time>
      </trkpt>
      <trkpt lat="45.41074" lon="5.93921">
        <ele>1142.66</ele>
        <time>2015-02-28T13:24:19Z</time>
      </trkpt>
      <trkpt lat="45.4108" lon="5.93926">
        <ele>1141.7</ele>
        <time>2015-02-28T13:24:20Z</time>
      </trkpt>
      <trkpt lat="45.41102" lon="5.93936">
        <ele>1138.34</ele>
        <time>2015-02-28T13:24:23Z</time>
      </trkpt>
      <trkpt lat="45.41114" lon="5.93948">
        <ele>1135.94</ele>
        <time>2015-02-28T13:24:25Z</time>
      </trkpt>
      <trkpt lat="45.41127" lon="5.93983">
        <ele>1132.57</ele>
        <time>2015-02-28T13:24:29Z</time>
      </trkpt>
      <trkpt lat="45.41147" lon="5.94015">
        <ele>1127.76</ele>
        <time>2015-02-28T13:24:33Z</time>
      </trkpt>
      <trkpt lat="45.41163" lon="5.9404">
        <ele>1125.84</ele>
        <time>2015-02-28T13:24:36Z</time>
      </trkpt>
      <trkpt lat="45.41177" lon="5.94065">
        <ele>1122.48</ele>
        <time>2015-02-28T13:24:39Z</time>
      </trkpt>
      <trkpt lat="45.41193" lon="5.94085">
        <ele>1118.63</ele>
        <time>2015-02-28T13:24:42Z</time>
      </trkpt>
      <trkpt lat="45.41217" lon="5.94105">
        <ele>1114.31</ele>
        <time>2015-02-28T13:24:46Z</time>
      </trkpt>
      <trkpt lat="45.41224" lon="5.9411">
        <ele>1114.31</ele>
        <time>2015-02-28T13:24:47Z</time>
      </trkpt>
      <trkpt lat="45.41251" lon="5.94121">
        <ele>1110.94</ele>
        <time>2015-02-28T13:24:51Z</time>
      </trkpt>
      <trkpt lat="45.41259" lon="5.94122">
        <ele>1109.98</ele>
        <time>2015-02-28T13:24:52Z</time>
      </trkpt>
      <trkpt lat="45.41288" lon="5.94137">
        <ele>1105.65</ele>
        <time>2015-02-28T13:24:56Z</time>
      </trkpt>
      <trkpt lat="45.41303" lon="5.94147">
        <ele>1104.21</ele>
        <time>2015-02-28T13:24:58Z</time>
      </trkpt>
      <trkpt lat="45.41317" lon="5.94158">
        <ele>1101.81</ele>
        <time>2015-02-28T13:25:00Z</time>
      </trkpt>
      <trkpt lat="45.41339" lon="5.94172">
        <ele>1098.44</ele>
        <time>2015-02-28T13:25:03Z</time>
      </trkpt>
      <trkpt lat="45.41361" lon="5.94184">
        <ele>1095.08</ele>
        <time>2015-02-28T13:25:06Z</time>
      </trkpt>
      <trkpt lat="45.41374" lon="5.94197">
        <ele>1093.64</ele>
        <time>2015-02-28T13:25:08Z</time>
      </trkpt>
      <trkpt lat="45.41385" lon="5.94226">
        <ele>1090.27</ele>
        <time>2015-02-28T13:25:11Z</time>
      </trkpt>
      <trkpt lat="45.41389" lon="5.94246">
        <ele>1088.35</ele>
        <time>2015-02-28T13:25:13Z</time>
      </trkpt>
      <trkpt lat="45.41406" lon="5.94283">
        <ele>1084.02</ele>
        <time>2015-02-28T13:25:17Z</time>
      </trkpt>
      <trkpt lat="45.41417" lon="5.94298">
        <ele>1083.06</ele>
        <time>2015-02-28T13:25:19Z</time>
      </trkpt>
      <trkpt lat="45.41443" lon="5.94325">
        <ele>1077.78</ele>
        <time>2015-02-28T13:25:23Z</time>
      </trkpt>
      <trkpt lat="45.41449" lon="5.94332">
        <ele>1076.33</ele>
        <time>2015-02-28T13:25:24Z</time>
      </trkpt>
      <trkpt lat="45.41462" lon="5.94342">
        <ele>1074.41</ele>
        <time>2015-02-28T13:25:26Z</time>
      </trkpt>
      <trkpt lat="45.41492" lon="5.9435">
        <ele>1071.05</ele>
        <time>2015-02-28T13:25:30Z</time>
      </trkpt>
      <trkpt lat="45.41518" lon="5.94373">
        <ele>1066.24</ele>
        <time>2015-02-28T13:25:34Z</time>
      </trkpt>
      <trkpt lat="45.41523" lon="5.94379">
        <ele>1065.28</ele>
        <time>2015-02-28T13:25:35Z</time>
      </trkpt>
      <trkpt lat="45.41544" lon="5.94407">
        <ele>1060.95</ele>
        <time>2015-02-28T13:25:39Z</time>
      </trkpt>
      <trkpt lat="45.41558" lon="5.94429">
        <ele>1059.03</ele>
        <time>2015-02-28T13:25:42Z</time>
      </trkpt>
      <trkpt lat="45.41564" lon="5.94436">
        <ele>1058.07</ele>
        <time>2015-02-28T13:25:43Z</time>
      </trkpt>
      <trkpt lat="45.41581" lon="5.9445">
        <ele>1055.18</ele>
        <time>2015-02-28T13:25:46Z</time>
      </trkpt>
      <trkpt lat="45.41596" lon="5.94479">
        <ele>1051.34</ele>
        <time>2015-02-28T13:25:50Z</time>
      </trkpt>
      <trkpt lat="45.41598" lon="5.94497">
        <ele>1050.38</ele>
        <time>2015-02-28T13:25:52Z</time>
      </trkpt>
      <trkpt lat="45.41593" lon="5.9452">
        <ele>1047.97</ele>
        <time>2015-02-28T13:25:55Z</time>
      </trkpt>
      <trkpt lat="45.41581" lon="5.94532">
        <ele>1044.13</ele>
        <time>2015-02-28T13:26:03Z</time>
      </trkpt>
      <trkpt lat="45.41581" lon="5.94528">
        <ele>1044.13</ele>
        <time>2015-02-28T13:26:04Z</time>
      </trkpt>
      <trkpt lat="45.41574" lon="5.94492">
        <ele>1040.28</ele>
        <time>2015-02-28T13:26:14Z</time>
      </trkpt>
      <trkpt lat="45.41567" lon="5.9449">
        <ele>1039.8</ele>
        <time>2015-02-28T13:26:16Z</time>
      </trkpt>
      <trkpt lat="45.41536" lon="5.94509">
        <ele>1035.96</ele>
        <time>2015-02-28T13:26:23Z</time>
      </trkpt>
      <trkpt lat="45.41505" lon="5.94527">
        <ele>1032.59</ele>
        <time>2015-02-28T13:26:29Z</time>
      </trkpt>
      <trkpt lat="45.4147" lon="5.94523">
        <ele>1028.27</ele>
        <time>2015-02-28T13:26:35Z</time>
      </trkpt>
      <trkpt lat="45.41464" lon="5.9452">
        <ele>1028.27</ele>
        <time>2015-02-28T13:26:36Z</time>
      </trkpt>
      <trkpt lat="45.4144" lon="5.94508">
        <ele>1024.9</ele>
        <time>2015-02-28T13:26:40Z</time>
      </trkpt>
      <trkpt lat="45.41423" lon="5.94501">
        <ele>1022.5</ele>
        <time>2015-02-28T13:26:43Z</time>
      </trkpt>
      <trkpt lat="45.41399" lon="5.94496">
        <ele>1020.1</ele>
        <time>2015-02-28T13:26:47Z</time>
      </trkpt>
      <trkpt lat="45.41386" lon="5.94495">
        <ele>1018.17</ele>
        <time>2015-02-28T13:26:49Z</time>
      </trkpt>
      <trkpt lat="45.4136" lon="5.94497">
        <ele>1013.85</ele>
        <time>2015-02-28T13:26:53Z</time>
      </trkpt>
      <trkpt lat="45.41333" lon="5.94494">
        <ele>1011.44</ele>
        <time>2015-02-28T13:26:57Z</time>
      </trkpt>
      <trkpt lat="45.413" lon="5.94483">
        <ele>1007.6</ele>
        <time>2015-02-28T13:27:02Z</time>
      </trkpt>
      <trkpt lat="45.41268" lon="5.94471">
        <ele>1003.27</ele>
        <time>2015-02-28T13:27:07Z</time>
      </trkpt>
      <trkpt lat="45.41262" lon="5.9447">
        <ele>1002.31</ele>
        <time>2015-02-28T13:27:08Z</time>
      </trkpt>
      <trkpt lat="45.41241" lon="5.94472">
        <ele>1000.39</ele>
        <time>2015-02-28T13:27:11Z</time>
      </trkpt>
      <trkpt lat="45.41208" lon="5.94497">
        <ele>996.06</ele>
        <time>2015-02-28T13:27:17Z</time>
      </trkpt>
      <trkpt lat="45.41174" lon="5.94534">
        <ele>992.22</ele>
        <time>2015-02-28T13:27:23Z</time>
      </trkpt>
      <trkpt lat="45.41167" lon="5.94539">
        <ele>991.74</ele>
        <time>2015-02-28T13:27:24Z</time>
      </trkpt>
      <trkpt lat="45.41144" lon="5.94542">
        <ele>988.85</ele>
        <time>2015-02-28T13:27:28Z</time>
      </trkpt>
      <trkpt lat="45.41092" lon="5.94532">
        <ele>985.01</ele>
        <time>2015-02-28T13:27:38Z</time>
      </trkpt>
      <trkpt lat="45.41068" lon="5.9453">
        <ele>982.6</ele>
        <time>2015-02-28T13:27:42Z</time>
      </trkpt>
      <trkpt lat="45.41037" lon="5.94523">
        <ele>979.72</ele>
        <time>2015-02-28T13:27:49Z</time>
      </trkpt>
      <trkpt lat="45.41002" lon="5.94523">
        <ele>976.84</ele>
        <time>2015-02-28T13:28:01Z</time>
      </trkpt>
      <trkpt lat="45.40978" lon="5.94515">
        <ele>974.91</ele>
        <time>2015-02-28T13:28:10Z</time>
      </trkpt>
      <trkpt lat="45.40964" lon="5.94515">
        <ele>972.99</ele>
        <time>2015-02-28T13:28:19Z</time>
      </trkpt>
      <trkpt lat="45.40957" lon="5.94518">
        <ele>972.51</ele>
        <time>2015-02-28T13:28:23Z</time>
      </trkpt>
      <trkpt lat="45.40926" lon="5.94529">
        <ele>969.63</ele>
        <time>2015-02-28T13:28:30Z</time>
      </trkpt>
      <trkpt lat="45.40912" lon="5.9453">
        <ele>968.18</ele>
        <time>2015-02-28T13:28:33Z</time>
      </trkpt>
      <trkpt lat="45.409" lon="5.94539">
        <ele>966.74</ele>
        <time>2015-02-28T13:28:36Z</time>
      </trkpt>
      <trkpt lat="45.4089" lon="5.94548">
        <ele>963.38</ele>
        <time>2015-02-28T13:28:40Z</time>
      </trkpt>
      <trkpt lat="45.40889" lon="5.94554">
        <ele>961.46</ele>
        <time>2015-02-28T13:28:43Z</time>
      </trkpt>
      <trkpt lat="45.40877" lon="5.94554">
        <ele>960.01</ele>
        <time>2015-02-28T13:28:47Z</time>
      </trkpt>
      <trkpt lat="45.40851" lon="5.94561">
        <ele>956.65</ele>
        <time>2015-02-28T13:28:55Z</time>
      </trkpt>
      <trkpt lat="45.40828" lon="5.94564">
        <ele>953.28</ele>
        <time>2015-02-28T13:29:03Z</time>
      </trkpt>
      <trkpt lat="45.40801" lon="5.94552">
        <ele>949.92</ele>
        <time>2015-02-28T13:29:11Z</time>
      </trkpt>
      <trkpt lat="45.40782" lon="5.94551">
        <ele>946.56</ele>
        <time>2015-02-28T13:29:16Z</time>
      </trkpt>
      <trkpt lat="45.40763" lon="5.94547">
        <ele>943.67</ele>
        <time>2015-02-28T13:29:21Z</time>
      </trkpt>
      <trkpt lat="45.40757" lon="5.94547">
        <ele>940.79</ele>
        <time>2015-02-28T13:29:28Z</time>
      </trkpt>
      <trkpt lat="45.40757" lon="5.94547">
        <ele>940.31</ele>
        <time>2015-02-28T13:30:09Z</time>
      </trkpt>
      <trkpt lat="45.40757" lon="5.94547">
        <ele>942.23</ele>
        <time>2015-02-28T13:31:01Z</time>
      </trkpt>
    </trkseg>
  </trk>
</gpx>